GFSMA_sfc_thetae_000.txt.gz
Theta_e
326 326 326 326 326 327 323 315 311 311 309 310 310 310 311 314 314 317 319 325 329 331 333 333 336 337 339 340 339 339 339 338 338 340 339 339 338 339 339 339 339 339 339
326 324 313 313 315 310 308 307 305 305 304 305 305 306 306 307 307 308 310 313 325 327 325 325 327 331 335 335 335 338 338 337 337 337 336 336 336 337 338 338 338 338 339
314 311 309 306 307 306 304 303 302 301 301 302 300 302 302 301 303 303 307 307 309 318 321 321 326 320 322 323 325 327 332 331 331 331 331 333 334 334 335 335 336 337 338
308 306 303 302 303 302 300 300 299 297 298 297 296 297 298 299 300 303 303 301 304 306 310 317 314 314 315 318 321 321 321 322 326 327 328 330 330 332 332 333 334 334 335
304 302 300 300 301 299 297 297 295 295 295 295 296 297 296 296 299 299 296 299 302 302 302 310 311 311 312 314 315 317 317 317 318 319 319 320 323 324 326 327 330 331 330
300 299 297 298 298 296 295 294 293 294 294 294 298 296 293 297 295 293 294 298 297 296 298 297 296 299 309 309 311 312 314 316 318 317 317 319 319 320 321 322 324 325 326
297 296 296 295 296 294 292 293 293 293 293 293 292 291 294 294 292 293 294 293 295 294 296 295 297 297 297 305 305 308 310 312 313 314 315 315 316 316 317 318 319 320 322
296 296 294 294 293 293 291 291 291 291 292 292 289 289 287 290 292 293 292 293 291 293 294 295 295 295 295 294 297 304 305 309 311 311 312 313 313 314 314 315 317 317 319
294 294 293 292 292 291 290 289 289 289 288 290 290 289 286 284 288 290 290 290 291 291 292 293 294 294 292 292 294 296 303 305 307 310 311 311 311 312 313 313 313 314 315
293 293 292 291 290 290 288 288 290 288 288 286 289 292 289 288 284 283 287 289 288 290 290 291 292 292 291 292 295 298 300 302 305 307 309 310 310 311 312 311 312 312 312
291 291 290 289 289 289 287 287 287 286 287 286 287 287 286 286 286 284 282 284 288 289 291 290 289 290 290 290 291 294 299 301 304 305 307 307 308 309 309 309 309 309 309
289 289 289 288 287 287 287 287 286 285 285 285 285 285 286 284 284 283 282 283 283 286 287 289 288 289 289 290 293 297 298 299 301 302 304 305 305 305 306 306 306 306 307
287 287 287 286 286 286 286 286 285 284 284 284 283 284 285 285 285 285 284 282 281 284 285 286 286 287 290 288 289 294 295 296 297 299 301 303 302 301 302 303 304 305 305
286 286 286 285 285 285 285 284 284 284 284 283 282 283 283 284 285 285 283 282 280 281 283 283 285 285 286 287 291 293 289 293 294 296 298 299 298 298 299 300 301 302 302
288 285 284 284 284 284 284 283 283 283 283 283 282 282 282 283 283 284 284 284 282 278 279 283 283 285 286 287 289 288 288 292 294 295 295 295 295 296 297 298 298 299 299
284 284 284 283 283 283 283 282 282 283 282 282 283 281 281 282 283 284 284 284 283 281 278 283 284 285 285 286 288 288 287 291 292 293 294 293 293 294 295 296 296 297 297
283 283 283 283 283 283 283 282 282 282 282 281 281 281 282 282 283 283 284 283 283 282 280 282 284 285 284 284 286 286 287 287 288 291 292 292 293 293 294 294 294 294 295
283 283 283 283 283 283 283 282 281 281 281 280 281 281 282 284 282 282 283 282 282 283 281 279 283 283 284 285 286 285 286 286 285 288 290 291 291 291 292 292 292 293 294
283 283 283 283 283 283 282 282 282 281 281 281 281 281 281 281 281 282 282 282 283 284 284 282 281 283 283 285 282 282 282 282 283 287 289 290 290 291 291 292 293 292 291
283 283 283 282 282 282 282 282 282 281 281 282 282 282 281 281 281 282 283 283 283 281 281 281 281 282 284 282 280 278 278 280 280 283 286 287 289 289 290 290 290 289 290
283 282 282 281 281 282 284 285 284 282 281 280 281 281 282 284 287 286 284 283 282 282 283 282 280 281 279 278 277 278 277 279 280 283 281 281 282 282 283 286 287 288 289
281 281 280 280 280 283 288 289 288 283 281 279 279 280 281 285 284 288 288 288 287 283 281 281 280 278 277 277 278 277 278 278 274 281 279 279 281 280 281 282 287 288 289
279 280 280 279 279 279 288 288 289 283 280 279 280 280 281 283 284 282 285 287 287 287 287 282 278 277 277 278 280 279 277 277 276 279 279 277 280 278 281 282 286 287 288
279 279 279 279 278 280 286 287 288 281 279 279 280 280 280 280 282 283 283 282 283 281 280 280 280 281 282 281 280 279 279 279 279 279 279 274 278 277 279 280 285 286 287
278 278 279 278 277 277 285 286 285 281 280 279 280 280 281 281 285 287 284 282 279 278 282 285 285 284 284 284 283 280 277 275 274 275 278 276 276 276 278 278 280 285 287
278 279 278 277 280 276 282 286 285 281 279 279 280 281 285 284 287 288 282 279 276 276 280 279 277 278 280 280 283 280 278 274 273 273 277 275 276 277 275 279 279 280 281

GFSMA_sfc_thetae_003.txt.gz
Theta_e
323 324 325 320 314 313 309 305 304 302 302 302 302 302 302 304 304 307 310 319 324 323 324 326 330 331 329 330 332 335 337 336 336 336 335 334 335 334 335 336 337 337 338
320 308 309 311 309 305 304 301 299 298 298 298 298 298 298 297 300 302 306 305 317 316 320 325 321 321 321 324 327 327 326 326 325 325 325 326 329 333 331 332 334 334 335
310 309 308 306 303 301 299 297 296 297 296 296 294 296 297 295 298 299 300 300 304 311 315 315 315 316 318 321 320 321 321 321 321 322 322 322 323 324 326 328 331 334 332
308 304 302 301 298 297 297 295 294 294 294 293 292 295 295 294 297 294 295 297 300 299 305 309 311 311 315 315 316 317 317 317 318 319 320 320 321 322 324 325 326 327 328
303 299 299 298 296 295 294 294 293 292 292 292 294 295 293 293 295 293 292 294 297 294 297 302 305 306 309 310 312 313 314 315 316 317 317 317 318 318 319 320 321 322 324
298 296 296 296 295 294 293 292 291 291 292 291 294 294 291 294 292 290 291 293 292 291 295 293 294 296 305 306 307 309 310 310 311 313 313 313 315 315 316 317 317 317 319
296 295 294 294 293 292 290 290 290 290 290 291 289 290 291 292 291 290 291 290 290 292 292 293 294 294 294 301 302 305 306 308 310 310 311 312 313 314 314 315 315 315 316
295 294 293 292 291 290 289 288 289 288 288 290 288 287 286 288 290 291 289 291 289 291 291 292 293 293 292 290 294 301 302 307 308 309 309 310 311 312 313 313 313 314 314
293 293 291 291 290 289 288 287 287 286 285 287 288 286 282 282 285 287 288 288 289 288 289 290 292 292 291 289 293 294 300 302 305 308 309 309 309 310 311 311 312 312 313
291 291 290 289 288 288 286 286 288 286 285 284 286 289 287 286 282 281 285 287 286 288 286 287 290 290 290 289 293 296 298 301 304 306 307 307 308 308 309 309 310 311 311
290 290 289 288 287 287 286 285 284 284 285 284 284 284 284 284 284 282 279 282 286 286 287 287 288 289 288 289 288 293 298 300 302 304 305 306 306 307 308 309 309 308 308
288 288 288 286 286 285 285 285 284 283 283 283 283 283 283 282 281 280 280 281 280 283 284 286 287 287 287 288 292 295 296 297 300 301 303 304 305 305 305 306 306 307 307
286 286 286 285 284 284 285 284 283 283 283 282 281 282 283 283 283 283 281 280 279 281 282 284 285 286 288 287 287 294 295 296 297 299 301 303 301 301 302 303 304 304 305
286 285 285 284 284 284 283 283 283 283 283 282 281 281 282 282 283 282 281 279 277 279 281 280 284 284 285 286 289 294 289 293 294 296 298 299 299 298 298 299 301 301 302
287 284 284 283 283 283 283 282 282 282 281 281 281 281 280 282 282 282 282 282 279 276 277 280 281 284 284 285 288 288 287 291 293 294 295 295 295 296 296 297 297 298 299
284 283 283 283 283 283 282 282 281 282 281 281 282 280 280 281 281 282 282 282 282 280 277 282 283 284 284 286 288 288 287 291 292 293 293 293 293 293 294 295 296 297 298
283 283 283 282 282 282 282 281 281 282 281 281 280 280 281 281 281 282 282 282 281 281 278 281 283 284 284 284 285 286 287 288 287 291 291 291 291 291 293 294 294 295 295
283 282 282 282 282 282 282 281 280 281 280 280 280 280 281 283 280 280 281 281 281 282 281 279 282 282 282 283 284 284 285 285 283 287 289 289 291 291 292 292 293 293 294
282 282 282 281 282 282 281 281 281 281 280 280 280 280 280 280 279 280 280 281 282 284 282 280 279 282 283 283 283 282 281 281 282 286 288 288 289 290 291 291 291 292 292
282 281 281 281 281 281 281 281 282 281 280 281 281 281 280 280 280 280 281 282 283 281 281 280 281 282 281 283 282 279 278 280 279 282 285 287 287 288 288 289 289 289 289
281 281 281 281 280 281 283 284 283 281 280 279 279 280 281 283 287 286 284 283 282 281 281 281 279 280 279 278 277 278 277 278 279 281 279 280 280 281 282 285 286 287 287
280 281 280 279 279 282 287 289 287 282 279 278 278 279 280 283 283 287 287 287 286 283 281 281 279 277 276 277 278 278 278 276 274 280 278 278 280 279 280 281 286 287 288
279 279 279 278 278 278 287 288 288 281 279 278 280 280 280 282 283 281 284 287 287 288 286 282 277 277 276 278 280 278 277 277 276 279 279 276 279 277 280 281 285 286 287
278 278 278 278 277 279 286 287 287 280 279 278 279 279 279 279 281 283 284 283 281 280 280 280 279 280 281 281 280 279 279 278 279 279 279 274 277 276 278 279 284 286 287
277 278 278 277 276 277 285 286 285 279 279 278 279 279 280 281 285 288 283 279 278 278 281 284 285 284 284 284 283 280 276 275 273 275 278 276 276 276 277 278 280 285 286
278 277 277 277 279 276 282 285 285 281 278 279 280 280 285 284 287 287 281 278 275 276 279 279 277 278 280 280 283 280 278 274 273 273 277 275 276 277 275 279 279 280 280

GFSMA_sfc_thetae_006.txt.gz
Theta_e
322 322 318 313 310 306 303 300 298 298 296 297 296 297 297 295 297 301 303 315 317 321 326 323 323 323 324 327 328 327 327 327 326 326 326 328 328 330 331 332 335 336 336
316 311 310 307 305 302 298 296 295 295 294 293 293 294 295 293 297 295 298 300 310 315 316 317 318 318 321 321 322 322 322 321 322 323 322 323 324 324 325 328 330 330 331
310 309 306 302 298 297 295 294 293 294 292 293 290 293 294 292 293 293 294 297 299 306 309 312 313 314 316 317 319 318 318 318 319 320 321 321 321 321 323 326 326 327 328
307 304 300 297 295 294 294 293 292 292 291 290 289 291 292 293 291 290 292 295 294 295 300 306 307 309 311 312 313 315 315 315 316 318 319 318 318 319 320 320 321 322 323
302 300 296 294 294 293 292 292 291 290 290 290 291 292 291 291 290 291 290 292 291 292 293 299 302 303 305 308 309 310 312 311 311 312 314 314 315 316 316 317 318 318 318
297 296 294 293 293 292 290 289 289 289 290 289 292 292 290 293 290 288 290 291 289 291 291 291 291 293 302 304 305 307 308 308 309 311 312 312 313 314 315 315 315 316 317
295 294 293 292 291 290 288 288 288 287 287 289 287 288 290 290 290 290 288 289 288 289 290 289 291 291 292 300 300 303 305 306 308 310 310 311 311 312 313 314 315 315 315
294 293 292 290 289 288 287 286 286 286 286 287 285 285 283 286 287 289 287 288 286 289 289 290 290 290 290 290 293 300 301 303 307 308 309 310 311 311 312 312 313 313 313
292 291 290 289 288 287 286 285 285 285 284 285 286 284 280 279 283 286 286 286 286 286 287 287 288 289 290 289 292 293 298 301 304 306 308 309 309 310 310 311 311 312 312
290 290 289 288 287 287 285 285 286 284 284 282 284 287 284 284 280 280 283 285 284 286 284 284 286 287 289 288 292 295 298 299 302 305 306 307 308 309 309 310 310 311 311
289 289 288 287 286 286 284 284 283 282 283 283 282 282 282 282 282 280 277 280 283 284 284 283 284 285 286 288 287 291 297 299 301 303 305 306 306 307 308 309 309 309 308
287 287 287 285 285 284 284 283 283 282 282 282 282 282 282 280 280 279 277 279 279 281 283 284 283 284 286 286 290 295 296 297 299 301 303 304 305 305 306 306 306 307 307
285 285 285 284 283 283 284 283 283 282 282 281 280 281 282 282 282 281 280 279 278 280 280 282 283 284 286 286 287 293 294 296 297 299 301 303 301 301 302 303 304 304 305
285 284 284 283 283 283 283 282 282 282 281 281 280 280 281 281 282 281 280 278 276 277 280 278 283 283 283 286 288 293 288 293 294 296 298 298 298 298 298 299 300 301 301
286 283 283 283 282 282 282 281 281 281 280 280 280 280 280 281 281 281 281 280 278 275 276 278 279 284 284 285 287 287 287 291 293 294 295 295 295 295 295 296 296 296 297
283 283 282 282 282 282 281 281 281 281 280 281 282 280 279 280 281 281 281 281 280 278 276 280 281 283 284 286 287 287 286 290 291 293 293 293 293 292 293 293 294 295 295
282 282 282 282 282 281 281 280 280 281 280 280 280 280 280 280 280 280 280 280 280 280 277 280 282 284 283 282 283 284 285 285 287 291 291 291 291 291 291 292 293 294 295
282 282 282 282 281 281 280 279 280 280 280 280 280 280 280 282 280 280 280 279 280 280 279 277 281 281 281 283 283 283 284 286 285 287 289 289 290 290 290 291 292 292 293
281 281 281 281 281 281 280 280 280 280 280 280 279 279 279 279 278 279 279 279 280 282 282 280 279 281 282 283 282 283 282 282 282 286 287 288 288 289 290 290 290 291 291
281 281 281 280 280 280 280 280 282 281 280 280 279 279 279 279 279 279 280 280 282 280 280 279 279 281 281 282 281 278 277 279 279 282 284 286 287 287 288 288 288 288 288
280 281 280 280 279 280 282 283 283 281 279 278 278 279 280 282 286 285 283 281 281 280 280 281 281 280 278 277 276 278 277 279 280 280 279 280 280 280 281 284 285 286 286
280 280 279 278 278 281 286 288 287 281 279 278 277 278 279 283 282 287 287 287 286 284 280 278 277 276 276 276 277 278 278 276 274 281 279 278 280 279 280 280 284 286 287
278 278 277 277 277 277 286 288 288 281 279 278 279 279 280 282 283 280 284 287 286 286 285 280 276 276 276 278 280 278 277 277 276 279 279 276 279 277 279 280 284 285 286
277 277 277 276 276 278 286 287 287 280 279 278 279 278 278 279 280 283 283 283 279 279 279 280 279 280 281 281 280 279 278 278 279 278 279 274 277 276 278 279 284 285 286
276 276 276 276 275 276 284 286 285 280 279 279 279 279 279 280 285 287 283 279 278 278 281 284 285 284 284 284 283 280 276 275 273 275 278 275 276 275 277 278 280 285 286
277 277 277 276 279 275 282 285 285 281 278 279 280 280 284 284 286 287 281 279 275 276 279 279 277 278 279 279 283 279 277 274 273 272 277 275 275 276 274 278 278 279 279

GFSMA_sfc_thetae_009.txt.gz
Theta_e
332 328 314 312 310 310 307 305 305 303 301 301 301 303 302 305 304 308 309 315 319 320 321 321 320 322 324 323 324 324 323 324 324 325 326 328 329 328 329 331 332 334 336
322 314 310 308 308 305 303 303 302 301 299 299 299 301 301 302 302 302 305 305 311 313 315 316 316 318 318 319 321 320 320 320 321 321 322 322 323 323 324 326 328 329 330
313 310 307 304 303 302 301 301 300 301 298 298 298 299 300 301 300 301 302 302 303 305 309 310 310 311 313 315 315 316 317 316 317 320 322 321 320 322 323 324 324 324 325
310 305 302 301 301 300 300 299 298 299 298 297 297 298 299 302 298 299 300 300 301 300 301 304 305 306 308 310 312 313 313 313 313 314 315 316 318 318 319 320 320 320 321
306 302 301 300 299 298 298 297 296 297 296 296 296 298 298 301 298 298 298 299 298 298 298 299 300 300 302 305 308 309 310 310 310 311 313 315 315 315 316 317 317 318 319
302 300 299 298 298 297 296 296 295 295 295 294 294 295 299 302 299 298 296 298 296 297 297 296 296 296 298 302 304 306 307 308 308 309 312 313 313 314 315 315 316 316 317
300 299 298 297 296 295 294 294 295 293 293 294 293 295 296 297 299 300 296 297 294 295 295 295 294 294 295 298 301 302 304 305 307 308 310 311 312 313 314 314 314 315 315
299 298 297 295 295 294 293 293 293 293 292 293 290 291 289 293 295 294 295 295 293 294 293 293 293 293 293 294 296 299 301 303 305 307 308 309 311 312 313 313 314 314 314
297 296 295 294 294 294 292 292 292 291 290 291 291 290 287 286 288 292 293 294 292 291 291 292 291 292 292 293 294 295 297 300 303 305 307 308 309 310 311 312 312 313 313
295 294 294 293 293 292 291 291 291 291 291 288 291 290 290 289 285 284 290 290 291 289 290 290 290 290 291 292 293 295 297 299 302 304 306 307 308 309 310 311 311 311 311
294 293 293 292 291 291 290 290 290 290 290 289 288 288 288 288 289 286 282 286 288 289 289 289 289 290 290 291 292 293 296 298 301 303 305 306 307 309 309 309 309 310 310
292 291 291 291 290 290 290 290 289 289 289 288 288 288 287 286 285 284 283 284 284 286 287 288 289 289 290 291 291 293 294 296 299 301 303 304 305 306 306 307 307 307 308
290 290 290 289 289 289 289 289 289 288 288 288 287 287 287 287 287 285 284 283 282 285 285 287 288 289 289 290 290 292 293 295 296 298 301 302 301 301 302 303 304 304 305
290 289 289 289 288 288 288 288 289 289 288 288 286 287 287 287 287 286 285 283 281 282 284 284 287 288 289 289 290 292 290 292 293 295 297 298 297 297 298 299 300 301 301
288 288 288 288 288 288 288 287 288 287 287 287 287 287 286 287 287 287 286 285 282 278 280 283 284 287 288 288 289 289 289 291 292 293 294 294 294 295 296 296 296 296 296
288 287 287 287 287 287 287 287 287 287 286 287 287 286 286 286 286 286 286 286 285 282 279 283 285 286 287 287 289 288 288 290 291 292 293 292 293 293 293 294 294 294 295
287 287 287 286 286 286 286 286 286 286 286 286 286 285 285 285 285 285 286 285 284 283 281 283 286 287 286 286 286 288 288 288 289 291 291 291 291 291 291 292 292 293 293
287 286 286 286 286 285 285 285 285 286 285 284 284 284 284 284 284 284 284 284 284 284 283 281 283 285 285 286 286 286 287 287 287 288 289 289 290 290 290 291 291 292 292
285 286 286 285 284 284 284 284 285 286 285 284 284 283 283 283 282 283 283 283 284 284 284 283 282 285 285 286 286 285 284 284 284 286 288 288 289 289 290 290 290 291 290
285 285 285 284 284 283 284 284 286 286 285 284 284 283 283 282 282 283 283 284 284 283 283 283 283 283 283 284 284 282 281 283 283 284 286 287 288 288 288 289 288 288 288
284 284 284 283 283 283 284 287 287 286 285 284 284 283 284 284 286 286 285 284 284 284 284 283 282 281 281 280 279 281 280 282 283 283 283 284 284 284 285 286 286 286 286
283 283 282 282 282 282 286 288 288 286 285 283 283 283 284 284 284 287 287 287 287 285 283 282 281 279 279 279 281 281 280 278 277 283 281 281 284 283 284 284 285 286 287
282 282 281 281 281 281 286 288 288 286 284 284 283 283 283 284 285 283 285 287 288 287 286 283 279 279 279 281 282 280 280 279 279 282 281 278 282 281 283 283 285 286 286
281 281 280 280 280 281 285 286 287 285 284 284 284 283 283 283 284 284 285 285 284 283 282 282 281 282 283 283 282 281 281 281 281 282 281 276 281 280 282 283 285 286 286
280 280 280 280 280 281 284 285 286 284 283 283 284 284 283 283 285 287 285 282 281 281 283 284 285 285 284 284 283 281 279 277 276 277 281 278 279 279 280 281 283 285 286
280 280 280 280 281 280 283 285 285 284 282 282 283 284 284 284 286 287 283 281 278 279 281 282 280 280 281 281 283 281 279 275 275 274 279 277 278 279 276 281 282 283 283

GFSMA_sfc_thetae_012.txt.gz
Theta_e
335 335 325 321 319 319 317 315 312 308 307 306 305 306 306 307 308 312 314 317 318 320 320 320 323 321 321 322 323 322 321 322 323 324 324 325 326 327 327 327 330 332 333
335 324 314 313 315 313 310 308 307 306 305 304 303 304 304 306 308 309 310 310 311 313 313 314 314 315 316 317 318 317 318 318 319 320 323 325 324 324 325 325 328 329 329
324 316 309 309 310 308 306 306 306 306 304 303 303 303 304 305 306 307 307 307 306 306 308 308 309 309 310 312 314 314 314 315 315 315 316 317 319 321 321 323 324 324 325
314 309 309 308 307 306 306 304 303 303 302 302 302 303 303 305 304 304 304 304 304 303 302 303 304 305 306 307 310 311 312 311 312 313 313 314 316 318 318 319 320 320 321
308 306 307 306 305 304 303 302 301 301 300 301 300 301 303 304 303 302 303 303 302 302 301 300 300 299 300 304 307 309 309 309 310 310 311 312 314 316 316 317 317 318 319
309 308 306 304 304 302 301 301 299 300 299 299 298 300 305 306 303 304 303 302 301 300 300 299 299 299 299 300 302 305 306 307 308 308 310 311 314 314 315 316 316 317 317
305 307 305 303 303 301 299 299 299 298 297 298 298 301 302 302 304 304 300 301 299 298 298 298 298 297 297 299 299 301 304 305 306 307 308 310 312 313 313 314 316 316 316
304 305 304 302 301 300 299 298 298 298 297 297 294 296 295 298 300 300 300 298 297 297 297 296 296 296 296 296 297 299 300 302 305 307 308 309 310 311 312 313 314 315 315
302 303 302 301 300 300 298 297 297 296 295 296 295 294 292 292 292 298 297 297 296 295 295 296 295 295 295 295 296 296 297 299 302 306 307 308 309 310 311 312 312 313 313
302 301 300 300 299 298 297 296 295 295 296 293 296 293 294 292 289 289 295 295 295 293 294 294 294 294 294 294 295 295 296 298 301 304 306 307 308 310 310 311 312 312 312
300 299 299 298 297 297 296 295 295 295 295 294 293 292 293 292 292 289 287 291 293 294 294 293 293 293 293 294 294 294 295 297 300 302 304 306 307 308 309 309 309 310 310
298 297 297 297 296 296 295 295 295 294 294 294 293 292 291 290 289 289 288 289 289 291 293 293 292 292 293 292 293 294 294 296 298 300 302 303 304 305 306 306 307 307 307
296 296 296 295 295 295 294 294 294 294 293 293 292 291 291 290 290 289 288 287 287 289 290 291 292 292 291 292 292 292 293 295 295 297 300 301 301 300 301 302 303 303 304
297 296 295 294 294 293 293 294 294 294 293 293 291 291 291 291 291 290 288 286 284 286 288 289 291 291 291 291 291 292 291 293 293 295 297 297 297 296 297 298 299 300 301
295 295 294 293 293 293 292 293 293 292 292 292 291 291 290 290 290 290 289 288 285 282 283 287 287 290 290 290 291 290 290 292 293 294 294 294 294 294 295 296 296 297 297
294 293 293 293 292 292 292 292 292 291 291 292 291 290 290 290 289 289 289 288 287 285 282 286 287 288 289 289 290 290 290 291 292 293 293 293 293 293 293 294 294 294 295
293 292 292 291 291 291 291 291 290 290 290 290 290 289 288 289 288 288 288 287 286 286 283 285 287 288 288 288 289 290 290 289 290 291 292 291 291 291 292 292 293 293 294
292 291 291 291 290 290 290 289 289 290 289 289 289 288 287 287 286 286 286 286 286 286 284 283 285 286 286 288 288 287 288 288 288 288 290 290 291 291 291 291 292 292 292
291 290 291 290 289 289 289 288 288 289 289 289 288 287 286 286 285 285 285 286 286 286 286 285 284 287 288 288 287 287 286 286 286 288 289 290 290 290 291 291 291 291 291
290 290 290 289 288 288 288 287 289 289 289 289 288 287 287 285 285 285 286 286 286 285 285 285 285 286 286 287 286 284 282 285 285 286 288 288 289 289 290 290 290 289 289
289 289 288 288 288 287 287 288 290 289 289 288 288 287 287 286 287 287 286 285 285 284 285 285 285 284 284 283 281 283 282 284 285 285 286 286 286 287 287 288 288 288 288
288 288 287 287 286 286 286 288 288 288 288 287 286 286 287 287 286 287 287 287 286 285 284 284 283 281 281 282 282 282 282 281 279 285 284 283 286 285 286 287 288 288 288
287 286 286 286 285 285 286 287 288 287 287 286 286 286 285 286 287 285 286 287 288 289 288 285 282 281 281 282 283 283 282 281 280 283 283 281 284 283 286 286 287 287 288
286 286 285 285 285 285 285 286 287 287 286 286 286 286 285 285 285 285 285 286 286 285 285 284 283 283 284 285 284 283 282 282 283 283 284 279 283 282 285 286 287 288 288
286 285 285 284 284 284 284 285 286 286 285 285 286 286 285 285 286 287 285 284 283 283 285 285 286 287 286 286 285 282 280 279 278 279 282 280 281 281 282 284 286 287 288
285 285 284 284 283 283 283 285 285 285 284 284 285 285 286 285 286 287 284 282 281 281 282 283 283 283 283 283 284 283 282 278 278 276 281 279 279 280 278 283 285 285 286

GFSMA_sfc_thetae_015.txt.gz
Theta_e
332 332 332 328 325 322 319 317 313 310 308 307 307 306 306 306 308 310 313 317 318 319 319 319 319 319 319 319 320 320 320 321 321 321 322 324 326 326 326 327 328 330 331
334 329 325 322 320 317 313 310 308 308 307 306 305 305 305 306 306 308 310 309 312 312 313 313 312 312 313 314 315 315 316 316 317 317 317 318 320 321 323 324 325 327 327
332 325 318 316 315 311 309 308 307 307 306 305 304 304 304 305 305 307 307 309 307 307 307 308 308 308 309 311 311 313 313 313 313 314 315 315 316 317 319 320 321 322 323
327 320 316 314 311 309 308 306 304 304 304 303 303 303 304 304 304 304 305 305 305 304 305 303 303 304 305 308 310 311 312 311 311 312 313 313 314 315 317 319 319 319 320
317 311 311 310 309 307 305 303 303 302 301 302 301 302 304 304 304 302 303 303 303 303 303 304 302 302 301 303 306 308 309 309 309 310 311 311 312 313 316 317 317 318 318
310 312 311 308 307 305 304 303 302 302 300 299 299 301 305 305 305 304 303 302 301 301 301 301 300 300 302 301 303 304 306 308 307 308 309 310 311 312 314 316 316 317 317
311 311 309 307 306 304 302 302 301 300 299 299 301 301 303 302 304 304 304 301 301 300 299 299 298 298 298 301 300 301 304 305 307 307 308 310 311 311 313 313 314 315 316
307 308 308 306 304 303 301 301 301 300 299 298 295 299 297 299 300 300 301 300 298 299 298 297 297 297 297 297 298 300 300 302 305 306 307 308 309 311 312 313 314 314 315
305 306 306 304 304 304 301 300 300 298 297 298 296 294 293 293 293 299 299 298 298 297 297 297 296 296 296 296 296 297 298 299 302 305 306 307 308 309 311 312 313 313 313
302 304 304 303 302 301 300 298 298 297 298 295 297 294 294 293 289 289 297 297 297 294 296 296 295 295 295 295 296 296 297 297 301 303 305 306 307 308 309 310 311 312 312
301 302 302 302 300 300 299 298 297 296 296 295 294 293 293 294 293 290 288 292 294 295 296 295 294 294 294 294 294 295 296 297 300 302 304 305 306 306 307 308 308 308 308
299 301 301 300 299 298 297 297 297 296 295 294 294 293 292 290 290 290 288 289 289 292 294 294 293 293 293 293 293 295 295 296 298 300 302 303 304 304 305 305 305 305 305
298 299 299 298 298 298 297 296 296 295 294 293 293 292 292 291 291 290 289 288 287 290 290 293 293 293 292 292 292 294 294 295 296 298 301 302 301 300 300 302 302 303 303
300 299 298 298 296 296 295 295 295 295 294 294 293 293 292 292 292 291 289 287 284 286 288 288 292 292 292 291 292 294 291 294 295 297 298 298 298 297 298 298 299 300 300
299 298 297 296 295 295 294 294 294 293 293 293 292 293 292 292 292 291 290 289 286 282 283 287 287 291 291 290 291 290 289 293 294 295 295 295 295 295 296 296 297 297 297
297 296 295 295 294 294 293 293 293 292 291 292 292 291 291 291 290 290 289 289 288 285 281 286 287 288 289 289 290 290 290 292 293 294 294 293 294 294 294 294 295 295 296
296 295 294 293 293 293 292 292 291 291 291 291 291 291 289 290 289 288 288 287 286 286 282 285 287 288 287 287 288 289 290 289 289 292 292 292 292 292 293 293 294 294 295
295 294 293 292 292 291 291 290 290 290 290 289 290 290 289 288 287 287 287 286 285 286 284 282 285 286 286 287 288 287 288 288 287 289 291 292 292 292 292 293 293 293 294
293 292 292 292 291 290 289 290 289 289 289 290 289 288 288 287 286 286 286 285 286 286 286 284 283 286 286 287 287 287 286 286 286 289 290 291 291 291 292 292 292 293 293
292 292 291 290 289 289 288 288 289 290 290 290 290 289 288 287 285 285 285 285 286 285 285 283 283 283 285 287 285 283 282 284 283 286 288 289 290 290 291 291 291 291 291
291 291 289 289 288 288 288 288 289 289 289 288 288 288 288 288 288 288 286 285 285 284 283 282 282 283 282 282 281 282 281 282 282 284 283 284 285 284 285 288 288 289 290
289 289 288 287 287 287 286 288 288 287 287 287 286 286 287 288 287 288 289 288 287 284 283 283 283 281 281 281 281 281 280 280 278 284 282 281 283 283 284 285 289 289 290
289 288 287 286 286 286 286 287 288 286 286 286 286 286 286 286 287 286 287 287 287 288 288 284 282 281 280 281 281 280 281 280 278 281 281 279 283 281 284 285 288 289 289
287 286 286 286 286 286 285 286 287 286 286 286 286 286 285 285 286 286 285 284 285 285 285 284 283 282 283 284 284 284 281 280 281 282 283 277 281 279 282 283 287 288 289
286 285 285 285 284 285 284 285 286 285 284 285 286 286 285 285 287 288 285 283 283 282 285 286 286 287 288 287 286 282 279 278 277 278 281 279 279 279 280 280 283 288 289
285 285 284 285 284 283 285 285 285 284 283 283 284 285 287 286 287 287 284 282 280 280 281 282 283 283 284 283 285 283 282 278 277 276 280 278 278 278 276 280 281 282 283

GFSMA_sfc_thetae_018.txt.gz
Theta_e
325 325 325 322 318 314 311 308 304 302 301 301 299 298 299 299 299 308 308 319 319 319 319 318 317 317 316 317 317 317 317 318 318 318 319 319 320 321 323 325 325 328 328
326 322 318 317 312 308 304 302 300 300 299 298 298 297 297 298 299 302 305 309 313 312 312 312 312 312 313 313 314 314 314 315 315 315 316 316 316 317 318 320 322 323 324
325 318 313 312 307 303 303 301 299 299 298 299 297 298 297 297 298 300 302 302 305 310 308 307 308 308 309 311 313 313 313 313 313 313 314 314 314 315 316 317 320 320 320
320 313 310 307 304 303 301 298 297 297 296 296 295 294 296 297 297 298 298 298 298 300 304 304 304 305 305 307 310 311 311 311 311 312 312 313 313 314 315 316 318 318 319
317 312 308 304 303 301 299 298 296 295 294 294 295 294 297 297 296 299 296 297 297 296 296 302 303 304 303 304 307 308 309 310 310 310 311 312 312 313 314 315 317 318 317
308 306 307 303 302 299 297 296 295 295 294 293 296 296 297 298 296 296 296 298 295 295 294 294 293 294 302 303 305 304 306 307 308 309 309 311 311 313 314 314 315 316 317
307 306 305 301 300 297 295 296 295 294 293 292 293 293 294 296 297 297 297 294 294 293 293 292 292 292 292 300 300 302 304 305 306 308 308 309 309 311 312 313 314 315 315
307 306 304 300 298 296 296 295 294 294 293 292 289 290 289 292 293 294 293 294 291 292 292 292 291 291 290 290 294 300 301 303 304 306 307 308 309 310 311 312 312 313 314
303 305 303 300 298 297 295 294 293 292 291 291 290 289 286 286 286 291 291 291 291 290 290 291 292 291 290 289 293 293 298 300 301 305 306 307 308 308 309 310 311 312 312
301 303 302 300 297 296 294 293 294 292 292 289 291 292 288 287 284 283 289 289 290 290 289 289 290 290 290 289 293 296 297 298 301 304 305 306 307 308 309 309 309 310 310
301 301 301 299 295 295 292 292 292 290 290 289 289 288 287 287 287 284 282 285 288 289 289 289 288 289 289 289 289 291 296 298 300 302 304 305 306 307 308 308 308 307 307
299 298 300 298 294 293 292 292 291 290 290 289 289 288 287 286 285 284 282 282 283 286 287 288 288 288 288 288 292 295 295 297 299 301 303 304 305 305 305 305 305 305 305
297 298 298 296 293 293 293 292 291 290 289 288 287 287 288 287 287 286 284 283 282 284 285 286 287 287 289 287 287 294 295 296 297 299 302 303 302 301 301 302 303 303 303
297 297 296 293 292 292 292 291 290 290 289 288 287 287 288 287 288 287 285 282 281 281 283 282 286 285 285 286 290 294 287 294 295 297 299 300 298 298 298 299 300 300 300
297 296 295 291 290 290 290 290 289 288 288 287 287 287 287 287 287 286 286 284 281 279 280 281 281 286 285 286 288 288 287 292 294 295 296 296 295 295 296 297 297 297 298
296 294 292 290 289 289 289 289 288 288 287 287 288 286 286 286 285 285 284 284 283 280 278 282 283 283 284 287 289 288 287 292 293 294 294 294 294 294 294 295 296 296 297
294 293 290 289 289 288 288 287 287 287 287 286 286 286 286 285 284 284 283 283 282 281 279 281 283 284 283 283 285 285 287 287 287 292 293 293 293 293 294 294 294 295 295
293 292 289 289 289 288 287 287 286 286 286 285 285 285 285 287 283 282 282 281 281 281 280 279 282 283 282 283 284 284 287 288 286 289 292 292 292 292 293 293 293 294 294
291 289 289 289 288 288 287 286 285 285 286 285 285 284 284 283 282 281 281 280 281 284 282 281 280 283 283 284 284 286 284 284 285 288 290 290 291 292 292 292 293 293 293
290 288 288 287 287 288 287 286 286 286 285 286 286 285 284 283 282 281 282 281 283 281 281 280 280 281 282 284 283 280 280 281 281 284 286 288 290 290 291 291 291 290 290
288 287 287 287 287 286 287 286 287 286 284 284 284 284 284 286 289 288 285 282 282 281 280 279 281 281 282 280 279 280 279 280 280 282 282 282 282 283 283 287 287 289 289
286 287 286 285 285 286 288 288 288 285 284 282 282 282 283 287 286 289 289 289 287 283 280 280 282 279 279 279 277 278 278 277 276 283 278 279 281 280 282 283 287 289 290
286 285 284 284 284 285 287 287 287 284 282 281 281 282 283 285 285 283 286 287 286 288 288 283 280 279 278 279 278 278 279 280 279 280 280 277 281 280 282 283 287 288 289
284 283 283 284 284 285 286 286 287 282 281 281 281 281 281 281 282 284 283 280 281 282 283 283 281 281 280 283 283 283 281 280 280 280 280 276 280 279 281 281 287 287 288
283 284 284 283 281 281 285 285 285 281 280 279 281 281 282 281 286 288 284 278 280 280 284 286 286 287 287 287 286 282 278 277 276 278 280 278 278 278 279 279 281 286 287
283 283 282 281 284 279 285 285 284 281 278 279 280 281 286 284 287 287 283 281 278 278 279 280 281 281 282 280 285 281 279 276 275 275 278 277 277 278 275 278 279 280 280

GFSMA_sfc_thetae_021.txt.gz
Theta_e
319 322 324 325 320 312 308 302 300 299 298 297 296 296 296 296 305 308 311 321 320 319 318 317 316 316 316 316 316 316 316 316 317 316 316 317 317 318 319 320 322 324 325
323 320 317 313 308 304 301 299 298 298 296 296 296 295 295 297 301 304 306 310 315 312 312 312 312 312 312 314 315 315 315 315 315 314 315 315 315 316 317 317 318 320 321
321 316 312 307 303 301 300 298 297 296 296 296 294 294 295 295 296 302 301 302 304 312 309 308 308 309 309 311 312 313 313 313 313 313 314 314 314 314 315 316 317 318 319
318 313 309 303 302 301 298 296 295 295 293 293 292 292 294 295 295 296 298 299 298 300 303 304 305 306 307 307 310 311 311 311 311 311 312 312 313 314 315 315 316 317 318
316 311 306 302 300 298 297 296 294 293 292 292 293 292 296 295 294 297 294 295 296 295 294 303 304 303 304 306 308 308 308 309 309 310 311 311 312 312 313 315 315 316 317
313 308 303 301 299 297 295 295 294 293 291 291 294 295 295 296 295 294 294 296 294 293 292 292 292 293 301 302 303 305 306 307 307 308 309 310 310 311 312 313 313 314 316
308 305 302 299 298 296 294 294 293 292 291 290 290 292 293 294 295 295 295 292 292 292 291 290 290 290 291 299 299 301 304 305 305 306 308 309 309 310 311 312 312 313 314
306 303 301 299 297 295 294 293 294 292 291 290 288 289 287 290 291 292 291 292 289 290 291 291 290 289 289 289 292 299 299 301 304 305 307 308 308 309 310 311 311 312 312
305 302 300 298 298 295 293 292 292 292 290 290 288 289 285 285 285 289 289 289 289 288 288 289 290 290 289 288 292 292 297 299 302 304 306 307 308 308 309 310 311 311 311
303 301 299 298 299 295 292 292 292 290 291 288 290 290 287 286 283 283 287 287 288 288 287 288 288 288 289 288 292 295 296 298 301 304 305 306 307 308 309 309 310 310 310
302 300 299 297 297 296 291 291 290 289 289 289 288 287 287 286 285 283 281 284 286 287 287 287 287 287 288 287 287 290 296 298 301 302 304 305 306 307 308 308 308 307 307
301 301 299 297 296 294 292 291 290 289 289 288 288 288 287 285 284 283 281 281 282 284 286 287 286 286 286 286 291 296 296 297 299 301 303 304 305 305 306 306 305 305 305
300 298 298 295 293 294 291 291 290 289 288 287 287 287 287 286 286 285 283 282 281 282 283 284 285 285 287 285 286 293 295 295 297 299 301 303 302 302 302 302 303 303 303
299 299 297 295 294 294 291 290 289 289 288 287 286 286 287 287 287 286 284 282 279 280 281 281 284 283 284 284 290 294 286 294 295 297 298 299 298 298 298 299 300 300 301
299 298 296 294 293 292 290 289 288 287 286 286 286 286 286 286 286 285 284 283 280 277 278 279 280 283 284 284 287 288 286 291 294 294 295 296 296 295 296 296 297 297 298
297 296 294 292 291 291 288 288 287 286 286 286 287 285 285 285 284 284 283 283 281 279 276 279 280 281 283 286 287 287 285 291 292 294 294 294 294 294 295 295 296 296 297
296 294 293 292 291 288 287 287 286 286 286 286 285 285 285 285 284 283 282 281 280 279 277 279 281 282 281 282 283 284 286 285 287 292 292 292 293 293 293 294 294 295 295
295 293 293 291 289 287 286 285 285 285 285 285 285 285 284 287 282 282 281 280 279 279 278 278 280 281 281 281 283 283 285 287 286 289 291 291 291 292 292 293 293 294 294
292 292 291 289 288 286 285 285 285 285 285 285 284 284 283 283 281 281 280 279 280 283 280 279 280 282 281 283 282 283 284 283 284 288 289 289 290 291 292 292 292 292 292
291 290 289 288 287 286 286 286 287 286 285 285 285 284 283 282 281 280 280 280 281 280 279 279 279 279 281 282 282 280 280 281 280 283 285 287 289 290 290 290 290 290 290
290 289 287 287 285 286 287 287 287 285 284 284 284 283 283 285 289 287 284 281 280 280 279 277 278 279 280 279 278 280 278 279 280 281 281 281 282 282 282 286 286 287 288
287 287 286 285 284 287 291 290 287 285 284 282 281 281 282 286 285 289 288 288 287 281 277 280 279 279 278 278 277 278 278 277 276 282 278 280 281 280 281 282 286 288 289
286 285 285 284 284 286 289 289 288 284 281 280 280 281 282 284 285 281 285 288 287 288 287 283 279 278 278 279 278 277 279 280 279 281 280 278 280 279 281 283 287 287 288
285 284 283 283 284 287 288 287 287 280 280 280 280 280 279 279 281 283 282 281 282 281 281 282 280 280 280 282 283 282 280 279 279 280 280 276 280 278 280 281 286 287 287
283 282 283 283 282 283 286 286 284 280 280 279 280 280 281 280 285 287 283 278 279 279 284 286 286 287 287 286 285 281 277 275 275 276 279 277 277 277 279 279 280 285 287
283 284 281 280 284 278 286 285 284 281 278 279 279 280 285 284 287 287 283 280 277 277 278 279 280 280 281 280 284 280 277 275 274 274 277 276 277 277 275 278 278 280 280

GFSMA_sfc_thetae_024.txt.gz
Theta_e
325 323 323 324 323 321 309 301 299 298 296 295 295 295 295 303 306 309 312 323 322 320 319 317 316 315 315 315 316 316 315 316 316 316 316 317 316 317 318 318 319 321 322
322 322 321 322 312 306 300 298 297 296 295 295 294 294 294 300 304 306 307 311 317 314 313 312 311 311 312 313 314 314 314 315 314 315 315 316 316 315 316 317 317 318 320
321 319 316 310 303 299 298 297 296 295 294 295 292 293 293 294 302 302 302 301 305 314 309 309 309 309 310 311 313 313 313 313 313 313 314 314 314 315 316 316 316 317 318
319 314 309 303 300 299 297 296 295 293 292 291 291 291 293 294 298 298 299 298 299 299 304 305 305 305 306 309 310 311 310 311 310 312 312 313 313 313 313 314 315 316 317
317 312 307 301 300 297 296 296 293 292 291 290 292 292 294 293 293 297 296 294 296 294 293 304 303 303 303 304 306 308 308 309 308 309 310 311 311 312 312 313 313 314 315
315 311 303 300 298 296 295 294 292 291 290 290 294 294 293 294 292 292 292 295 292 292 291 291 290 293 301 301 302 304 305 306 306 306 308 309 310 310 311 311 312 313 314
315 308 302 299 297 296 294 293 292 291 290 289 290 291 292 292 293 293 292 291 291 290 290 290 289 289 290 298 299 301 302 303 304 305 306 308 309 309 310 311 311 312 312
311 306 303 298 297 295 293 293 293 291 290 288 288 289 287 290 290 290 290 290 288 289 289 290 289 289 288 288 292 299 298 300 303 305 305 307 308 308 309 310 311 311 312
308 306 302 299 295 295 294 292 292 292 289 288 287 289 285 286 285 287 288 288 287 287 287 288 288 288 288 287 291 292 298 298 301 304 305 307 307 308 309 310 310 311 311
306 304 301 298 296 296 295 292 293 291 291 288 288 289 286 286 283 283 286 286 287 287 286 286 287 287 287 287 291 294 298 298 301 303 305 306 307 307 309 309 310 310 310
304 302 300 299 297 295 295 294 290 290 289 289 288 287 286 285 284 283 282 284 286 286 286 286 286 285 286 286 286 291 297 299 301 302 304 306 306 307 308 308 308 308 307
302 301 300 299 298 295 294 293 291 289 288 288 288 287 287 285 284 283 281 281 281 284 285 285 285 284 284 285 290 294 295 297 299 301 303 304 305 305 305 306 306 306 305
300 300 300 298 297 295 292 291 291 289 287 287 286 286 286 286 286 285 283 281 281 282 283 284 284 284 286 284 285 292 294 295 296 299 301 302 302 301 301 302 303 303 303
301 301 300 297 296 295 293 292 290 290 287 286 285 286 286 286 286 285 284 281 279 279 280 281 282 282 282 283 288 292 286 293 294 296 298 298 298 298 298 299 299 300 300
301 299 297 296 296 295 293 291 290 288 286 286 285 285 286 286 285 285 284 283 280 277 276 279 279 281 282 283 285 286 285 290 293 294 294 295 295 296 296 296 297 298 298
299 297 296 296 295 294 292 291 289 288 286 285 286 285 284 284 284 284 283 282 281 279 276 278 279 280 281 285 286 286 284 290 290 292 293 293 293 294 294 295 295 296 296
297 296 295 295 294 292 290 289 288 287 285 285 285 285 285 285 284 283 282 281 280 279 276 278 279 281 280 280 282 283 284 284 285 290 292 292 292 293 293 293 294 294 295
296 295 294 294 293 291 289 289 287 287 285 284 284 285 285 286 283 282 281 280 279 279 278 277 279 279 279 281 281 281 284 286 285 289 290 291 291 291 292 292 293 294 294
295 294 293 292 289 288 287 286 286 284 284 284 285 285 285 283 282 281 280 279 279 282 279 278 279 279 279 280 281 281 282 283 284 287 289 289 290 291 291 292 292 292 292
294 293 293 290 289 287 287 286 285 284 284 285 286 284 283 283 281 280 280 279 280 279 279 278 278 277 278 281 280 279 278 280 280 282 285 287 289 289 290 290 290 290 290
292 290 289 288 288 287 288 287 285 284 285 284 284 284 283 284 288 287 284 281 280 279 278 276 278 276 279 279 278 279 278 279 280 281 281 280 281 281 283 286 286 287 288
288 288 287 286 287 289 292 291 287 285 284 283 282 281 281 285 285 289 289 288 286 281 275 275 273 278 278 278 278 278 277 276 276 281 278 280 281 280 281 281 286 288 289
287 286 285 285 286 288 291 290 288 284 282 280 280 280 281 283 283 281 284 287 286 288 287 284 279 278 278 278 278 276 278 279 278 280 279 277 280 278 281 282 287 288 288
286 285 285 286 286 288 289 289 286 281 279 279 279 278 278 279 281 283 282 280 281 281 281 282 280 280 280 281 282 282 279 278 279 279 279 274 278 277 279 280 286 287 288
285 285 285 284 285 285 288 287 283 279 279 279 279 279 280 280 285 287 282 279 279 279 284 286 286 287 287 287 285 281 276 275 274 276 278 276 276 277 278 278 280 285 287
284 284 282 282 284 280 287 286 283 280 278 278 279 280 284 283 286 287 283 280 277 277 278 278 278 279 280 279 284 279 276 274 274 273 276 274 276 276 274 277 278 278 279

GFSMA_sfc_thetae_027.txt.gz
Theta_e
324 324 324 323 323 320 312 304 297 297 295 294 294 294 300 305 308 310 313 323 324 321 320 317 316 316 316 316 316 316 317 317 316 316 317 317 317 317 318 318 318 319 321
322 324 321 321 321 317 302 298 297 295 294 294 293 293 296 304 306 307 307 311 319 316 314 313 313 313 313 314 314 314 314 314 314 315 315 315 316 316 317 318 318 318 318
321 323 320 319 313 304 298 296 295 294 294 293 291 292 293 300 303 304 302 302 306 314 311 310 310 310 310 312 313 312 312 312 312 313 313 314 314 314 314 315 316 317 317
321 319 317 314 302 298 297 296 295 293 292 291 290 290 292 295 299 299 299 297 298 298 305 307 306 305 307 308 309 310 310 310 310 311 312 312 312 312 313 314 314 315 315
319 315 312 305 299 297 296 296 293 292 290 290 291 292 293 291 297 299 296 295 296 293 294 304 304 303 303 304 306 307 307 308 308 308 309 310 310 311 312 312 313 313 313
317 313 305 301 299 296 295 294 292 290 289 290 294 293 291 292 291 293 293 294 293 291 290 290 289 291 301 301 303 304 305 305 306 306 307 308 309 310 311 311 312 312 313
318 312 306 302 300 299 295 293 292 290 289 289 290 291 291 291 291 291 291 291 290 289 289 289 288 288 289 299 300 302 303 303 304 305 306 307 309 309 310 311 311 312 312
317 311 306 302 300 297 294 293 293 290 289 287 288 289 287 289 289 289 289 289 287 288 289 289 288 288 287 287 291 301 302 301 303 304 306 307 308 309 309 310 311 311 312
316 312 307 303 300 298 295 293 293 292 289 287 287 289 285 285 285 287 287 287 286 287 287 288 288 287 286 286 289 291 298 300 302 304 306 307 308 308 309 310 311 311 311
314 311 306 302 299 298 295 294 294 292 291 288 287 288 286 286 284 283 285 286 286 286 285 286 286 286 286 286 291 296 298 299 302 304 306 307 308 309 309 310 310 310 310
311 308 306 302 299 298 297 294 292 291 290 289 288 286 285 285 284 283 282 283 285 285 285 285 285 284 285 285 286 291 296 298 301 303 305 306 307 308 309 309 309 309 308
304 303 304 302 299 298 297 296 293 292 291 289 288 287 286 285 284 283 281 281 281 283 284 284 284 283 283 284 288 293 295 296 298 300 303 304 305 305 306 306 306 306 306
302 300 301 301 300 299 298 295 293 291 290 288 288 286 286 286 285 284 283 281 281 282 282 283 283 283 285 283 284 292 293 294 296 298 301 303 302 301 301 302 304 304 304
306 302 302 300 299 297 295 295 293 290 290 289 288 288 286 286 286 285 284 282 279 279 280 282 282 281 281 282 287 291 285 292 293 295 297 298 297 297 298 299 300 301 300
303 301 300 297 298 297 295 294 293 289 290 287 288 288 285 285 285 285 284 283 281 277 277 279 279 280 281 282 284 285 283 289 292 293 294 294 295 295 296 296 297 298 299
302 299 298 297 297 296 294 293 291 289 287 288 288 287 285 284 284 283 283 282 281 280 276 278 279 279 281 284 285 285 284 289 290 292 292 292 293 294 294 295 296 296 296
300 299 298 297 295 294 293 291 291 289 288 287 287 285 286 284 283 283 282 282 280 279 277 278 278 279 279 280 282 282 283 282 283 290 291 292 292 293 293 294 294 295 295
299 298 297 296 294 293 292 290 289 288 287 287 286 286 286 286 283 283 282 280 279 279 278 276 277 278 279 280 280 280 283 285 284 287 290 291 292 292 292 293 293 293 294
298 297 295 293 291 291 290 289 289 288 287 286 285 285 284 283 282 281 280 279 279 281 278 277 278 279 279 279 279 280 280 281 283 287 288 289 290 290 291 292 292 292 292
296 294 292 290 290 289 288 288 287 286 286 286 285 285 284 284 282 281 280 279 279 278 278 278 278 277 277 279 279 278 278 280 280 282 285 286 289 289 290 290 290 290 290
292 290 290 289 289 289 289 287 287 286 285 284 284 284 283 284 287 286 283 280 280 279 278 275 277 275 277 278 278 279 277 278 279 280 280 280 280 281 282 286 286 287 288
290 290 289 288 288 290 292 290 287 285 284 283 282 282 281 284 284 287 288 289 286 279 274 273 271 276 278 278 278 278 277 276 276 280 278 279 281 280 280 281 286 288 289
288 287 287 288 288 290 292 290 288 284 282 282 282 281 281 282 282 280 284 287 286 288 287 282 278 278 277 279 279 277 278 277 278 279 279 276 279 278 280 281 286 287 289
286 286 285 285 285 287 290 289 286 282 281 280 280 279 278 279 280 282 281 280 280 281 281 281 279 280 280 281 281 281 280 278 279 279 278 274 278 277 279 280 285 287 288
286 286 286 285 286 286 289 289 284 280 280 279 280 279 280 279 284 287 282 278 279 280 284 286 286 287 287 287 285 280 276 275 274 276 278 276 276 276 278 278 280 285 287
285 286 285 284 286 283 288 287 284 280 278 279 279 279 283 282 286 287 281 279 276 277 278 278 278 278 280 279 283 279 274 272 274 273 276 274 276 276 273 277 277 278 279

GFSMA_sfc_thetae_030.txt.gz
Theta_e
326 325 325 324 323 319 313 304 297 295 294 294 293 296 304 307 308 310 313 324 326 322 321 318 317 316 317 317 316 317 317 316 316 317 317 317 318 318 319 319 319 320 320
324 325 323 322 321 318 307 300 296 294 294 293 292 294 302 305 306 306 307 312 321 318 315 315 314 314 314 315 315 315 315 314 315 316 316 316 316 316 316 317 317 318 319
321 323 322 320 319 313 299 296 294 294 293 293 291 292 298 302 304 303 301 302 305 315 313 313 311 311 312 312 313 312 311 312 312 313 314 313 314 314 314 315 315 316 316
322 320 321 320 312 302 297 296 294 293 291 291 289 291 292 299 301 300 298 297 297 298 306 308 307 307 307 309 309 309 309 309 309 310 311 312 312 312 313 313 314 314 315
322 321 320 316 303 298 296 296 293 292 290 289 290 292 291 293 297 299 295 295 296 293 295 305 305 304 304 305 306 307 307 308 308 308 308 309 310 311 311 312 313 313 314
320 319 316 309 300 297 295 294 292 290 290 290 294 292 291 291 293 294 294 293 293 290 290 289 289 291 302 302 303 304 305 305 306 306 307 308 308 310 311 312 312 312 313
319 316 312 307 300 298 297 296 292 290 289 289 291 290 290 290 290 290 290 290 290 289 288 288 288 288 289 298 299 302 304 305 304 305 306 307 308 310 311 311 312 312 313
320 317 312 308 303 300 297 295 292 290 288 288 289 289 287 289 288 288 288 289 287 288 288 288 287 287 286 287 292 299 301 303 303 304 305 307 308 309 311 311 311 312 312
320 316 311 308 304 302 299 296 293 292 288 287 287 290 285 286 286 286 286 286 286 286 286 287 287 286 285 286 290 293 299 300 302 305 307 308 309 309 310 311 312 312 312
319 315 312 310 305 302 300 297 296 293 290 287 287 288 285 287 285 283 285 285 285 286 284 285 285 285 285 286 290 295 298 299 302 304 306 308 308 309 310 311 311 311 311
318 316 312 310 305 304 301 299 296 295 292 289 288 286 285 284 283 283 282 283 285 285 285 285 284 284 284 284 285 291 296 298 300 303 304 306 307 308 309 309 310 309 309
314 313 310 306 305 303 301 299 297 296 294 292 289 288 288 286 284 283 282 281 282 283 284 284 283 283 283 283 288 293 294 296 298 300 302 304 305 306 307 307 307 306 306
307 306 307 304 302 302 301 299 298 295 293 292 290 289 288 287 286 285 283 281 281 281 282 283 283 282 285 282 284 292 292 294 295 297 300 302 302 301 301 302 303 304 305
312 310 305 305 302 300 299 299 298 295 293 292 290 289 288 288 287 286 284 282 279 279 279 282 283 282 281 282 287 291 285 291 293 295 297 298 297 297 298 299 300 300 301
311 304 305 304 301 299 298 297 295 293 292 291 290 289 288 288 286 287 286 284 281 277 277 280 280 281 281 282 284 285 283 289 292 293 293 294 294 294 295 296 297 298 298
304 304 302 300 300 298 296 295 292 291 290 289 289 288 287 286 287 286 286 284 282 280 278 279 279 279 280 283 284 285 283 289 290 291 292 292 293 293 294 295 296 296 297
302 300 300 299 298 297 295 293 291 290 289 289 288 288 287 286 286 284 284 282 281 280 278 278 278 279 279 280 281 281 283 281 282 289 291 291 292 293 294 294 294 295 295
298 299 298 297 295 294 292 291 290 290 289 288 288 287 287 287 285 285 284 281 280 279 278 276 277 278 278 280 280 279 282 284 283 287 290 291 291 292 292 292 293 294 294
299 299 298 295 294 293 291 290 290 290 289 289 288 287 286 285 284 283 283 281 280 281 278 277 277 278 278 279 278 279 279 280 282 286 288 289 289 290 291 292 292 292 292
297 296 294 293 292 291 291 290 289 288 287 287 286 286 285 285 284 283 282 281 280 279 278 277 277 276 277 279 278 278 278 279 279 282 284 286 288 289 290 290 290 290 290
292 291 291 291 291 290 290 289 288 288 287 285 285 285 284 285 286 286 283 281 280 279 278 275 276 275 276 277 278 279 277 278 278 280 280 279 280 280 282 285 286 287 288
291 291 291 291 290 291 293 291 288 285 285 284 283 282 282 284 285 287 287 288 285 278 275 273 271 276 277 277 276 277 277 276 276 280 277 279 280 280 281 281 285 287 289
290 289 290 290 290 291 292 291 288 284 283 282 282 282 282 283 283 280 283 287 286 288 287 281 278 277 277 277 277 276 277 278 277 280 279 277 279 278 280 281 286 287 289
288 287 287 287 288 290 291 290 288 283 282 282 282 280 280 280 281 282 281 280 281 281 281 281 279 279 279 280 280 281 279 278 278 279 278 274 278 277 279 279 285 286 288
286 285 286 286 285 286 290 288 284 282 281 280 281 280 280 280 283 286 282 278 279 279 283 286 286 286 286 286 285 280 275 274 273 275 278 276 276 276 278 278 280 285 287
285 285 285 285 288 285 289 288 283 281 279 279 279 280 283 282 285 286 282 279 276 276 277 278 277 278 279 278 283 278 272 271 273 272 276 274 275 276 273 277 278 277 279

GFSMA_sfc_thetae_033.txt.gz
Theta_e
337 338 337 336 335 332 326 315 308 305 304 303 304 310 316 320 321 323 326 326 327 324 322 320 319 318 318 318 318 318 317 317 318 318 318 319 318 318 319 319 320 320 321
337 336 335 334 333 331 324 313 307 305 304 303 302 308 314 317 318 318 319 321 323 321 318 316 316 316 317 316 316 315 314 315 316 315 316 316 315 316 316 317 317 318 318
334 335 334 332 332 328 317 308 304 303 302 301 301 305 312 315 315 313 313 314 315 317 316 314 312 314 312 313 313 312 311 311 312 313 313 314 314 314 314 314 315 315 316
331 333 333 331 330 323 312 306 304 302 302 301 300 301 307 311 312 310 309 309 308 308 312 310 309 308 309 310 309 309 309 309 309 310 310 311 312 312 312 313 313 314 314
331 329 329 331 327 319 309 305 302 303 300 300 299 300 301 307 309 306 305 305 305 305 306 307 306 305 305 305 307 308 308 307 307 308 308 309 310 311 312 312 313 313 313
329 329 328 327 322 315 308 303 302 299 300 299 298 299 301 301 306 306 303 302 301 302 301 299 299 300 303 303 304 305 307 307 306 306 307 308 309 310 312 312 312 313 313
328 327 327 324 318 313 309 304 301 298 297 299 299 299 299 299 301 302 302 300 300 298 297 298 298 298 298 298 299 302 304 306 305 305 306 307 309 310 311 312 313 313 313
327 326 324 321 315 312 306 302 299 295 298 299 299 299 297 297 297 297 299 298 298 297 296 296 296 296 296 296 298 299 300 302 304 305 306 308 309 310 311 312 312 313 313
326 325 323 322 317 313 306 301 299 297 297 296 297 301 294 296 296 295 295 296 296 295 295 295 294 294 294 296 297 299 300 301 303 305 307 309 310 310 311 312 312 313 313
326 325 323 320 317 314 310 305 302 300 300 296 293 293 294 297 296 292 293 294 293 293 294 294 294 292 293 294 294 296 297 298 301 303 305 307 308 309 310 311 311 312 312
327 325 322 319 316 314 312 308 302 301 299 297 297 292 292 292 293 295 292 292 291 293 293 293 293 292 291 292 294 294 295 297 300 302 304 306 307 308 309 310 310 310 310
324 323 320 318 317 313 309 307 305 303 300 299 295 294 293 294 292 292 291 290 292 291 292 292 292 291 291 291 291 292 293 295 297 299 302 304 305 306 306 307 307 307 307
320 320 319 317 316 312 311 308 305 303 302 299 297 294 294 292 292 290 291 289 290 290 290 291 291 291 290 290 291 292 292 293 295 298 301 302 302 301 301 302 304 304 305
321 322 318 317 315 311 309 307 305 304 302 299 297 295 294 292 291 291 290 289 287 288 287 289 289 290 290 289 290 291 291 291 293 296 297 297 297 297 298 299 299 300 301
320 319 315 314 312 309 307 305 304 301 299 297 296 294 293 290 291 289 289 290 289 286 285 285 287 288 289 289 289 291 290 290 293 293 293 294 294 294 295 296 297 298 299
317 312 311 310 308 307 305 303 301 298 295 295 292 290 289 289 289 289 289 287 288 286 285 287 287 287 287 287 289 290 289 290 291 292 292 292 293 293 294 295 296 297 297
310 308 307 305 304 302 302 301 299 295 292 291 290 289 288 288 288 287 287 286 286 286 285 286 286 286 286 287 288 289 289 289 288 290 291 291 292 293 294 294 295 295 296
304 304 302 302 301 300 299 297 294 293 291 289 290 289 288 289 287 287 286 285 285 284 284 284 284 285 285 286 287 286 287 288 287 288 290 291 292 292 292 293 293 294 294
301 301 300 298 297 295 294 293 291 291 291 290 289 289 288 287 286 285 285 285 284 284 283 283 283 284 285 286 286 286 286 286 286 287 288 289 290 290 291 292 293 293 293
300 300 298 295 294 292 292 292 291 291 289 288 288 287 287 287 286 285 285 284 284 283 283 283 283 284 284 286 285 284 283 285 284 285 287 287 289 289 290 291 291 290 290
294 294 293 292 292 292 291 290 290 289 287 287 286 286 285 285 287 286 285 284 284 283 283 284 283 283 283 283 283 284 282 283 284 285 284 285 285 285 286 288 287 288 288
292 292 291 292 292 293 294 293 289 286 285 284 283 284 284 286 286 288 289 289 287 284 284 283 283 282 283 283 283 282 281 280 278 286 283 283 285 284 285 286 287 288 289
291 291 291 292 291 292 293 292 290 286 285 284 284 283 283 285 285 283 284 286 286 287 288 286 283 282 282 283 283 281 282 281 280 283 283 280 284 282 285 285 287 288 289
289 288 289 289 289 291 293 292 289 284 283 283 283 283 283 283 283 284 284 284 285 284 284 284 285 284 284 285 284 283 283 282 282 283 283 278 283 282 284 284 286 287 288
286 285 286 285 286 286 290 289 285 283 282 282 282 283 283 283 283 285 285 283 283 283 284 285 285 286 286 286 285 283 281 279 277 279 282 279 280 281 282 282 284 286 287
285 286 285 285 288 286 288 286 283 282 281 281 282 282 283 284 284 286 285 283 280 281 281 282 282 281 282 281 283 282 280 277 276 276 281 278 280 279 277 282 283 284 283

GFSMA_sfc_thetae_036.txt.gz
Theta_e
339 339 338 338 337 336 333 329 323 316 313 311 312 313 315 318 320 325 327 327 328 325 322 321 320 320 319 319 319 317 317 318 318 318 319 318 318 318 319 319 319 320 320
338 338 337 337 337 337 333 329 322 316 314 312 310 312 315 318 319 321 324 324 325 323 320 318 318 317 317 317 317 315 314 315 316 316 316 316 316 316 317 317 317 317 318
337 338 337 337 337 337 333 327 320 315 312 310 309 311 314 316 317 317 319 319 318 319 319 316 315 316 313 314 314 312 311 311 312 312 313 313 314 314 314 314 315 315 316
336 336 337 337 338 336 331 324 318 314 312 310 309 308 312 315 315 315 315 315 315 313 315 312 312 310 311 310 310 309 309 309 309 309 309 310 311 312 313 313 313 314 314
335 334 335 336 336 334 328 323 317 315 311 309 307 307 309 312 313 312 312 311 311 311 311 308 308 307 306 306 307 308 308 307 307 308 308 309 309 310 312 312 313 313 314
336 334 332 334 334 332 327 321 317 313 312 310 303 304 306 308 311 311 309 308 308 308 309 307 305 304 304 304 304 304 306 307 307 306 307 308 309 310 311 313 313 313 314
337 335 333 332 333 330 327 321 317 310 307 307 305 304 304 305 306 309 309 307 306 305 306 303 303 302 301 300 299 302 304 305 307 306 307 307 308 310 311 312 313 313 314
338 335 333 332 331 328 327 322 315 308 307 305 306 306 301 301 303 306 307 306 305 304 303 302 301 301 301 302 301 298 300 302 304 306 306 308 309 311 312 313 313 314 314
337 336 334 333 331 328 326 322 315 311 305 303 307 307 302 301 301 302 303 304 303 302 302 301 300 300 299 300 299 300 300 300 302 305 306 308 309 310 311 312 313 313 313
336 336 334 332 330 326 324 321 317 312 311 303 303 303 302 305 301 297 299 301 302 300 301 300 299 298 298 299 296 297 296 297 300 303 305 307 308 309 310 311 312 312 312
333 334 333 332 329 325 325 321 316 313 312 309 304 299 299 297 298 301 298 296 298 299 300 300 299 298 297 297 297 296 295 296 299 301 303 305 307 308 309 310 310 310 310
330 330 330 331 329 326 324 323 319 315 311 311 306 300 298 298 296 297 298 299 297 297 298 298 297 297 296 296 294 294 293 294 297 300 302 304 306 306 306 307 307 307 307
327 327 328 328 328 327 325 324 318 312 309 306 305 303 301 301 299 298 300 296 295 294 294 296 296 296 295 295 294 292 293 294 295 297 301 303 302 301 301 302 304 304 305
329 329 327 327 327 326 324 322 318 314 312 309 307 304 300 299 297 293 296 291 289 291 293 293 295 295 294 294 293 291 293 292 294 296 298 298 297 297 298 299 300 301 301
328 329 327 325 325 323 322 320 317 315 312 311 307 303 298 295 295 294 293 295 294 289 289 291 291 293 293 292 292 292 293 293 293 294 295 295 294 295 296 296 297 298 299
325 324 325 324 322 319 316 314 312 312 309 305 303 297 294 292 292 292 290 289 290 289 285 287 288 288 290 290 292 291 292 292 292 293 293 293 293 294 294 295 296 297 298
318 318 318 318 317 313 310 309 307 305 303 298 296 293 290 291 289 289 289 288 287 288 286 285 286 287 287 287 290 291 292 291 291 292 292 292 292 293 294 295 295 296 296
313 312 311 310 310 308 307 305 303 301 298 296 295 293 292 290 288 288 288 287 286 286 285 283 285 285 285 287 288 288 289 289 290 291 291 291 292 293 293 293 294 294 295
306 305 305 305 304 304 303 302 299 297 293 293 291 291 290 288 287 287 286 285 285 286 284 284 284 286 286 287 286 288 289 289 289 290 290 290 291 292 292 293 293 293 294
303 302 302 300 299 299 297 294 293 292 291 291 290 290 290 288 287 286 286 285 285 286 285 284 285 285 286 287 287 285 285 288 287 287 289 290 290 290 291 291 292 291 291
297 296 295 294 294 293 293 292 291 290 289 289 288 287 287 288 289 287 287 285 285 284 285 285 284 285 284 285 285 286 284 285 286 287 287 288 288 288 289 290 290 290 290
295 293 293 293 293 293 294 293 291 289 288 287 285 285 286 287 288 289 290 289 288 287 285 284 284 284 284 285 286 285 284 282 280 287 286 285 288 287 288 289 290 290 290
292 292 292 293 292 293 295 293 291 287 286 285 285 284 285 286 286 285 286 287 288 289 290 287 285 285 284 285 285 283 283 282 281 285 285 283 286 285 288 288 290 290 290
289 289 289 290 291 292 294 292 289 285 284 284 285 285 285 284 285 284 285 285 285 286 287 287 286 286 286 286 286 285 284 284 285 285 286 281 285 284 287 288 289 289 289
286 285 286 286 285 286 290 289 285 284 283 283 285 285 285 284 284 285 285 285 285 286 287 286 286 286 287 287 287 285 282 282 280 282 285 282 283 283 285 286 287 288 288
285 286 285 285 288 285 287 287 285 285 284 284 284 284 284 284 284 285 286 285 283 284 284 284 284 284 284 284 284 284 283 280 279 278 285 281 282 282 279 285 286 286 286

GFSMA_sfc_thetae_039.txt.gz
Theta_e
339 338 336 335 335 334 333 331 327 321 318 315 315 315 316 317 319 324 328 328 329 326 324 323 323 321 320 321 319 318 319 319 319 319 318 318 319 319 319 319 320 320 320
338 339 337 336 335 336 334 331 327 322 318 315 314 314 315 317 318 321 326 324 326 326 322 321 320 320 319 320 317 316 315 316 316 317 316 317 316 316 317 317 317 317 318
336 336 336 336 336 335 334 331 327 322 318 315 313 314 315 316 317 318 321 322 319 321 322 319 318 318 317 317 316 313 312 312 312 313 313 313 314 314 314 315 315 316 316
336 335 335 336 336 335 335 331 326 319 317 315 313 312 313 315 315 315 317 318 317 315 318 317 317 314 314 313 312 311 310 309 309 309 309 310 310 311 313 313 313 314 315
336 335 335 336 336 335 333 331 325 319 317 315 314 312 312 313 314 314 313 315 315 314 313 313 314 313 311 310 309 309 308 307 307 308 308 309 309 310 311 313 313 313 314
338 336 335 334 336 335 331 330 325 321 319 316 311 308 309 311 313 313 311 311 311 311 311 309 307 306 308 307 306 305 306 307 308 307 307 308 309 310 311 312 313 314 314
339 338 336 334 334 333 332 329 324 319 316 316 308 307 308 307 308 311 311 309 308 308 308 308 305 305 304 305 303 302 303 304 306 307 307 308 309 310 311 313 314 314 314
341 339 337 334 333 332 331 329 324 318 314 312 308 309 303 303 304 306 309 307 306 306 305 305 303 303 304 301 304 300 300 302 304 305 306 308 309 311 312 313 314 314 315
341 338 338 336 334 332 330 329 324 318 312 310 312 311 307 304 301 303 305 306 305 304 303 303 302 302 302 302 301 301 302 300 302 304 306 307 308 310 311 312 313 313 314
338 338 336 335 334 333 330 329 326 319 315 308 307 308 310 309 302 297 301 302 304 303 302 302 300 300 300 300 300 300 299 298 299 302 304 306 307 309 311 311 312 312 313
335 335 335 335 332 332 331 328 325 317 317 314 309 306 305 303 303 302 296 296 300 301 302 301 300 299 299 299 299 299 297 296 298 300 303 305 306 308 310 310 311 311 311
335 332 331 332 332 330 329 327 325 320 317 317 310 306 303 300 297 298 299 297 295 297 299 300 299 298 298 297 298 299 296 295 296 299 302 304 306 306 307 307 307 307 308
332 330 329 329 329 329 328 326 325 321 318 316 313 308 304 305 301 300 300 297 297 296 296 298 298 298 296 296 295 295 295 294 296 298 300 302 303 302 302 303 304 304 305
328 331 330 327 327 328 326 326 323 323 320 316 314 310 305 304 301 301 301 295 291 291 291 292 295 295 295 295 296 294 292 295 295 296 298 299 299 298 298 299 300 301 302
325 327 329 327 325 326 325 323 321 319 315 314 312 310 308 306 302 297 297 297 297 288 290 291 289 292 293 292 293 292 292 294 295 296 296 296 296 296 296 297 298 298 299
321 323 324 323 322 323 322 321 318 316 314 312 311 309 304 297 295 293 292 292 292 292 288 289 288 288 291 291 292 291 290 293 294 295 295 295 295 295 295 295 296 297 298
315 316 317 317 318 318 316 313 312 311 311 308 304 301 295 294 292 292 290 290 289 289 287 285 287 287 287 288 289 290 291 290 290 293 294 294 294 294 294 295 295 296 297
312 311 311 311 311 311 311 309 307 305 305 300 298 296 293 293 290 290 290 287 287 287 287 285 286 285 285 286 286 287 289 290 289 291 293 294 293 294 294 294 294 295 295
309 307 307 305 305 304 304 304 302 300 299 297 295 293 290 290 289 288 288 287 286 287 286 286 285 286 286 287 287 288 288 288 290 291 293 292 292 293 293 294 294 294 295
304 302 300 298 299 296 295 295 294 293 292 292 292 291 291 290 288 287 287 286 285 285 285 285 285 285 286 288 287 285 285 287 286 288 289 290 292 292 292 293 293 293 293
298 298 296 295 295 294 294 293 292 291 290 289 289 289 289 290 290 289 287 286 286 285 285 285 285 285 285 285 284 286 284 285 285 286 285 286 286 287 288 290 291 291 292
296 296 295 294 294 294 295 294 292 290 289 287 286 286 288 289 290 291 290 290 288 286 286 286 285 283 284 285 285 284 283 282 279 286 283 283 286 285 286 287 291 291 292
292 292 293 293 293 294 295 294 291 288 287 285 285 285 285 287 286 286 288 288 289 290 289 287 285 284 284 285 284 283 282 281 281 283 283 281 285 283 286 287 291 291 292
288 288 287 288 289 292 293 292 289 285 284 284 285 285 285 284 285 285 285 285 286 286 286 287 286 285 285 286 285 284 283 283 283 284 285 280 284 283 285 286 290 291 291
286 286 286 286 285 286 290 290 286 285 284 284 285 285 285 284 285 286 285 285 284 284 288 287 287 287 287 287 287 284 281 279 279 280 283 281 281 281 283 283 285 290 290
286 286 284 285 287 285 288 287 286 285 283 284 284 284 284 284 285 285 285 285 283 283 283 283 282 284 285 284 286 283 281 278 279 278 281 279 279 280 278 282 283 284 284

GFSMA_sfc_thetae_042.txt.gz
Theta_e
330 330 329 329 327 332 330 328 323 316 312 310 308 309 308 310 310 324 323 329 331 329 327 326 325 324 323 322 320 320 320 320 320 319 319 319 319 319 319 319 320 320 321
333 331 329 331 328 329 327 325 322 315 311 308 307 308 308 309 310 320 320 321 328 328 325 324 324 323 323 321 319 317 317 317 318 317 317 317 317 317 317 317 317 318 318
331 332 331 330 330 331 329 325 321 316 311 308 306 307 308 309 310 313 319 316 319 323 325 322 322 322 321 321 318 315 314 314 314 313 313 314 314 314 315 315 316 316 317
330 329 329 330 331 331 331 326 320 314 310 307 305 305 307 308 309 309 313 315 312 312 320 323 321 320 318 318 315 313 312 311 311 310 310 310 311 311 312 314 314 314 315
331 330 328 330 332 330 330 330 321 312 309 307 307 304 305 306 307 310 308 310 311 310 308 316 320 318 317 315 314 313 311 309 309 308 308 308 309 310 311 312 313 314 314
332 330 328 328 332 330 329 330 321 314 311 309 308 305 303 304 306 306 306 308 306 307 305 304 304 305 315 313 312 311 310 309 308 308 307 307 308 309 310 311 312 313 314
334 331 330 328 328 330 330 328 320 314 311 308 302 300 300 301 301 305 305 303 304 304 303 303 302 300 303 311 310 308 307 307 307 308 307 307 308 309 311 312 313 314 314
335 333 331 329 328 326 326 326 321 313 310 307 300 299 296 298 299 300 303 303 301 302 302 303 300 299 300 300 299 305 304 305 305 306 307 307 308 310 311 312 313 314 315
334 334 334 330 328 326 325 325 322 317 310 306 305 303 299 297 295 297 299 302 300 299 300 300 299 298 298 297 302 301 303 304 305 306 306 306 307 309 310 311 312 313 313
334 335 334 333 332 327 325 324 324 319 311 306 303 308 304 302 296 292 298 300 301 300 299 299 298 297 297 296 299 302 304 302 302 303 304 305 306 308 310 311 312 312 312
333 333 333 333 332 331 328 323 322 319 314 309 307 303 303 299 298 296 291 294 298 299 298 298 298 297 296 296 296 301 303 301 301 302 303 304 306 307 309 310 311 311 310
327 329 330 331 330 330 329 328 324 321 316 312 308 306 304 301 297 296 295 292 293 295 297 297 297 297 295 296 298 301 301 300 300 300 302 303 304 306 307 307 307 307 308
323 325 326 326 327 329 328 327 323 322 316 314 312 309 305 306 303 301 300 294 292 293 294 296 296 295 295 294 296 299 299 298 298 299 301 303 302 303 303 303 304 305 305
319 323 324 323 323 324 327 326 324 323 320 316 315 310 306 304 305 303 304 300 293 291 289 291 293 294 292 293 295 298 295 297 297 297 299 300 299 299 299 300 301 302 302
318 317 318 322 321 325 325 324 323 321 320 317 315 312 307 306 305 303 303 303 301 290 289 290 291 293 293 293 296 292 290 294 296 296 297 298 298 297 298 298 298 299 299
312 312 314 314 316 320 321 320 319 318 315 312 311 309 307 300 299 299 297 297 298 295 289 290 288 289 292 292 294 292 291 293 294 296 297 297 297 297 296 297 297 297 298
311 311 311 310 313 313 314 313 312 311 310 308 305 305 298 296 295 294 293 292 292 293 289 285 287 288 288 289 290 291 291 291 291 294 295 295 296 296 296 296 296 296 297
309 307 307 307 307 307 308 307 306 305 305 301 298 296 294 294 292 292 290 289 290 291 290 285 286 286 287 288 288 287 289 290 289 291 293 294 295 295 295 295 295 295 296
300 299 298 298 299 299 300 298 298 298 298 297 296 294 293 291 289 289 289 289 289 289 288 288 285 286 285 286 286 287 287 288 289 291 293 294 293 293 293 294 295 295 295
296 294 294 293 293 293 294 293 294 293 292 292 292 291 291 290 289 289 289 287 286 286 286 286 285 285 286 287 286 285 284 286 285 288 289 290 291 292 293 293 293 293 293
295 294 292 292 293 294 293 292 291 291 290 289 289 290 290 291 291 290 288 286 286 285 285 285 284 285 284 283 282 284 282 283 282 284 282 282 283 283 285 289 290 291 291
294 294 294 294 293 294 295 294 290 288 288 287 286 286 287 290 292 293 292 290 288 286 285 284 284 281 281 281 282 280 279 277 275 282 279 281 282 282 283 283 289 291 292
290 290 291 292 292 293 294 293 291 287 285 285 285 285 286 287 287 286 290 290 290 290 289 285 282 281 281 281 280 278 279 277 277 280 279 279 280 281 282 285 290 291 291
287 287 287 288 289 291 293 292 289 285 284 284 285 284 284 284 285 285 284 285 285 284 285 285 282 282 282 283 282 280 279 279 280 280 280 276 279 280 281 281 289 290 290
286 285 286 285 286 287 290 290 285 281 282 283 284 285 285 284 286 286 283 281 281 281 287 288 287 287 287 287 286 280 275 273 274 277 279 278 278 278 279 281 281 288 289
285 285 284 285 287 281 288 288 285 283 281 282 283 283 285 283 285 286 283 281 280 279 280 280 280 281 282 281 286 281 276 268 269 271 278 274 276 277 274 279 279 281 281

GFSMA_sfc_thetae_045.txt.gz
Theta_e
327 329 328 326 328 330 330 325 323 319 315 309 308 306 306 308 322 324 325 330 334 332 329 328 327 326 325 323 322 322 321 322 320 320 320 320 320 320 320 320 320 321 321
329 328 327 326 324 328 329 329 325 317 311 308 306 305 306 307 314 320 321 325 330 331 329 327 326 325 325 322 321 321 320 320 319 318 318 318 318 318 318 318 318 319 319
330 330 328 326 326 327 327 323 321 315 309 307 304 304 305 306 312 318 318 319 323 326 328 327 326 325 325 323 321 319 318 317 316 316 315 315 315 315 315 316 316 316 317
328 329 329 327 328 327 326 325 320 314 310 305 304 303 304 306 307 316 316 315 314 316 324 327 325 324 324 323 321 318 317 315 314 313 313 312 312 312 313 314 314 314 315
329 328 328 328 329 329 327 327 322 316 308 305 304 304 303 304 306 309 313 312 311 311 311 322 324 324 322 321 320 318 316 314 313 312 311 311 311 311 311 312 312 313 313
330 329 327 326 330 329 328 325 322 314 312 307 307 305 302 303 305 305 306 313 310 309 307 307 311 312 320 319 318 317 316 313 311 311 311 310 311 310 311 311 312 312 313
332 328 329 326 330 329 329 328 324 316 309 307 303 299 299 299 300 303 304 304 306 308 305 304 303 302 309 319 316 315 315 313 312 312 311 310 310 310 311 312 313 313 313
333 332 331 327 325 329 327 326 323 313 312 307 303 297 295 297 299 299 302 303 303 304 305 303 301 300 301 303 305 313 312 312 311 312 312 311 311 311 311 311 312 313 313
333 332 330 327 325 323 326 327 324 319 314 309 305 302 296 296 295 297 298 301 301 301 302 303 302 300 299 300 306 307 308 308 310 311 311 311 311 310 310 311 312 312 312
332 332 332 330 328 327 325 323 324 322 315 310 306 306 305 301 296 294 297 298 301 300 301 300 301 299 299 298 302 304 306 306 309 310 311 310 309 309 310 310 311 312 312
331 331 331 330 326 327 327 325 322 318 316 314 310 305 302 301 297 295 294 296 301 301 301 301 299 297 297 297 298 302 306 306 307 307 309 308 308 309 310 310 310 310 310
324 329 331 331 328 326 327 326 324 321 319 315 309 307 305 303 303 297 297 297 299 300 299 297 296 297 295 296 300 304 307 305 305 305 306 306 306 307 308 308 308 307 307
315 321 325 325 324 324 324 324 323 323 321 317 312 310 309 308 306 303 302 298 297 298 298 297 297 297 296 296 298 304 305 304 302 302 303 305 305 305 305 305 305 305 305
313 316 317 322 321 321 323 325 320 320 317 316 315 312 310 310 308 305 305 301 295 294 293 293 294 294 294 294 299 302 299 301 299 298 300 303 303 301 302 302 302 303 302
312 310 312 314 319 321 319 319 322 320 318 315 314 314 311 309 307 305 305 305 302 297 292 292 292 294 294 296 298 294 294 296 297 299 299 300 300 299 300 300 300 300 300
308 308 308 308 310 312 315 317 317 315 316 314 312 311 307 305 304 303 301 301 301 300 294 292 290 291 294 296 297 293 293 295 296 298 298 299 299 299 299 299 299 299 299
305 304 305 305 305 306 307 308 308 310 310 308 307 307 301 300 297 296 295 296 296 297 295 287 288 289 289 291 293 292 292 292 292 295 297 299 299 298 297 297 297 298 298
297 296 297 298 299 301 302 304 303 303 303 300 300 298 295 295 293 293 292 291 292 292 291 287 286 286 287 289 289 289 290 292 291 293 295 296 296 296 296 296 296 296 296
294 293 293 292 293 295 296 297 297 296 297 296 296 295 293 292 291 290 290 290 290 291 289 288 285 285 285 286 286 288 288 288 289 291 294 294 295 294 294 294 295 295 295
292 292 292 292 292 292 292 292 292 292 292 292 292 292 291 291 290 289 289 287 287 287 287 287 286 285 286 287 287 286 285 287 286 289 290 290 291 292 292 293 293 293 293
294 295 293 294 294 294 293 289 288 288 288 289 289 290 291 292 292 291 288 287 287 286 286 286 285 285 285 285 284 285 284 283 282 283 281 282 282 282 283 288 289 290 290
293 292 292 293 291 293 294 293 289 288 287 287 286 287 288 289 292 293 292 291 289 286 285 285 284 283 283 283 282 282 280 276 275 281 279 280 281 280 281 282 289 290 291
289 289 290 291 291 292 293 292 290 286 286 285 285 285 285 287 286 285 289 290 290 291 289 286 283 282 281 280 279 277 279 276 277 279 279 278 280 280 281 284 289 290 291
287 287 287 288 290 292 293 291 289 281 282 283 283 282 283 283 285 285 284 284 284 284 284 285 284 282 281 281 281 280 279 278 279 280 280 274 278 278 280 280 288 289 289
285 285 286 286 286 287 290 289 283 278 278 279 281 282 282 282 286 286 283 282 281 281 286 289 287 287 287 288 286 279 274 272 274 276 279 277 277 277 278 278 280 287 288
285 285 284 279 286 276 289 288 284 281 279 279 280 280 285 283 286 287 281 278 278 278 279 279 278 279 281 280 285 280 275 268 267 268 277 274 276 276 273 278 279 279 279

GFSMA_sfc_thetae_048.txt.gz
Theta_e
325 326 327 326 328 329 327 324 322 320 315 312 308 306 305 305 317 324 325 331 335 335 331 330 328 328 325 324 324 323 323 322 321 322 322 321 321 320 320 321 321 321 321
326 327 327 326 326 329 330 327 324 322 318 312 307 305 305 305 318 322 323 326 332 334 332 330 328 327 326 325 324 323 323 321 321 320 320 319 319 319 319 319 319 320 320
327 327 327 326 325 326 328 326 325 322 316 311 307 306 305 304 309 319 320 321 325 328 331 330 329 327 327 325 324 323 321 321 320 319 318 317 317 317 317 317 317 317 318
329 327 327 326 327 324 326 324 322 318 312 307 306 304 303 304 305 316 317 317 318 320 326 330 329 327 327 325 324 322 321 319 318 317 316 315 315 315 316 315 315 315 315
328 329 329 328 326 325 324 325 322 316 312 307 305 303 302 303 304 311 315 314 314 314 315 323 327 326 327 326 324 322 320 318 316 315 315 314 313 313 314 314 314 314 314
328 326 327 328 327 326 326 323 322 316 312 310 307 304 302 302 303 304 311 315 312 311 311 311 316 318 324 325 324 322 320 318 316 314 314 314 313 313 313 314 313 314 314
332 327 326 324 326 327 328 326 324 319 313 308 306 304 301 301 300 302 303 310 311 310 308 308 309 309 314 323 323 321 320 318 316 314 314 313 313 313 313 313 314 314 314
331 331 327 325 324 327 325 324 323 318 316 309 306 300 301 300 299 300 301 303 306 309 308 306 305 304 305 309 311 320 319 319 317 315 314 313 313 313 313 314 314 314 314
331 329 330 327 324 325 326 325 324 320 320 310 308 306 295 298 296 297 297 300 302 301 306 308 305 304 303 304 310 314 317 315 315 314 315 314 314 313 313 313 313 313 313
329 330 330 328 328 325 323 324 326 324 317 312 307 308 306 301 297 298 296 296 299 300 299 302 304 305 304 303 305 308 313 312 311 313 314 314 313 313 312 312 312 313 313
325 328 330 329 326 326 325 323 320 320 320 321 308 306 304 302 299 298 297 297 302 301 302 301 303 304 301 300 301 304 310 309 310 312 313 313 312 312 311 311 312 312 312
313 319 325 327 327 324 323 323 321 319 320 318 316 312 308 305 305 299 295 297 297 302 303 302 303 301 299 299 301 305 309 308 310 310 310 310 309 310 309 309 310 310 310
310 312 315 319 322 322 323 322 320 320 318 317 316 313 313 310 309 307 305 303 298 300 299 299 298 299 298 298 299 304 308 308 306 307 309 309 307 306 305 306 307 307 308
309 310 311 313 316 318 319 319 319 318 319 317 317 314 313 312 310 309 306 303 297 296 295 297 295 295 296 297 301 305 304 306 305 304 305 304 303 304 303 303 305 305 305
309 307 308 309 311 312 315 317 319 318 315 313 313 315 311 311 309 309 308 306 305 298 294 294 293 295 296 299 301 299 300 303 303 302 302 301 301 302 302 302 303 303 303
303 303 304 304 305 307 308 310 313 313 312 312 313 312 311 306 306 305 304 303 303 302 297 293 292 293 295 297 300 296 296 300 301 301 301 301 301 301 301 302 302 302 301
297 296 298 299 300 301 302 303 303 303 305 306 304 305 302 301 300 299 298 298 297 298 297 290 289 290 290 293 295 293 295 294 294 300 300 300 299 300 301 301 299 299 299
294 293 293 294 295 295 296 297 298 298 300 299 298 297 295 296 294 294 293 293 293 294 293 289 287 287 288 290 290 290 291 293 292 294 297 297 299 299 298 298 298 298 297
292 292 292 292 292 292 292 292 294 294 294 294 294 294 293 293 292 291 291 291 290 291 289 289 286 286 286 287 286 288 288 290 291 293 295 296 296 297 297 296 295 295 295
291 291 291 291 291 290 290 289 289 288 289 291 291 291 291 291 290 289 288 287 287 288 287 287 286 286 286 286 287 286 286 288 287 290 291 292 292 292 293 293 293 293 293
291 292 291 291 291 293 292 287 287 287 288 288 289 290 292 293 294 292 289 287 287 286 286 286 285 285 285 285 284 286 285 284 284 285 283 282 282 282 283 287 288 290 291
291 292 292 292 292 292 294 292 289 288 288 287 286 286 288 289 290 294 293 292 290 287 285 285 284 283 284 284 284 283 281 279 276 280 279 279 281 281 281 281 287 290 291
289 289 289 291 291 292 293 292 289 286 285 285 284 282 284 286 286 285 288 289 289 291 290 285 283 281 280 280 279 276 278 274 276 278 279 278 279 280 281 283 288 289 290
287 287 287 288 289 291 292 291 288 279 277 276 276 275 276 279 285 285 281 281 282 282 282 284 283 281 281 280 280 278 278 277 279 279 279 273 277 277 279 279 287 289 290
285 285 286 286 286 282 289 288 281 273 275 276 279 280 280 280 286 287 281 279 279 279 285 288 286 287 287 287 285 279 274 271 273 276 278 277 276 277 278 278 279 287 288
285 282 277 274 284 274 289 287 283 280 278 278 278 279 286 284 287 287 280 278 277 277 279 279 278 279 280 279 284 280 275 267 267 269 277 273 275 276 272 277 278 279 279

GFSMA_sfc_thetae_051.txt.gz
Theta_e
323 324 324 325 326 328 327 324 322 320 316 311 310 309 308 304 308 321 325 330 336 338 335 332 329 329 326 325 324 324 323 322 322 322 322 322 321 322 322 322 322 322 323
325 324 324 325 325 326 327 326 323 322 320 316 312 308 306 305 307 318 323 324 332 336 335 332 330 330 328 326 325 324 323 322 321 321 320 320 320 320 320 320 321 321 321
327 325 325 324 325 325 326 326 324 323 320 317 311 308 305 304 305 318 321 321 325 330 333 333 331 330 329 327 326 325 324 322 321 320 319 319 318 318 318 318 318 319 319
329 326 326 325 325 323 324 324 324 322 319 316 312 308 304 303 303 309 318 319 320 322 327 333 333 331 329 328 326 325 323 322 321 319 319 317 317 316 316 316 316 317 317
330 328 327 326 325 324 323 323 322 320 317 315 310 307 304 302 303 306 313 316 317 318 317 324 329 329 330 328 327 326 324 321 320 318 318 317 316 316 316 316 315 315 315
327 326 327 326 325 325 323 321 322 317 315 314 314 309 305 303 302 302 307 315 315 315 314 314 316 320 326 329 327 326 325 322 320 318 317 316 315 315 315 315 315 315 315
329 325 326 325 325 325 325 324 322 320 318 308 306 304 303 303 301 302 303 308 313 313 312 312 312 313 316 327 327 326 325 323 321 319 316 316 315 315 315 315 315 315 315
332 330 326 325 324 324 323 323 322 318 316 310 309 303 305 305 300 301 300 303 306 312 311 311 309 309 310 313 316 325 325 323 322 319 317 316 316 315 315 315 315 316 315
330 329 330 327 324 323 323 323 322 320 321 309 309 314 302 300 298 299 297 299 302 303 308 308 308 309 308 310 314 318 322 322 322 321 319 317 316 315 315 315 315 315 315
326 327 328 327 326 324 322 323 324 323 318 317 306 309 308 304 303 302 300 297 297 300 300 305 307 306 307 308 310 313 317 318 319 319 317 317 317 316 316 315 314 314 315
311 319 323 325 325 324 324 322 319 319 320 321 314 305 308 305 302 302 307 305 300 302 302 301 305 306 306 306 306 308 315 316 316 316 315 316 317 317 316 314 313 313 313
311 313 315 319 324 323 322 322 319 318 319 319 319 314 310 307 306 302 301 306 302 303 302 301 301 303 305 304 304 308 312 313 313 313 313 315 316 315 312 311 311 312 311
308 308 310 312 316 322 323 322 318 318 317 318 317 316 314 314 312 308 306 305 301 302 300 298 302 302 302 300 302 306 309 311 312 313 315 313 310 309 308 308 308 308 309
306 307 307 309 310 313 316 316 316 316 316 318 316 313 311 313 311 309 307 304 300 298 297 295 295 294 297 298 301 305 304 309 309 310 311 311 310 306 306 306 307 307 308
307 304 304 305 306 308 310 316 319 317 317 315 316 315 311 309 308 309 308 308 305 299 297 298 295 295 296 295 300 302 302 306 308 308 308 307 305 305 305 305 305 305 306
298 299 300 300 301 302 304 306 307 308 309 309 309 310 310 306 306 305 304 304 304 303 297 297 293 293 295 297 300 299 300 305 307 306 305 304 303 303 303 304 303 303 304
294 294 295 295 296 296 297 299 299 300 301 302 301 301 298 299 298 297 297 297 297 297 295 293 291 291 292 294 295 294 297 295 299 303 303 303 303 302 302 301 302 303 303
292 292 293 292 292 293 293 293 294 294 295 294 297 297 295 296 294 294 294 293 293 294 292 291 288 288 288 290 291 291 293 294 293 295 299 300 300 300 300 301 301 300 299
291 291 291 291 290 290 290 290 290 291 292 292 292 291 291 292 291 291 291 290 290 291 289 289 287 287 286 288 287 288 289 290 292 293 295 297 298 299 298 299 299 299 297
291 290 290 290 291 289 288 288 288 287 288 290 290 290 290 290 290 289 288 288 288 288 288 288 287 286 287 286 287 287 286 288 288 291 292 293 293 293 295 294 294 294 294
290 290 290 292 293 292 292 288 289 289 289 289 289 289 291 294 295 293 289 287 287 287 287 286 286 286 286 286 285 286 285 286 286 286 284 284 283 283 283 287 288 290 291
291 292 292 291 292 292 293 292 290 288 287 287 286 286 288 289 289 294 294 294 291 286 285 285 284 283 283 284 284 284 282 280 277 280 279 279 281 281 281 281 287 289 290
290 289 290 291 291 291 293 291 289 286 285 281 279 278 284 285 285 281 286 288 287 289 289 283 280 279 279 279 277 275 277 274 275 278 278 277 279 279 279 282 288 289 290
287 288 288 287 286 290 291 290 287 277 277 278 277 272 273 275 280 281 279 280 280 280 282 283 281 280 280 280 279 277 277 276 278 279 279 272 276 277 278 279 286 289 290
286 285 286 283 278 279 289 288 280 273 275 275 278 278 279 280 287 287 280 279 278 279 284 287 286 286 287 287 285 278 276 271 273 276 278 276 276 276 278 277 279 286 289
284 280 277 274 284 274 288 287 281 279 276 277 277 278 285 284 287 287 279 278 277 277 278 278 278 278 279 278 283 279 274 266 266 268 276 273 275 276 272 277 278 279 279

GFSMA_sfc_thetae_054.txt.gz
Theta_e
322 322 322 323 324 326 327 325 322 320 317 313 309 308 308 305 304 309 321 328 336 340 337 335 331 330 328 325 325 323 323 322 322 322 322 321 321 321 322 322 323 323 323
323 322 322 323 323 325 326 325 323 321 320 318 317 313 308 305 303 308 319 323 331 336 338 335 333 331 330 327 326 324 324 322 321 322 321 321 320 320 320 321 321 321 322
325 324 323 322 323 324 325 324 323 322 320 320 316 314 309 305 303 305 316 320 324 329 334 335 334 332 331 330 327 326 324 323 322 321 320 320 319 319 319 319 319 320 320
328 325 324 323 324 323 323 323 322 321 320 319 317 316 311 306 304 303 312 318 319 322 328 334 335 334 332 330 329 328 326 324 323 321 320 319 318 318 318 317 317 318 318
330 328 326 326 324 322 321 322 321 321 318 318 318 317 312 307 304 304 305 313 317 320 320 325 330 331 332 331 330 329 327 325 323 322 320 319 318 318 318 317 316 316 316
329 328 328 326 324 323 322 320 321 318 320 319 318 316 309 308 307 303 303 309 314 317 317 317 318 323 328 332 330 329 328 326 324 321 320 319 318 317 317 317 317 316 316
326 325 325 324 324 324 324 323 320 320 317 311 311 309 306 305 304 304 302 305 309 313 313 315 316 315 318 328 330 329 329 328 326 323 320 318 318 317 317 317 317 316 317
331 328 324 324 323 324 322 322 320 316 316 311 313 305 310 310 302 303 301 302 302 309 311 312 312 311 312 313 319 328 328 328 327 325 322 320 318 317 317 317 317 317 317
330 329 329 328 324 322 322 321 320 320 320 310 309 317 306 305 303 303 299 298 299 301 306 308 309 309 309 310 315 320 325 327 326 325 324 321 319 318 318 317 317 318 316
316 323 326 326 326 324 322 322 322 321 318 320 309 311 311 307 307 306 305 301 297 298 300 304 307 308 309 310 313 315 318 323 324 323 324 322 320 319 319 318 317 317 316
309 314 315 317 322 324 325 321 319 318 318 320 316 309 309 306 304 304 307 309 304 303 302 301 304 307 308 307 308 310 316 319 322 322 321 321 321 321 320 319 318 316 315
310 310 311 312 318 321 322 324 322 319 318 320 320 314 310 308 306 303 302 304 306 305 304 303 301 303 305 305 306 309 313 316 319 321 321 320 318 318 320 319 316 314 312
307 307 308 308 310 313 320 323 322 321 318 318 318 317 315 314 313 308 307 306 304 303 302 302 303 301 301 300 301 307 310 313 316 319 321 320 317 317 315 314 314 312 311
305 305 305 305 306 309 311 318 319 319 318 318 318 316 315 310 311 307 307 302 302 300 297 301 297 294 295 296 300 306 304 310 313 316 318 318 315 314 312 311 310 309 309
303 301 301 302 302 304 306 314 315 314 316 314 314 314 313 311 309 309 308 307 305 299 298 299 297 293 294 296 298 299 300 305 308 311 314 313 310 309 308 308 308 308 308
295 296 296 297 297 298 300 303 306 308 307 306 306 304 303 303 303 302 302 303 303 301 298 297 294 293 295 297 300 298 300 303 305 308 311 310 307 306 305 305 306 306 306
293 293 294 294 294 293 294 296 297 298 301 299 298 297 297 298 297 297 297 297 297 297 295 294 292 291 292 294 294 296 297 297 299 306 307 305 304 304 304 305 304 303 303
291 291 292 291 291 291 291 291 292 292 292 292 293 295 293 296 294 294 294 293 293 294 293 291 288 289 289 290 291 292 294 295 294 297 300 300 300 300 301 301 301 302 302
290 291 290 289 289 289 288 288 288 289 289 289 289 288 288 288 287 289 290 290 290 290 289 289 288 288 287 288 288 289 290 290 292 294 295 296 298 299 300 300 300 300 300
289 289 290 292 290 288 288 289 289 289 290 290 291 292 291 288 286 286 287 287 287 288 288 288 287 287 287 287 288 287 286 288 288 291 293 294 295 296 295 296 296 295 294
290 292 292 292 292 292 291 289 290 290 289 288 288 290 291 293 295 293 289 288 288 287 287 287 286 286 286 285 285 286 285 285 286 287 285 284 283 283 284 287 288 289 290
292 292 292 291 291 292 293 292 290 287 286 285 285 284 287 287 288 293 293 293 291 285 283 278 278 280 280 280 281 280 278 275 275 279 278 279 280 280 281 281 287 289 290
290 290 290 291 290 291 292 291 289 284 279 277 277 277 282 284 282 279 285 287 286 289 288 282 279 278 278 278 276 274 276 273 275 278 278 277 279 278 279 281 286 288 290
288 288 287 284 285 289 291 289 286 274 277 278 273 271 272 274 279 280 279 279 279 279 282 282 280 279 279 279 279 276 277 275 278 279 278 271 276 277 278 279 285 287 289
286 285 283 279 278 278 288 287 279 272 275 275 277 278 279 280 288 287 280 278 278 279 284 286 286 286 286 286 284 278 273 270 273 276 277 276 276 276 277 277 279 288 289
284 282 277 275 283 274 288 286 281 278 276 277 277 279 285 284 287 286 279 277 276 277 278 278 277 278 278 277 282 278 274 266 266 268 276 273 274 275 271 277 278 279 280

GFSMA_sfc_thetae_057.txt.gz
Theta_e
332 332 332 332 334 336 336 336 335 332 330 328 323 318 317 318 317 316 319 326 332 340 340 336 335 331 329 327 326 324 324 322 322 322 322 321 321 322 322 323 323 324 324
332 331 330 330 330 333 335 336 335 333 332 330 329 329 326 320 317 315 317 323 329 336 338 338 336 333 332 329 327 326 325 323 322 322 322 321 320 320 320 321 321 322 322
333 332 331 330 330 331 332 333 333 333 331 331 329 329 327 324 318 315 315 320 325 328 334 337 337 335 333 331 330 328 326 324 323 322 322 321 320 319 319 319 320 320 321
335 333 332 331 332 332 331 331 331 330 330 330 329 329 329 327 325 320 315 317 322 326 330 334 336 336 335 334 331 330 328 325 324 323 322 321 320 319 319 318 318 319 318
336 335 334 334 333 332 331 331 330 329 329 329 328 328 328 327 327 323 320 316 317 323 326 328 331 332 334 334 333 331 330 328 325 324 322 321 320 319 319 318 318 318 318
335 336 335 334 334 332 331 330 329 329 328 328 325 324 327 326 325 323 322 318 316 317 322 326 329 330 328 333 332 332 331 329 328 325 323 321 320 319 319 319 318 318 318
333 333 333 333 333 331 332 331 329 326 326 324 322 325 323 322 322 322 321 317 317 316 318 320 323 326 328 329 332 332 331 331 329 327 324 322 320 319 318 319 319 319 318
336 334 332 331 330 330 329 329 328 326 325 322 324 318 317 320 317 316 315 313 313 312 314 316 318 321 323 326 326 329 331 330 330 329 327 324 321 320 319 319 318 318 318
333 334 335 334 332 329 328 329 328 326 325 322 322 323 312 312 312 315 311 309 309 309 312 314 315 316 318 320 321 322 325 328 328 328 328 327 324 321 320 320 319 318 319
314 319 327 330 331 330 327 328 328 327 325 323 316 316 318 313 311 309 313 311 305 306 305 309 311 313 313 313 315 316 318 322 327 328 326 326 325 322 320 319 319 320 319
316 317 318 320 322 322 323 324 324 324 324 324 320 317 317 312 309 309 309 315 312 312 310 308 309 308 310 313 314 314 315 318 323 326 327 326 326 324 320 321 321 320 320
315 313 314 315 317 320 321 322 323 324 323 322 324 321 316 312 313 306 305 306 308 312 312 311 310 308 309 309 309 310 312 314 318 323 326 326 324 323 323 323 322 321 319
312 311 310 311 312 314 317 321 323 324 323 320 321 320 318 317 315 312 312 311 307 309 312 312 307 306 303 306 306 305 308 311 314 318 322 324 323 321 320 320 319 321 319
309 307 308 308 309 310 313 318 321 321 320 319 319 319 318 316 314 313 314 309 304 303 306 308 300 302 302 303 303 303 307 307 309 313 317 319 320 319 318 317 317 315 314
304 303 303 304 304 306 309 314 315 315 312 312 313 314 313 310 311 310 311 310 307 302 301 303 302 300 298 300 301 302 303 303 305 307 309 311 313 312 313 315 312 309 309
299 299 300 300 300 301 304 308 309 309 307 307 307 307 306 305 303 303 304 305 305 304 299 301 297 296 296 298 300 301 302 302 304 306 307 308 311 309 308 307 306 306 307
297 297 297 297 297 297 299 301 302 302 301 301 301 301 300 299 298 299 301 301 301 301 299 297 295 294 296 295 296 298 299 299 299 303 306 306 305 305 304 304 304 304 303
295 295 295 294 294 295 295 297 296 296 296 296 296 296 295 296 296 297 298 297 296 295 296 294 292 292 292 293 293 294 294 295 295 298 300 301 301 301 301 301 301 301 301
294 294 294 293 292 292 292 293 293 293 293 293 293 293 293 293 293 293 294 293 293 293 294 293 291 291 291 290 292 291 291 292 293 295 296 297 298 299 300 300 301 301 301
293 293 294 293 291 291 291 291 292 292 292 292 293 294 293 292 292 292 292 291 291 291 291 291 290 290 289 289 289 288 289 290 289 291 292 293 295 295 296 296 296 295 294
293 293 293 293 293 292 291 291 291 291 290 290 290 291 292 294 295 294 292 290 290 290 290 290 289 289 289 288 286 288 288 289 289 287 287 288 288 289 290 289 289 289 290
293 293 292 292 292 293 293 293 291 289 288 287 287 287 288 287 289 292 292 293 291 288 285 286 286 286 285 285 286 285 285 284 284 286 285 286 287 286 287 288 288 289 290
291 291 291 291 291 292 292 291 289 285 283 283 284 285 285 285 284 284 287 287 288 289 288 287 285 284 284 284 284 283 283 283 283 285 284 282 285 283 285 285 286 288 289
289 289 288 288 290 291 291 289 285 281 281 281 281 281 284 284 286 284 284 283 283 286 286 285 285 285 285 285 285 284 284 284 284 284 284 280 283 282 285 285 285 288 289
287 286 285 284 284 286 289 287 283 281 281 281 282 284 285 286 288 286 283 281 281 283 285 286 285 285 285 285 286 285 283 281 279 281 283 281 282 282 283 284 285 286 287
286 284 282 281 285 283 288 286 283 282 280 281 282 283 286 286 286 286 283 281 280 281 282 281 281 280 280 281 282 282 282 280 280 279 281 280 281 281 280 283 284 285 285

GFSMA_sfc_thetae_060.txt.gz
Theta_e
338 338 334 331 332 334 335 335 336 335 334 333 332 329 328 326 325 324 323 324 327 335 342 341 337 334 331 328 326 325 324 322 322 322 322 322 321 322 322 323 324 324 324
340 338 337 334 331 333 334 336 337 337 336 336 333 333 333 333 330 326 324 325 327 331 338 341 339 337 334 332 329 327 325 324 322 322 322 321 320 320 321 321 321 321 322
340 338 337 336 336 335 335 336 336 337 336 336 335 335 334 334 333 329 327 326 326 326 331 338 339 338 335 334 333 330 328 326 324 323 323 321 321 320 319 320 320 321 320
340 339 337 337 338 338 337 336 336 335 335 335 335 335 335 335 334 334 333 329 328 327 328 333 337 338 337 336 335 333 331 328 326 324 323 322 321 320 320 319 319 319 319
340 340 339 339 340 339 338 337 337 336 335 335 335 335 335 334 335 334 333 333 330 326 327 328 330 333 335 336 336 335 333 331 328 326 324 323 322 321 320 319 319 319 319
340 340 340 340 340 338 338 338 336 337 336 335 333 331 333 334 334 334 333 332 332 329 326 326 327 327 329 333 335 335 334 332 331 328 326 324 323 321 320 320 319 318 318
340 339 339 339 340 338 338 337 337 335 334 335 331 330 332 333 331 331 331 331 329 327 326 325 325 325 326 330 332 333 334 333 331 331 328 326 324 323 321 320 320 320 319
340 340 340 339 339 338 337 337 336 333 333 334 329 327 322 324 326 327 328 326 325 324 322 322 322 322 323 325 326 330 332 333 332 331 330 328 325 324 322 321 320 319 319
338 337 338 338 338 337 334 336 335 332 328 332 330 327 320 315 321 324 324 321 320 320 320 319 320 320 321 321 322 323 325 328 330 331 330 330 329 325 324 322 321 320 320
317 319 327 332 333 333 330 330 331 330 329 325 324 324 326 321 316 314 321 321 318 316 318 316 315 317 317 316 316 316 318 320 324 328 330 329 328 329 326 323 322 321 320
320 320 320 322 323 325 326 325 326 325 327 326 325 320 321 321 319 315 312 317 320 315 316 317 318 316 317 316 316 314 314 315 319 322 326 329 329 327 327 326 324 321 320
319 318 318 319 321 322 323 324 324 322 322 323 325 324 319 317 317 314 312 314 313 319 320 320 318 316 314 312 310 309 310 311 314 318 322 325 327 327 327 325 324 323 322
316 317 316 316 317 318 319 322 322 322 323 323 323 323 321 320 318 313 312 311 311 316 315 316 312 311 310 312 311 305 308 309 311 314 319 322 323 322 323 325 324 324 322
314 313 313 313 313 314 315 318 320 322 323 323 322 322 321 320 317 315 314 312 309 311 312 312 310 308 307 306 305 305 309 306 307 309 311 313 313 313 316 320 321 319 318
309 309 309 309 309 310 312 316 318 318 317 315 314 313 311 309 311 313 314 313 310 305 307 310 309 304 304 305 303 306 307 304 305 306 308 308 308 309 313 314 315 313 311
306 306 306 306 306 307 309 312 312 311 311 311 311 309 307 307 307 308 310 311 308 307 303 305 303 300 300 302 301 303 302 303 304 306 309 308 308 311 310 309 308 307 307
303 303 303 303 303 304 306 309 306 305 305 304 305 304 303 306 306 305 307 305 304 306 302 297 298 299 301 300 300 300 300 300 300 302 304 304 305 305 306 305 305 305 305
302 301 301 301 301 301 303 304 303 303 303 302 302 302 301 301 302 303 303 303 302 302 303 300 297 298 296 297 297 297 297 297 298 298 300 301 301 301 301 301 301 301 301
300 300 299 299 298 298 299 300 300 299 299 299 299 298 298 299 299 299 299 299 299 298 298 297 294 295 294 293 293 295 295 295 296 295 296 297 298 298 298 299 299 299 300
299 299 298 297 296 295 295 295 296 296 296 296 296 296 296 296 296 296 295 295 295 296 295 295 293 293 291 291 291 290 293 294 293 294 293 292 293 293 294 295 295 293 293
298 297 295 295 295 294 294 294 294 294 293 293 293 293 294 295 295 295 294 294 294 294 293 293 292 292 291 290 289 291 291 291 292 290 290 291 291 292 293 291 290 289 290
294 294 294 294 294 294 295 294 293 293 293 292 291 291 291 290 292 293 293 292 292 292 289 290 291 291 289 289 289 288 287 286 286 290 287 287 289 288 290 290 289 289 290
293 293 293 293 293 293 293 292 291 290 289 287 288 288 288 288 287 287 288 288 289 289 289 289 288 288 287 287 287 286 286 286 285 287 285 284 287 285 288 287 287 288 289
291 291 291 292 292 292 291 289 287 286 286 285 286 286 288 288 288 286 286 286 287 288 288 288 288 288 288 289 288 287 286 286 286 286 286 282 286 285 288 288 286 288 289
289 289 289 289 289 290 289 287 286 287 286 285 286 287 288 288 288 286 285 284 284 285 286 285 285 285 285 285 286 287 285 283 282 283 285 283 285 284 286 287 288 286 287
287 288 286 287 288 289 288 287 286 285 283 284 284 286 286 287 287 287 286 284 282 284 285 284 284 283 282 283 283 284 284 282 282 282 284 282 283 283 283 287 287 288 288

GFSMA_sfc_thetae_063.txt.gz
Theta_e
338 337 333 330 331 332 332 333 333 333 333 332 331 330 328 328 327 327 326 327 327 329 337 342 339 336 332 329 327 326 324 323 322 322 322 322 322 322 323 324 325 325 325
339 337 336 334 330 331 332 332 334 336 335 335 334 333 332 333 332 331 328 328 326 329 332 340 341 338 337 334 332 329 327 325 323 323 322 321 321 321 321 321 321 322 323
338 337 336 336 336 334 333 334 335 336 335 335 335 335 335 335 334 333 332 330 330 326 330 332 338 338 337 336 335 333 330 328 327 324 323 322 321 320 320 320 321 321 320
339 339 337 337 338 338 337 336 335 335 335 334 334 334 335 335 335 335 335 334 333 330 329 331 334 337 337 337 336 335 334 331 329 327 325 323 322 321 320 320 319 319 319
340 339 339 339 339 339 338 337 336 336 334 334 332 335 335 335 335 335 334 335 335 333 330 330 330 332 335 337 336 336 335 334 331 328 327 325 324 322 321 321 320 320 319
340 339 339 339 339 338 336 336 335 336 335 334 332 332 335 335 335 335 334 332 333 334 333 330 330 327 328 332 335 336 335 334 333 331 329 327 325 324 322 321 321 320 320
340 340 340 339 338 336 336 336 335 333 332 336 332 331 332 333 333 332 332 330 330 331 329 328 328 327 327 330 333 333 335 335 333 332 331 329 327 325 324 323 322 321 320
340 339 339 338 338 337 336 335 334 332 333 335 328 328 322 325 326 329 329 327 327 328 326 325 325 324 325 325 326 330 331 333 333 333 332 331 330 328 326 325 323 322 321
340 339 339 337 338 337 335 335 334 332 328 329 330 325 319 316 321 324 325 325 324 323 324 322 322 322 322 322 323 322 322 323 327 332 332 331 331 330 329 327 324 323 321
323 325 328 333 335 334 331 331 331 331 329 326 326 326 327 322 316 314 322 323 323 319 321 321 318 318 317 317 317 316 317 317 320 323 327 330 330 330 330 328 327 324 323
319 320 320 321 322 323 325 326 326 325 325 324 325 323 323 323 322 316 313 316 323 321 319 319 319 318 317 317 316 312 312 313 316 319 322 324 326 329 328 330 330 326 324
319 319 318 319 320 321 322 324 324 324 321 320 321 321 321 319 315 313 312 314 316 317 317 320 317 316 314 313 308 309 309 312 314 316 320 323 324 325 325 327 328 327 325
316 318 317 317 317 318 318 320 321 322 319 319 320 320 321 321 321 315 312 310 311 314 313 316 312 312 310 311 307 306 309 308 310 313 316 318 318 317 317 320 323 325 327
315 315 314 314 314 314 314 316 318 320 321 322 322 322 322 321 319 315 313 311 307 309 310 310 310 308 308 305 304 308 308 306 308 310 312 313 311 310 312 316 318 320 318
311 310 310 310 311 311 311 313 316 316 318 316 313 312 310 309 309 311 313 313 311 305 307 309 307 305 304 305 302 305 304 304 306 307 308 310 309 308 311 314 317 315 313
308 308 308 308 308 308 309 311 312 312 312 311 311 309 308 307 308 309 308 309 309 308 304 306 302 302 302 303 302 302 301 302 303 306 306 306 308 311 311 312 311 310 310
306 305 305 305 305 305 307 309 308 307 307 306 306 305 304 307 307 307 308 307 307 307 304 299 299 300 301 299 299 299 300 299 300 301 303 304 304 304 305 306 307 307 306
304 303 303 302 302 303 304 305 305 305 305 304 304 304 303 304 303 304 305 304 303 302 302 299 297 297 296 296 297 296 296 297 298 298 299 300 301 302 302 302 302 302 301
303 302 301 300 300 300 301 301 302 301 301 301 300 300 299 301 299 300 300 299 299 298 298 296 293 295 295 293 292 294 295 294 296 295 295 296 297 298 299 299 299 298 300
301 301 300 299 298 297 297 297 298 298 297 297 297 297 297 296 296 296 296 295 296 295 295 295 294 293 292 292 292 290 292 294 292 293 293 292 293 293 294 295 294 293 294
300 299 297 297 296 296 295 295 296 296 295 294 294 294 294 295 295 295 294 293 293 292 292 292 292 292 291 290 288 290 288 289 290 289 287 289 288 289 290 291 291 290 291
296 296 295 295 295 295 295 295 295 294 294 293 291 292 292 292 293 293 292 292 290 290 288 288 289 289 289 288 288 285 285 284 283 287 284 284 286 285 286 286 289 289 289
294 294 294 294 294 294 295 294 294 292 290 289 288 289 288 287 287 287 288 288 290 289 289 288 285 285 285 285 285 284 284 283 283 284 283 281 284 282 285 287 288 288 290
292 292 292 293 293 292 292 291 290 287 286 286 286 286 287 287 287 286 286 285 286 287 287 288 287 287 286 287 286 285 284 283 284 284 283 279 283 282 284 285 287 288 289
290 289 291 291 290 290 290 288 287 286 286 285 286 287 288 288 288 287 285 283 283 285 287 286 285 285 285 285 285 284 283 281 280 280 282 280 282 281 283 283 284 287 288
287 288 287 288 290 289 289 287 287 285 284 283 284 286 287 287 287 287 285 283 281 282 283 283 283 282 282 282 283 282 282 278 280 279 281 279 280 280 279 283 283 284 284

GFSMA_sfc_thetae_066.txt.gz
Theta_e
330 329 325 324 325 326 325 326 327 325 325 325 325 323 321 320 319 319 318 326 328 330 333 341 341 338 334 331 328 326 325 323 322 322 322 322 322 323 324 325 325 325 325
332 331 328 325 322 323 324 324 325 328 328 328 328 327 325 325 325 325 322 320 327 328 331 333 341 342 339 336 333 330 329 327 325 323 322 322 321 321 321 321 322 323 323
332 330 329 328 328 325 325 325 327 328 328 330 328 329 329 327 327 327 325 323 323 326 329 331 333 337 338 339 337 335 332 330 328 326 325 324 322 320 320 320 321 321 321
333 331 330 329 331 330 329 328 328 327 327 327 327 327 327 328 328 328 329 327 325 324 326 331 333 335 336 337 338 337 336 333 330 328 327 325 324 322 321 320 320 320 320
335 333 333 332 332 332 331 331 330 329 327 327 329 329 330 330 329 331 328 329 329 329 326 328 328 330 334 335 336 337 336 335 333 331 329 327 325 324 323 321 321 320 320
335 333 333 333 333 334 332 332 331 331 330 330 331 329 330 329 329 329 329 329 326 326 328 324 323 323 328 333 333 334 335 335 334 333 331 329 327 325 324 323 322 321 322
335 334 333 335 334 333 332 332 330 329 329 330 329 325 326 328 327 328 327 325 323 323 322 322 321 320 321 329 332 332 333 334 334 333 333 332 330 328 327 326 324 322 322
336 335 334 334 334 334 333 332 332 329 329 330 325 323 318 319 322 323 323 321 319 318 319 318 317 316 316 316 320 329 330 332 332 333 332 331 332 331 329 328 326 325 323
336 337 336 335 335 335 333 333 331 329 327 328 328 323 316 312 314 317 318 318 317 316 314 314 314 314 315 315 316 316 318 319 322 325 329 330 331 330 331 331 329 326 324
319 319 321 327 333 332 330 327 328 327 327 324 325 326 324 322 316 312 315 316 316 313 313 311 311 313 313 313 312 314 314 315 319 321 323 325 326 328 329 329 330 329 326
315 317 316 316 316 317 318 319 319 320 320 318 319 319 317 320 320 316 311 311 316 316 314 313 312 310 310 307 305 309 312 315 318 320 322 323 325 327 328 328 329 329 328
315 315 316 315 315 316 316 317 318 318 317 315 316 317 316 316 314 313 311 310 309 314 316 313 309 309 309 304 306 309 310 312 315 317 319 321 323 321 321 322 325 326 326
311 313 313 312 312 313 314 314 314 315 316 314 316 317 318 316 317 316 313 310 308 312 312 309 308 307 305 302 302 307 308 309 312 314 317 317 315 314 315 317 320 322 324
309 309 309 309 309 309 309 310 311 313 315 315 313 314 315 316 315 313 312 310 307 306 308 306 304 302 301 300 302 306 303 307 308 310 312 313 312 310 311 314 316 317 318
307 304 306 305 306 306 307 308 309 310 312 311 312 311 310 309 310 311 313 312 310 304 304 305 299 298 299 299 301 300 300 304 306 306 307 309 311 309 312 314 316 315 316
304 303 303 303 303 304 305 305 307 309 309 309 309 308 307 307 307 308 308 309 309 307 303 302 298 297 299 300 300 299 300 301 302 304 305 306 307 309 310 311 312 313 312
302 301 301 301 301 301 301 302 306 306 306 305 305 304 303 306 305 304 303 303 301 304 302 297 298 298 297 296 296 297 298 297 299 301 302 303 304 305 305 305 306 307 308
301 300 299 299 299 299 299 299 300 301 304 303 303 303 301 303 301 300 299 297 297 295 295 297 295 295 294 292 291 295 296 297 296 297 299 300 301 301 302 303 303 303 303
299 299 298 297 296 296 296 296 297 297 296 295 296 295 295 296 293 293 295 295 293 295 294 293 291 293 292 290 291 293 293 290 294 295 295 296 296 297 300 300 300 299 299
298 298 297 296 295 294 294 295 295 294 294 294 294 293 293 293 295 295 294 294 294 293 293 293 291 290 290 289 290 287 286 288 287 290 291 292 293 294 294 295 294 293 294
296 296 295 295 296 295 295 295 296 295 294 293 293 293 293 294 296 295 293 292 292 290 289 289 289 289 289 288 285 285 282 282 284 284 282 283 284 284 286 290 291 291 291
294 294 295 295 294 295 295 296 295 294 293 292 290 288 289 291 292 293 293 292 290 288 287 287 287 286 284 282 282 280 280 276 276 281 279 279 281 280 281 282 288 289 290
293 293 293 294 293 294 296 295 295 291 289 287 287 285 286 287 286 284 288 290 289 290 289 284 281 280 280 281 280 279 279 277 278 280 279 277 280 279 281 285 289 288 290
292 292 292 292 292 292 294 293 292 287 285 284 284 284 282 282 284 284 283 283 283 284 285 285 282 281 281 282 282 281 280 279 280 280 279 273 278 279 280 281 289 288 289
290 290 291 290 289 289 291 290 285 282 283 282 283 284 286 285 288 287 283 281 280 282 287 286 285 285 285 285 284 280 276 274 275 277 279 278 278 278 279 280 282 288 289
288 288 287 287 290 286 290 289 286 283 282 282 282 284 287 286 288 288 282 279 278 279 280 280 280 281 281 280 283 279 276 270 272 273 278 275 277 278 274 280 281 281 282

GFSMA_sfc_thetae_069.txt.gz
Theta_e
324 324 324 326 326 328 326 326 326 325 324 324 323 321 319 318 317 316 315 326 329 332 332 338 341 339 336 332 330 328 326 324 323 323 322 322 322 323 324 325 325 325 325
328 329 325 320 320 322 322 322 323 323 324 325 325 324 323 321 321 322 320 318 329 330 332 331 336 340 340 337 334 331 330 328 326 324 324 323 321 321 321 322 323 324 324
330 330 327 324 324 321 321 321 323 325 325 327 326 327 327 326 324 324 324 321 321 326 330 332 333 335 338 339 338 337 334 331 329 327 325 325 323 321 320 321 322 322 322
331 329 328 327 327 326 323 324 325 324 324 325 325 326 326 327 329 328 326 325 323 322 326 332 335 335 335 337 338 337 336 335 332 330 328 326 325 323 321 321 321 321 322
333 330 330 329 330 329 328 327 327 326 325 326 328 329 329 329 330 330 328 327 327 328 325 327 329 330 333 334 335 336 336 335 334 333 330 329 326 325 324 322 322 322 321
333 331 331 331 330 332 332 331 330 330 329 330 330 330 329 329 328 327 327 328 326 324 326 323 322 323 327 332 332 333 334 335 335 333 333 331 329 327 326 325 323 322 322
334 331 331 331 333 331 331 331 330 329 328 328 327 323 324 326 326 326 327 325 323 322 321 320 319 319 320 327 330 331 332 332 333 333 332 332 332 330 329 328 326 324 323
335 333 332 332 333 332 332 331 331 330 329 329 325 323 317 318 321 321 320 321 319 317 318 316 314 314 313 316 320 322 325 327 328 329 330 331 331 332 331 330 329 327 325
335 336 335 335 334 334 332 333 331 330 326 325 326 321 314 311 314 318 317 317 317 316 313 313 312 313 312 314 314 313 316 318 322 324 325 325 327 329 330 331 332 330 327
321 319 321 326 330 330 327 325 326 324 322 321 320 323 322 319 315 311 314 315 314 312 311 310 311 310 310 308 310 313 315 318 320 322 324 324 325 326 328 329 328 330 330
316 316 316 316 316 316 316 317 317 317 318 317 315 313 314 315 315 311 307 310 313 313 312 311 309 307 306 305 306 311 314 316 318 320 322 322 323 325 324 325 325 328 328
314 315 315 313 314 314 315 315 315 315 315 315 314 312 311 310 310 310 310 309 309 313 314 311 307 306 304 305 308 310 311 313 315 317 319 320 319 319 319 320 322 323 324
311 312 312 311 310 310 311 311 311 311 312 313 312 312 313 315 315 312 310 309 310 311 310 307 306 304 304 302 305 306 309 309 312 314 316 317 315 315 314 315 317 320 322
309 310 310 309 307 307 307 308 308 309 311 311 311 311 314 314 316 315 313 309 305 307 308 304 303 302 301 299 303 304 302 306 307 308 309 311 312 310 311 314 316 317 319
307 306 306 306 305 305 305 305 306 307 308 309 311 308 310 309 308 311 313 313 311 304 306 302 299 299 299 300 302 300 301 303 306 306 306 308 309 312 315 316 316 316 317
305 303 303 303 302 302 303 303 304 305 305 305 306 307 307 307 307 307 308 309 309 308 304 302 298 299 300 299 300 299 300 300 302 303 305 305 306 307 309 311 313 313 314
303 302 301 300 300 299 300 300 302 303 303 302 302 304 304 305 305 304 304 304 302 303 302 297 298 298 295 295 296 297 298 297 298 300 301 303 303 305 306 306 306 307 307
301 300 299 299 298 298 297 297 299 299 301 302 302 303 301 303 300 300 300 298 296 293 297 296 296 294 293 292 290 294 296 297 295 296 298 300 300 301 302 302 303 304 304
298 298 298 297 296 296 295 295 296 296 295 295 297 297 297 297 294 294 294 296 295 294 291 290 291 293 291 291 291 292 293 289 293 294 295 295 296 297 299 300 299 298 299
297 296 296 295 295 294 294 294 294 293 293 293 292 292 292 293 292 293 294 294 294 293 293 292 291 290 290 290 290 285 285 286 285 287 289 292 293 294 294 295 294 294 294
295 295 294 294 294 294 295 293 295 295 294 293 293 294 293 294 296 295 293 292 292 290 289 289 289 289 289 288 283 283 281 281 282 281 280 281 282 282 285 292 291 290 291
292 293 293 294 294 295 296 297 296 294 293 292 290 290 290 291 293 294 293 293 291 290 288 287 285 285 283 282 281 280 279 276 276 280 279 278 280 279 280 280 289 289 290
290 290 292 294 293 294 296 297 296 292 290 288 287 285 285 288 286 284 289 290 290 291 289 285 281 280 280 281 280 279 279 276 278 280 278 276 278 279 280 284 289 289 290
289 289 291 293 292 293 295 295 293 287 286 286 284 281 280 281 283 283 283 283 283 283 284 285 282 282 282 282 282 281 280 279 279 279 278 273 277 278 279 280 289 289 289
288 290 291 291 289 290 293 293 287 284 281 280 282 284 285 284 288 288 283 281 281 283 287 287 286 286 286 286 284 280 277 274 275 276 278 277 277 278 279 280 281 289 289
289 289 287 288 291 288 292 290 285 282 280 281 282 283 289 287 290 288 282 280 278 279 281 280 279 281 281 281 284 279 277 269 271 272 278 275 277 277 273 279 280 281 281

GFSMA_sfc_thetae_072.txt.gz
Theta_e
326 325 325 325 325 326 326 325 324 324 324 324 321 319 317 316 315 315 314 324 330 333 332 335 340 340 337 334 331 329 327 325 324 323 323 322 322 323 324 324 325 325 324
323 323 320 324 323 324 326 323 324 323 321 322 322 322 321 320 319 319 319 317 328 331 334 332 334 338 340 338 336 332 330 329 327 325 324 323 321 321 322 322 323 323 323
327 327 325 319 319 319 322 319 319 322 324 325 324 325 325 325 324 322 322 320 320 327 331 333 334 334 336 338 338 337 336 332 331 329 327 326 324 321 321 321 322 322 323
330 328 327 325 324 322 320 320 322 322 322 323 323 325 325 327 328 327 327 326 322 321 325 332 336 337 336 336 337 337 336 335 334 332 329 328 326 324 322 322 322 322 322
331 329 327 327 327 326 325 324 324 324 323 325 327 328 328 328 329 330 329 328 327 325 323 325 329 331 333 333 334 334 335 335 334 333 332 330 328 327 325 323 323 323 323
331 329 329 329 328 328 328 329 329 329 329 328 329 329 329 326 326 326 326 327 326 326 324 323 322 322 327 331 331 332 333 333 333 332 332 333 331 329 328 326 324 323 323
332 330 329 330 330 331 331 330 329 328 328 328 326 324 323 324 324 325 325 324 324 323 321 322 319 318 318 326 328 329 331 332 332 331 331 331 332 332 330 329 328 326 324
335 331 330 330 330 331 331 330 330 328 327 328 323 320 314 316 318 319 319 320 318 318 319 318 316 314 314 316 317 321 323 324 325 326 326 327 329 330 332 332 330 329 327
335 334 332 333 333 334 332 332 331 329 326 325 325 320 314 309 312 316 316 316 315 314 314 314 313 312 312 311 312 314 318 320 322 324 324 325 325 325 327 329 331 332 330
331 332 332 333 332 330 328 326 326 323 321 318 319 320 318 317 314 311 313 314 314 311 310 311 309 310 308 307 312 315 318 320 321 322 323 323 324 326 326 327 327 328 329
321 319 318 316 317 319 318 317 316 316 317 317 316 313 311 312 313 311 310 309 311 312 311 310 308 306 306 305 308 312 315 317 318 319 321 321 321 323 324 324 323 324 326
318 319 318 317 315 314 314 315 314 313 313 313 313 312 310 308 307 307 306 306 307 309 311 309 307 304 304 307 309 311 312 314 316 317 318 319 318 318 319 318 319 321 323
315 316 314 312 310 311 311 311 310 309 309 310 311 310 311 311 311 310 309 306 306 308 306 304 305 304 304 305 306 307 308 309 311 313 315 315 315 314 314 315 316 318 320
314 314 311 310 309 309 309 308 307 307 307 308 308 309 310 311 311 311 310 310 306 307 306 303 300 302 301 303 304 304 302 307 308 308 309 310 312 314 313 313 315 316 319
310 310 309 308 306 305 305 305 305 304 306 307 308 309 310 307 307 309 312 311 311 304 305 301 298 299 300 301 301 301 301 304 305 306 306 307 308 311 314 316 316 316 317
305 304 303 303 303 303 303 303 302 303 303 304 305 304 303 303 304 307 308 309 309 309 304 301 298 299 300 299 300 299 300 300 302 303 304 305 307 308 309 310 311 312 313
302 302 302 301 301 300 300 299 299 302 301 301 300 301 302 303 304 304 304 304 303 303 303 297 297 297 295 296 296 297 297 297 297 300 302 303 302 304 306 306 306 307 307
301 301 299 299 298 298 298 298 298 301 300 300 301 300 300 302 301 300 301 299 297 297 299 296 295 294 293 293 293 294 296 296 294 296 298 299 300 301 302 302 302 304 304
299 298 298 297 296 296 296 295 296 296 295 295 296 298 298 298 296 296 297 296 296 295 294 294 291 293 291 291 291 292 293 289 292 293 294 295 296 297 297 299 299 299 299
296 296 295 294 295 294 294 293 294 292 292 292 292 292 293 295 295 294 295 295 295 293 294 292 291 290 290 290 289 285 288 285 284 286 288 290 292 294 294 295 295 294 294
295 294 293 293 293 293 294 292 293 293 294 294 294 293 293 294 296 296 294 293 293 291 290 290 289 289 289 288 284 284 282 281 281 281 281 281 281 281 285 291 290 290 291
292 292 292 292 292 294 297 297 296 295 294 293 291 290 291 292 294 295 294 293 292 291 289 289 287 287 283 283 282 280 280 276 277 281 279 278 279 278 279 280 289 290 290
290 290 290 291 291 293 297 297 298 293 291 290 288 287 288 288 286 284 290 290 291 292 290 287 284 283 281 282 281 279 279 277 278 280 279 276 278 278 280 283 289 289 290
288 288 288 289 290 293 297 296 295 288 287 286 286 285 280 280 283 283 283 283 282 283 284 285 283 282 282 282 282 281 280 279 279 279 278 274 277 278 279 280 289 289 289
287 287 288 289 290 291 296 295 290 286 286 285 285 283 283 282 287 288 282 282 282 283 288 288 288 288 288 288 284 280 278 276 276 277 278 278 277 278 278 279 280 289 289
288 288 287 288 291 289 294 293 288 284 283 282 283 284 290 285 290 289 282 281 279 280 281 281 280 281 281 281 285 280 279 274 275 274 278 276 277 276 273 278 280 280 280

GFSMA_sfc_thetae_075.txt.gz
Theta_e
327 327 326 325 324 324 324 322 322 322 322 322 321 318 317 314 314 313 313 321 330 334 333 333 339 339 338 336 333 331 328 326 324 324 323 322 322 323 324 324 324 324 324
327 326 325 324 323 323 325 323 323 323 323 321 322 321 320 319 319 317 318 318 325 331 334 333 335 338 340 339 338 335 332 331 329 326 325 323 322 322 322 322 323 323 323
324 324 321 319 323 322 323 323 319 320 320 323 323 324 324 324 324 323 321 321 320 326 331 333 335 335 336 337 338 337 336 334 332 331 328 327 325 322 322 322 323 323 323
325 325 325 321 319 319 318 318 318 319 321 322 322 324 324 325 325 326 327 326 324 323 325 330 334 338 338 336 336 336 336 335 334 334 332 329 328 326 324 323 323 324 323
329 328 326 325 324 322 320 319 321 322 322 323 325 326 327 328 329 329 328 327 327 326 324 325 328 331 334 334 333 334 334 334 333 333 333 333 330 329 327 325 323 323 323
330 328 327 326 326 325 325 324 324 326 326 328 327 328 327 325 324 324 325 325 324 325 325 324 322 323 328 330 331 332 333 333 332 331 331 332 332 331 330 328 326 324 324
331 328 328 327 327 326 327 327 329 327 327 328 326 324 321 322 322 323 322 322 322 323 322 321 319 321 321 328 328 328 330 330 328 327 327 328 330 331 332 331 330 327 325
332 330 328 328 328 328 329 329 329 328 328 328 323 317 313 315 317 316 316 317 317 316 318 318 317 318 317 317 318 322 323 324 324 325 325 326 326 327 329 332 332 330 328
332 332 331 329 329 331 330 330 330 328 325 323 325 321 314 308 312 317 315 316 314 313 312 312 312 313 313 311 312 315 320 322 323 325 324 324 325 326 326 328 329 330 331
331 333 331 332 332 331 330 329 328 327 323 318 316 319 317 318 315 309 312 313 313 311 310 310 309 311 309 308 313 316 319 321 322 322 322 322 323 325 326 326 326 326 327
325 325 325 324 324 323 322 322 321 320 317 316 314 312 310 309 311 312 307 308 310 311 310 308 307 305 307 308 309 313 317 318 319 320 320 320 320 320 322 323 323 323 323
321 321 320 319 318 317 317 317 316 313 311 311 311 310 309 307 305 304 304 304 305 307 307 305 303 303 306 308 310 312 313 314 316 317 318 317 317 318 318 319 319 320 321
316 317 317 316 314 313 313 313 311 309 309 309 309 309 309 309 309 307 305 304 304 305 302 301 302 301 304 306 306 307 309 311 312 313 314 314 313 314 317 314 316 318 319
315 315 313 311 310 310 310 308 308 306 306 306 305 306 308 309 309 309 310 306 306 306 305 299 299 301 303 303 305 304 305 308 308 309 309 309 311 312 316 312 315 316 316
313 311 309 308 307 306 305 305 304 304 304 305 306 306 307 306 307 308 309 310 308 303 305 301 298 300 301 301 302 301 302 305 305 306 306 307 308 309 311 314 315 316 317
310 308 306 305 304 304 302 302 301 303 304 304 304 303 302 302 302 305 306 308 309 308 304 302 299 299 300 300 301 299 299 300 302 303 304 304 305 307 308 309 310 311 312
303 304 304 303 301 301 299 298 299 300 301 300 300 300 300 301 301 302 303 304 304 303 304 296 297 297 296 297 297 297 297 297 297 300 301 302 302 303 305 306 307 307 308
302 302 301 299 298 298 297 297 297 298 299 299 299 299 300 301 299 298 300 300 299 298 300 296 295 294 293 293 294 294 296 295 293 296 299 299 299 301 303 302 302 303 304
299 298 298 297 296 296 296 295 295 296 295 295 295 297 297 297 297 297 297 297 296 296 295 295 291 293 291 292 292 292 292 288 290 292 294 295 297 297 299 298 298 298 299
296 295 295 295 294 293 293 292 293 292 291 291 291 292 295 295 296 295 295 295 295 294 294 293 292 290 290 290 290 287 288 285 284 285 287 290 292 294 295 295 294 293 293
295 294 293 292 292 292 293 291 292 291 292 294 293 293 294 295 296 296 294 293 294 292 291 290 289 289 289 288 286 284 284 282 282 281 281 280 281 281 284 288 288 291 291
292 292 291 291 291 293 297 298 297 294 295 294 292 292 293 294 295 296 295 294 293 291 289 289 288 288 287 285 283 282 281 278 279 280 279 278 279 279 280 280 289 290 291
290 289 289 290 290 290 297 298 298 294 293 291 290 288 288 290 287 285 290 291 292 293 291 289 287 283 282 283 281 279 280 279 278 280 279 276 279 279 280 282 289 289 290
288 288 288 289 289 290 296 298 297 289 287 287 287 286 286 284 282 283 282 282 282 283 283 284 283 281 282 282 282 282 281 279 280 279 278 274 278 278 280 280 288 289 289
287 287 287 287 287 287 295 297 291 287 286 286 286 285 284 281 285 288 283 282 282 283 288 289 289 289 289 288 285 281 278 277 277 277 279 278 278 278 279 280 281 289 289
287 286 287 286 290 288 295 295 292 287 286 285 285 284 288 284 288 289 282 281 280 281 281 281 280 281 280 283 287 280 279 273 275 274 278 276 278 277 275 279 280 279 280

GFSMA_sfc_thetae_078.txt.gz
Theta_e
326 326 326 325 324 323 323 320 320 321 320 321 321 319 318 317 314 314 313 321 324 332 332 333 337 340 339 337 335 332 330 327 326 325 323 322 322 323 324 324 324 324 324
326 326 325 324 322 322 323 322 322 322 322 320 320 321 320 320 319 319 318 318 325 328 333 333 334 337 340 339 338 337 335 333 331 329 327 325 323 322 322 323 323 323 323
325 327 325 323 323 322 323 322 320 319 320 321 321 323 323 323 323 324 323 321 321 325 329 332 334 335 337 338 338 337 336 335 334 333 331 329 327 325 323 323 323 324 323
324 324 323 321 320 322 321 320 320 317 318 320 321 322 323 324 325 325 326 326 323 323 326 330 333 335 337 337 337 336 335 336 334 335 335 332 330 328 326 324 323 324 323
324 324 324 324 321 319 317 317 317 319 319 320 322 324 324 326 326 327 325 325 325 325 324 326 328 329 333 337 335 334 333 333 332 333 333 333 333 331 329 327 325 324 324
326 325 326 325 324 321 321 320 319 321 323 324 326 326 327 324 324 323 323 324 323 324 324 324 323 323 327 333 331 331 331 331 332 331 331 331 331 332 333 331 328 326 325
331 329 327 326 325 324 325 324 323 324 326 328 326 323 319 320 320 321 319 319 320 322 321 321 319 319 322 328 329 329 330 328 328 327 327 327 328 330 331 332 332 330 327
333 331 329 328 326 326 325 326 327 326 327 327 324 317 312 315 315 316 315 316 314 315 317 317 317 316 316 317 320 324 324 324 325 325 325 325 326 327 328 328 330 332 330
332 332 330 328 327 328 328 328 328 327 325 324 323 318 310 307 309 315 314 314 313 311 311 312 313 314 312 311 313 317 322 323 324 324 324 323 324 326 327 327 328 328 327
329 330 330 329 329 331 330 328 327 327 326 322 318 318 319 318 313 307 312 313 313 310 308 308 309 309 309 310 315 317 320 322 322 322 322 322 322 323 324 324 325 325 324
324 325 327 327 326 325 324 323 321 320 319 318 316 312 309 308 311 311 304 305 308 309 308 307 306 304 306 308 308 315 318 320 320 320 320 320 319 319 320 321 322 322 322
323 323 323 324 324 322 320 320 318 317 316 314 312 310 309 306 303 303 305 304 303 306 305 305 304 303 304 306 311 314 315 316 316 317 317 317 316 316 317 319 319 318 319
317 319 319 319 317 314 314 314 313 312 311 310 310 309 309 308 308 306 305 303 302 304 302 300 301 301 304 305 307 308 311 312 312 313 314 314 313 313 317 315 315 316 317
320 319 316 313 311 311 311 310 309 307 307 306 306 305 307 307 307 307 310 307 304 306 305 303 301 301 304 304 305 306 306 308 309 310 310 310 310 311 314 316 315 316 316
317 316 313 310 309 308 307 306 305 304 304 303 304 304 305 306 307 306 307 308 305 300 302 300 300 300 301 300 302 302 303 305 306 306 306 307 308 308 310 313 314 314 315
311 308 307 307 306 305 304 303 302 302 302 302 304 303 303 302 302 303 306 306 307 304 300 301 299 299 300 300 301 300 300 301 302 303 304 304 304 306 308 309 310 311 312
308 306 305 303 303 302 301 301 300 300 300 300 299 299 300 300 300 301 304 303 302 303 303 297 298 298 297 298 297 298 298 297 297 300 301 302 302 303 304 305 307 308 308
303 303 302 301 300 299 298 297 296 297 298 298 298 298 298 300 298 298 298 298 299 299 300 297 295 294 294 294 295 295 296 295 294 296 299 299 300 302 302 301 302 302 303
299 299 299 298 297 296 295 294 294 294 294 293 293 294 295 295 294 295 297 298 297 296 296 296 292 293 292 292 292 293 292 291 289 292 294 297 298 298 299 299 297 298 298
296 296 295 295 294 293 293 292 292 291 290 291 291 291 293 296 296 296 296 296 296 294 294 294 292 291 291 291 291 288 289 287 284 285 288 289 291 294 296 295 293 293 293
294 294 293 292 292 292 293 291 292 291 291 292 294 294 294 295 297 296 295 294 294 293 291 290 290 290 289 288 288 287 286 283 281 282 282 281 282 282 285 287 289 291 292
292 291 291 291 291 293 297 298 295 291 293 294 293 292 294 295 295 296 295 295 294 292 290 289 289 289 289 287 285 284 280 277 278 281 280 280 280 279 280 282 289 290 292
290 290 289 290 290 290 297 298 298 292 290 292 291 289 289 291 288 288 291 291 292 292 292 290 288 287 286 285 282 279 280 280 279 280 280 278 279 279 281 282 289 290 290
289 288 288 289 289 290 296 297 297 290 287 287 288 287 287 286 285 285 282 282 281 283 283 284 284 283 283 283 283 282 281 280 280 280 279 276 278 279 280 281 288 290 290
287 287 287 287 287 287 295 297 292 287 287 287 287 287 287 285 287 289 282 281 281 282 288 290 290 289 289 288 285 281 280 277 277 278 279 278 278 278 279 280 282 290 289
287 286 287 286 289 285 294 296 292 288 286 287 286 285 289 284 287 290 280 280 279 280 281 281 280 281 282 285 288 281 281 278 277 276 279 277 278 278 276 280 281 281 281

GFSMA_sfc_thetae_081.txt.gz
Theta_e
333 333 332 333 333 333 332 330 329 328 328 329 330 329 328 328 327 326 327 322 324 329 333 334 334 339 340 338 336 334 332 330 327 326 325 323 322 323 324 324 325 324 325
334 333 334 333 332 332 331 330 328 330 331 331 329 329 330 330 330 329 330 330 325 328 332 334 334 336 338 340 339 338 337 335 333 331 330 328 325 323 323 323 323 324 324
335 334 334 333 332 331 330 330 329 329 329 329 328 329 332 332 332 332 333 333 332 326 328 333 335 336 336 338 339 336 336 337 336 335 333 331 329 327 325 324 323 324 323
334 334 333 333 332 330 329 330 330 327 326 326 329 331 331 332 333 333 333 333 333 332 330 330 333 336 337 338 338 337 334 335 336 335 335 334 332 330 328 326 325 324 324
333 332 331 332 330 327 328 328 326 326 325 326 328 330 332 332 332 332 333 332 332 333 334 330 328 330 333 334 336 336 333 332 332 332 332 333 334 333 332 330 327 325 325
331 330 329 330 329 326 325 324 323 324 327 329 328 330 332 333 333 332 331 330 331 331 332 333 333 332 326 330 334 332 331 332 332 331 330 329 331 331 333 333 331 329 327
332 329 329 328 329 328 326 325 325 325 327 329 329 330 329 329 329 329 329 327 327 327 329 330 330 331 330 329 330 329 331 330 328 327 326 327 327 327 328 329 331 332 330
334 333 331 328 329 330 329 328 329 329 329 330 328 323 321 323 325 325 325 324 323 324 325 324 326 326 328 327 325 327 327 325 326 326 325 325 324 326 327 328 330 330 332
334 333 333 333 331 331 330 331 331 330 327 327 328 325 317 316 319 324 323 323 322 322 321 320 320 321 320 318 317 320 324 324 324 324 324 322 324 324 325 325 327 327 327
331 331 331 331 331 330 330 330 332 331 330 328 326 326 327 325 318 315 319 320 320 318 318 317 318 316 314 316 317 318 321 323 322 322 322 322 321 321 322 322 324 325 324
329 330 330 330 328 326 326 325 328 325 326 325 325 322 321 320 319 314 309 313 317 318 317 315 315 314 313 315 317 317 319 322 321 320 320 319 319 319 320 321 321 322 322
326 328 329 328 326 325 324 322 321 320 321 320 319 317 316 314 312 312 310 311 310 314 314 314 312 312 311 312 314 314 316 317 317 317 318 317 316 316 317 320 320 320 320
324 325 326 326 324 324 323 321 319 318 316 314 314 314 316 315 315 313 311 309 308 311 312 310 310 310 309 312 312 310 312 313 314 315 316 314 312 313 316 318 315 317 317
325 325 324 322 319 318 317 316 314 313 313 314 313 312 313 313 314 314 312 309 306 307 310 311 308 308 307 308 308 307 309 309 310 310 311 310 309 310 314 317 317 317 318
320 322 321 319 315 314 311 310 309 309 309 309 310 310 310 311 312 313 313 312 308 301 302 308 305 305 307 306 305 304 306 306 307 307 306 307 307 308 310 312 313 314 315
318 316 312 311 309 308 308 307 307 307 307 307 308 309 309 310 310 310 310 310 309 306 301 307 303 303 304 303 303 302 302 302 303 304 304 304 304 306 307 309 310 311 312
313 311 310 308 307 306 306 306 305 304 304 305 305 305 305 306 307 307 308 308 307 307 303 301 301 300 300 300 299 299 299 298 298 301 301 302 302 303 304 305 306 307 308
310 310 308 306 304 303 303 303 302 302 303 303 302 303 303 303 304 305 305 304 303 304 303 301 298 296 296 297 296 296 296 296 295 296 299 299 301 301 301 301 302 303 303
305 304 304 302 301 300 298 298 298 298 298 298 298 299 300 301 301 301 302 302 302 300 300 300 296 296 295 294 294 294 293 292 290 293 295 298 298 299 299 298 297 297 299
300 300 300 299 298 297 297 297 296 296 296 296 296 297 297 299 300 299 298 299 298 297 297 297 295 293 293 293 293 290 290 290 288 289 290 291 292 294 297 294 293 293 294
299 298 297 297 297 296 296 296 296 296 296 296 296 297 297 297 297 298 297 297 296 295 295 294 293 292 291 290 289 290 289 287 286 289 289 288 288 288 291 289 290 292 293
297 296 296 296 296 295 298 298 297 296 296 296 296 296 296 297 297 297 296 296 295 294 292 292 292 291 291 291 288 288 286 285 288 287 286 286 286 286 286 289 290 291 292
295 295 295 295 295 296 299 300 299 296 295 295 294 293 292 292 291 292 293 293 293 292 293 293 291 291 289 289 287 284 286 287 284 284 285 284 284 284 286 286 289 290 291
294 294 294 294 294 294 298 299 299 296 292 289 290 290 290 288 288 288 286 286 286 288 287 288 290 289 289 289 289 289 288 285 284 284 284 282 283 284 285 287 288 290 290
292 292 292 292 292 293 297 298 295 289 290 289 291 291 290 288 290 290 286 285 285 286 290 290 289 289 289 288 287 286 284 282 281 282 283 282 282 283 284 285 287 290 290
291 291 289 290 292 291 295 297 295 291 289 289 289 288 291 288 291 292 285 285 283 284 285 285 285 284 286 289 287 286 285 283 282 281 282 282 282 282 282 284 285 286 286

GFSMA_sfc_thetae_084.txt.gz
Theta_e
335 334 333 334 333 333 331 330 330 328 328 330 332 332 331 332 333 333 334 324 324 328 333 335 335 337 341 339 337 336 334 332 330 329 327 325 323 323 324 324 324 325 325
334 332 330 332 332 333 331 329 328 329 330 333 333 334 334 335 335 335 336 336 327 328 332 335 336 336 338 340 340 339 338 336 335 333 332 330 327 325 325 324 323 324 324
336 335 334 336 336 335 332 330 328 333 334 333 333 333 335 336 335 336 336 337 336 326 329 334 336 337 337 338 340 338 338 337 337 336 335 334 332 329 327 326 324 324 324
338 337 337 337 337 335 333 332 332 332 331 331 330 333 334 335 335 335 335 335 335 335 333 332 334 336 337 338 340 338 336 336 335 335 335 336 335 333 331 329 326 325 325
339 337 336 336 337 334 333 332 332 331 329 329 330 332 334 334 334 334 333 334 335 335 335 333 330 330 332 335 337 337 334 334 334 333 332 332 333 334 334 332 330 328 327
341 338 334 335 336 333 331 332 330 330 329 330 330 331 334 334 334 334 333 333 333 333 333 333 335 334 328 330 334 335 332 332 332 331 330 329 329 330 331 333 332 332 329
335 336 334 335 335 333 332 332 330 328 329 333 332 329 330 332 332 331 331 330 330 329 331 332 334 334 333 329 332 332 332 333 330 328 327 326 326 326 327 328 329 331 332
337 336 335 334 334 332 335 332 330 330 331 334 328 329 321 325 328 328 329 328 328 329 329 328 329 330 332 334 329 331 331 329 328 327 326 325 324 326 327 327 328 329 329
336 337 337 335 334 333 335 334 334 333 331 332 332 327 320 316 322 326 326 327 325 326 327 326 326 326 328 327 324 323 324 326 325 326 325 322 323 323 324 325 325 326 328
336 335 334 333 331 331 329 330 331 331 332 328 330 331 331 327 318 315 322 323 324 320 323 325 324 323 322 324 318 318 321 324 323 323 323 322 321 321 321 322 323 323 325
333 331 331 330 330 330 329 327 327 325 325 324 323 324 328 328 326 321 310 313 318 320 321 321 321 322 320 321 323 319 320 321 322 322 320 319 319 319 319 320 321 322 322
329 329 330 330 329 327 325 324 323 321 323 322 323 323 323 318 316 314 313 312 313 316 318 319 319 319 319 319 315 315 317 318 319 318 318 317 316 316 317 320 321 320 320
327 327 329 328 328 327 327 325 323 321 322 321 322 321 319 318 318 315 314 312 311 313 314 316 317 317 315 317 316 311 313 314 315 315 316 315 313 313 315 319 318 316 317
328 329 328 328 329 329 326 324 323 322 321 320 318 318 317 317 318 317 313 311 308 309 311 311 315 315 315 314 311 309 310 310 311 312 312 311 309 309 311 315 317 318 318
329 328 327 329 327 324 322 321 318 314 314 314 315 314 313 313 314 315 315 314 310 305 306 310 310 312 312 311 309 308 309 307 307 307 307 306 307 308 310 311 312 313 315
328 327 325 326 322 320 319 317 313 311 311 312 312 312 312 313 313 314 314 313 312 310 304 309 311 309 308 306 306 305 305 303 304 305 304 304 304 305 306 309 309 311 312
322 322 321 317 316 315 314 313 311 309 309 310 309 311 310 311 311 312 312 310 309 310 305 306 305 304 305 304 301 301 301 300 300 301 302 302 302 304 304 304 305 306 308
318 317 316 314 312 311 310 308 307 307 307 306 307 308 308 307 308 310 309 307 308 309 306 302 302 300 300 300 299 298 297 296 295 297 300 300 301 302 301 301 301 302 303
313 314 313 311 309 307 307 306 305 304 305 306 305 305 305 306 306 306 307 306 306 304 305 303 302 301 299 297 296 296 294 293 291 294 297 298 299 300 300 297 296 296 298
309 309 309 307 305 305 304 304 304 303 303 303 302 303 303 304 305 306 304 304 304 303 302 301 301 297 296 295 295 293 291 291 289 290 291 293 294 296 297 294 293 293 294
306 306 305 304 303 302 301 302 302 302 301 301 301 301 302 301 299 302 302 302 301 299 299 297 296 294 293 292 291 292 291 289 288 289 291 293 293 293 295 291 291 292 293
304 304 303 303 302 300 300 301 302 301 301 300 299 300 300 297 298 299 298 297 299 298 296 294 294 293 294 293 291 290 288 287 288 290 292 292 290 290 290 291 290 291 291
303 302 302 302 300 301 300 300 300 300 300 299 299 298 298 297 296 298 296 296 295 294 295 296 293 293 293 293 291 288 287 288 290 288 289 288 287 286 288 287 290 291 291
302 301 301 301 301 300 300 300 299 300 298 294 293 294 296 294 293 293 291 290 291 292 292 292 295 295 293 292 292 291 291 292 289 288 287 285 285 286 287 288 288 290 290
301 300 301 300 299 299 299 300 299 297 294 292 292 296 297 295 293 293 289 288 289 289 290 290 290 290 290 291 292 291 289 288 286 285 286 284 284 285 286 287 290 291 290
299 299 296 298 298 298 298 299 298 295 292 291 295 295 294 293 293 293 289 290 287 288 289 290 289 290 291 290 288 290 290 288 287 284 285 284 284 284 283 286 288 289 290

GFSMA_sfc_thetae_087.txt.gz
Theta_e
336 335 334 334 334 332 332 331 330 328 327 327 327 328 327 329 331 331 333 326 328 330 332 335 336 337 339 341 338 337 334 333 331 330 329 327 325 324 324 324 324 325 325
335 334 333 333 332 331 331 329 328 327 326 327 329 331 331 333 333 334 335 331 329 331 333 335 337 338 338 339 341 340 338 337 336 334 333 332 330 327 325 325 324 324 324
331 330 330 330 331 331 330 329 327 327 328 329 330 331 332 333 334 334 335 336 333 328 332 335 337 338 339 339 340 340 339 339 338 337 336 335 334 332 330 328 326 324 325
335 333 332 333 335 334 333 329 327 326 330 330 329 330 332 334 333 334 335 334 335 334 332 335 336 336 338 339 340 340 338 339 338 336 336 336 336 335 333 331 329 327 326
338 336 336 337 336 334 332 331 330 329 328 329 329 330 332 333 333 333 332 332 334 335 335 333 332 332 333 335 337 339 337 337 336 335 332 332 332 333 334 333 332 331 329
340 339 336 334 335 334 332 331 329 331 329 328 326 328 333 334 334 332 331 331 332 333 332 332 334 332 329 331 334 337 336 335 334 332 331 329 329 329 329 331 332 331 332
339 340 337 333 334 334 333 332 330 329 328 330 329 328 331 332 331 331 331 330 329 329 328 331 332 333 331 330 331 334 333 334 332 330 328 327 326 326 327 328 330 330 330
336 336 336 334 334 334 334 333 332 329 329 331 329 327 323 324 327 328 328 328 327 328 328 328 328 329 331 331 326 330 333 331 330 328 327 326 325 325 325 326 326 327 328
337 337 337 336 335 334 333 335 332 330 328 333 333 328 320 317 321 325 327 326 325 324 326 327 325 326 327 327 324 323 324 328 327 328 327 324 323 323 323 324 324 324 325
335 336 335 336 335 333 330 329 330 332 331 328 331 330 328 327 319 316 323 322 323 320 321 323 323 323 323 324 316 318 321 324 324 325 325 324 321 322 322 322 323 323 323
331 333 334 333 331 331 329 329 328 327 326 323 322 321 320 322 322 319 313 315 319 320 321 320 320 321 321 321 322 317 320 321 322 323 323 321 319 319 320 321 323 323 322
329 329 330 330 330 329 328 326 324 323 322 323 322 320 318 315 316 316 313 312 313 316 319 319 319 318 319 318 314 315 317 320 320 320 319 319 317 316 318 320 323 320 319
326 326 329 329 329 329 327 325 323 323 323 320 320 320 321 321 320 316 313 312 311 313 314 316 317 316 315 317 314 312 313 315 316 317 317 317 314 313 314 317 320 319 319
326 328 329 328 329 328 326 325 324 323 322 322 322 322 320 319 318 317 314 311 308 310 311 311 314 314 315 313 308 310 310 311 313 314 314 312 310 310 312 314 316 318 317
330 329 329 328 329 327 326 325 322 321 322 321 320 317 315 315 316 316 315 314 310 304 305 309 309 311 312 311 308 309 308 308 308 308 308 306 306 307 309 311 312 313 314
330 328 327 327 327 326 323 323 319 318 317 316 315 313 312 313 313 314 314 313 312 309 305 308 310 309 308 307 305 307 305 304 305 305 305 304 304 305 306 307 308 309 310
326 325 325 325 322 320 321 320 317 315 314 312 312 312 311 312 312 312 312 312 311 310 306 308 307 306 306 305 302 302 302 300 300 302 302 302 302 304 303 303 304 305 305
320 322 322 320 318 317 318 317 314 312 311 309 309 310 310 309 310 310 310 309 308 308 306 304 304 301 302 302 300 298 298 296 296 298 300 300 301 302 301 300 300 300 302
316 317 317 315 313 313 313 312 309 308 308 308 308 307 307 307 306 307 307 307 306 306 306 304 300 301 300 298 297 297 295 294 292 295 298 299 299 301 300 297 296 296 297
311 313 314 313 310 308 308 306 306 306 306 305 305 305 305 305 305 306 305 305 305 304 304 302 301 298 298 297 296 293 292 293 290 291 293 293 295 297 297 294 294 294 295
308 309 309 307 306 304 303 303 304 303 303 302 302 302 303 302 301 303 304 304 303 301 300 299 297 296 295 292 292 293 291 290 289 290 289 291 291 293 293 291 291 293 293
306 306 305 305 304 302 302 303 303 302 302 301 300 301 300 298 298 299 299 299 301 299 297 295 294 293 294 293 292 290 289 287 287 290 288 289 288 288 288 289 291 291 292
306 305 305 304 303 303 301 302 302 302 301 300 299 299 298 298 299 298 298 297 297 296 295 297 294 293 292 293 291 288 288 288 288 286 287 287 285 284 285 287 290 291 291
305 305 304 303 303 302 301 301 301 300 299 297 296 296 297 295 295 296 294 292 291 292 292 293 295 295 295 293 292 291 289 289 287 286 286 282 283 283 284 285 289 291 291
303 303 303 302 301 301 300 301 299 297 293 292 293 294 296 296 296 296 292 289 290 290 290 290 291 292 292 294 294 290 288 286 284 283 284 282 281 282 282 283 287 291 290
301 302 300 300 301 300 299 300 300 297 293 292 294 295 297 297 296 295 291 289 287 287 287 288 288 289 290 290 290 288 288 285 285 282 283 281 281 281 279 283 285 286 287

GFSMA_sfc_thetae_090.txt.gz
Theta_e
329 330 330 331 331 329 328 327 326 323 321 320 321 320 319 319 321 323 318 327 330 333 333 335 336 337 338 341 340 338 336 334 332 331 329 328 326 324 324 324 323 324 325
330 329 329 328 327 327 325 325 323 321 320 320 321 323 323 324 326 325 325 322 330 332 335 336 337 338 338 339 340 340 339 337 336 335 334 333 331 329 327 326 325 324 324
329 328 326 326 325 324 324 322 322 321 321 322 322 324 325 325 327 328 327 327 327 329 334 338 339 339 339 339 340 341 340 339 338 337 337 336 335 333 332 330 328 326 325
327 326 324 324 325 326 325 323 322 319 321 324 323 324 323 327 327 327 330 329 329 330 330 335 338 339 338 338 340 340 339 339 339 338 336 335 334 335 335 333 332 330 328
330 328 327 328 329 328 326 325 322 321 321 323 323 323 324 326 327 329 326 326 326 327 327 331 332 333 335 336 336 337 338 340 338 336 333 332 331 331 331 332 333 332 331
334 332 331 330 330 329 326 326 324 325 324 323 324 322 324 326 327 326 325 327 326 324 323 324 325 326 329 333 334 335 336 337 335 334 332 330 329 328 328 328 331 331 330
338 337 334 329 327 330 328 326 325 324 324 323 320 321 324 327 328 326 324 322 321 321 321 323 324 324 327 330 332 333 335 334 334 332 330 328 327 327 328 328 328 328 329
335 335 333 331 328 330 329 329 326 324 324 324 321 322 317 319 322 323 321 321 318 319 321 322 320 322 322 322 323 329 332 334 332 330 328 327 326 326 325 326 326 326 326
334 333 332 332 330 330 329 329 329 327 324 324 325 321 315 312 315 320 318 318 317 315 317 319 320 320 320 319 320 319 323 327 328 329 328 326 325 324 323 323 324 324 324
332 332 332 332 331 329 327 326 327 326 326 324 326 327 323 320 313 311 316 315 316 314 312 315 316 317 317 316 316 318 320 323 324 326 327 326 323 322 322 322 323 325 324
329 330 330 330 329 329 327 327 327 327 326 323 323 320 319 318 318 314 309 309 313 313 315 313 313 313 315 315 315 316 320 321 323 323 325 323 321 320 320 321 322 324 322
326 327 329 329 330 329 327 327 326 325 324 323 322 321 317 315 314 313 312 312 310 311 312 312 312 312 312 311 314 314 317 321 322 322 321 321 319 318 318 319 320 321 321
323 325 326 328 328 328 326 326 324 322 323 322 321 320 319 317 318 316 313 310 308 309 309 311 311 310 312 310 309 310 313 316 318 318 319 319 315 313 314 316 317 319 320
323 323 326 326 327 326 327 325 323 322 322 320 319 320 319 319 320 316 312 309 305 306 307 307 310 310 308 306 308 310 308 313 315 315 315 312 310 310 312 313 314 315 316
325 324 325 325 324 324 325 325 323 322 321 320 319 320 317 315 315 315 314 311 307 301 303 305 305 307 307 306 307 308 305 310 309 309 308 307 307 307 308 310 311 311 312
325 326 324 326 325 325 326 324 323 322 320 318 317 315 312 312 312 312 311 311 309 306 301 304 304 305 305 305 306 305 304 305 306 306 306 305 304 305 306 307 307 308 308
321 323 324 323 323 325 325 322 320 317 317 314 312 312 311 310 309 309 309 308 307 306 303 302 302 301 302 301 301 301 302 300 301 302 303 303 303 304 304 304 304 304 305
315 317 320 322 321 321 321 320 317 316 315 312 310 308 308 310 308 308 307 306 305 305 305 302 302 300 300 299 299 298 298 297 297 299 301 301 301 302 302 300 300 299 299
309 312 315 316 316 315 316 317 315 312 311 308 307 307 306 306 304 304 304 304 303 304 304 301 297 300 296 297 296 296 295 294 293 297 299 300 300 301 301 298 296 296 296
306 307 310 312 311 310 309 309 307 306 305 304 304 305 305 304 303 303 303 302 302 300 301 301 299 297 296 296 296 293 292 293 291 291 294 295 297 298 298 295 294 294 295
304 305 306 305 305 305 305 304 304 304 303 303 304 303 303 303 303 303 302 301 300 300 298 296 296 295 294 291 291 292 291 290 290 290 289 290 291 292 294 293 291 293 293
302 302 302 302 301 302 304 304 304 302 302 301 300 300 299 299 300 302 301 302 301 299 297 295 293 293 293 293 292 290 289 287 287 289 287 288 289 288 286 286 291 291 292
301 300 300 300 300 299 303 304 303 301 300 299 298 298 297 298 297 295 299 299 298 299 298 296 291 291 291 292 291 288 288 287 288 287 287 286 286 282 282 287 291 291 291
298 299 299 299 298 299 302 302 302 297 296 294 293 293 293 292 293 294 293 289 289 290 291 293 293 292 292 293 292 290 289 288 286 285 286 283 280 280 281 282 290 291 291
298 299 299 299 297 296 301 301 299 292 291 292 293 294 294 292 296 298 292 287 288 288 291 291 292 294 296 295 293 290 287 286 284 282 281 280 279 279 280 280 283 291 291
296 298 298 298 298 297 300 301 298 294 292 292 293 293 296 294 297 298 288 287 285 286 286 285 285 288 290 290 294 286 284 285 282 276 280 278 278 279 275 280 283 283 285

GFSMA_sfc_thetae_093.txt.gz
Theta_e
332 333 331 331 330 330 327 326 325 323 321 321 318 319 317 317 317 318 318 328 332 336 336 337 337 338 338 340 341 338 337 335 333 331 330 329 327 325 325 325 324 324 324
332 332 330 330 330 329 327 326 324 322 320 319 318 319 320 318 318 321 317 321 330 333 337 337 338 339 339 339 340 341 340 339 337 335 334 333 332 331 329 327 326 325 324
331 329 329 329 329 327 324 323 322 320 318 318 317 320 322 322 325 325 324 320 324 329 334 338 339 339 340 340 340 340 341 340 339 338 337 336 335 334 333 331 330 328 326
329 326 325 326 326 324 322 320 319 317 317 319 320 322 323 323 324 325 326 326 324 327 329 335 339 341 340 339 339 340 341 341 340 340 338 336 335 334 335 334 333 332 330
329 326 323 323 323 323 323 322 319 318 317 321 323 323 322 324 325 327 325 327 326 327 326 329 332 333 335 337 337 337 338 340 340 338 335 333 331 331 331 330 331 332 332
328 326 325 324 326 325 324 324 321 321 320 321 324 322 321 324 324 325 324 325 326 326 323 325 325 325 328 333 335 335 336 338 338 335 334 332 330 328 328 328 330 330 330
330 329 329 328 328 328 326 325 323 322 322 323 320 319 320 324 324 326 324 322 323 321 321 322 322 323 326 330 331 333 335 336 336 334 332 329 328 328 328 327 327 327 328
333 334 331 329 326 328 326 325 323 322 322 322 319 319 315 319 321 323 324 321 318 318 321 320 320 320 322 321 322 328 332 334 335 332 329 328 328 325 325 325 324 325 325
333 333 332 331 329 328 327 326 328 324 321 322 322 321 315 313 316 317 318 317 316 314 316 318 318 318 318 317 318 318 323 327 331 331 329 328 326 323 323 323 323 324 325
331 330 330 329 329 329 327 327 327 326 325 322 325 326 323 320 314 311 317 317 314 312 312 314 315 315 316 314 316 317 320 323 325 328 329 328 325 322 322 321 322 324 323
328 331 330 329 327 328 327 327 325 325 324 323 322 320 319 318 317 313 310 310 313 313 312 312 312 314 313 314 313 316 320 321 323 325 327 326 323 320 320 320 321 323 321
325 325 327 327 328 327 326 325 325 325 326 324 322 320 317 316 315 313 310 312 311 314 313 312 310 311 311 311 314 315 318 321 323 324 325 324 321 318 317 318 319 320 321
322 324 324 324 327 327 325 325 324 324 324 324 322 321 320 318 318 317 314 312 310 310 310 311 310 310 311 309 309 310 314 316 318 319 322 321 316 314 314 315 317 317 318
324 324 325 324 325 327 326 324 324 323 323 322 322 321 320 319 319 317 315 312 306 306 307 307 308 309 308 307 309 309 308 314 316 317 317 313 311 310 311 312 313 314 315
323 323 323 324 324 326 324 324 322 322 322 322 321 320 319 319 319 318 315 312 310 302 303 305 304 305 305 304 307 305 304 310 310 310 309 308 307 307 308 309 310 310 310
324 324 323 323 323 324 324 324 323 322 321 321 320 318 318 317 317 315 313 312 310 306 301 304 303 303 304 304 306 304 303 306 307 307 306 305 304 305 306 306 306 307 307
319 320 322 323 323 323 323 323 322 322 320 320 318 318 316 314 313 312 312 310 308 307 303 301 302 301 300 300 300 302 301 299 302 304 303 303 303 304 304 303 302 302 303
310 313 315 318 321 322 323 323 322 321 319 317 315 315 314 312 311 311 309 307 307 307 304 301 299 298 299 301 300 299 299 298 298 299 302 303 302 303 302 300 299 299 298
306 308 311 312 315 317 317 319 320 318 317 317 315 314 313 311 309 307 307 307 306 305 301 299 297 298 298 297 297 297 296 295 294 298 300 301 301 302 302 298 297 296 296
303 304 306 308 309 310 312 314 313 311 312 311 310 311 310 309 307 305 305 304 302 300 299 299 298 297 297 296 296 294 293 293 292 292 296 296 299 299 301 297 294 294 294
302 303 303 304 304 304 305 306 307 307 306 305 307 307 307 306 304 306 304 302 301 299 296 293 294 295 294 292 293 293 292 290 291 291 289 290 292 292 295 295 292 293 293
299 300 300 301 301 302 303 305 305 304 304 304 303 303 304 302 303 305 306 305 304 299 296 293 294 294 294 293 290 289 289 287 288 290 288 288 290 288 290 288 292 292 292
296 296 297 298 298 299 302 304 304 302 301 301 300 300 299 300 300 300 303 303 303 303 301 296 294 295 293 292 292 289 288 288 288 287 287 286 286 285 285 287 291 291 291
296 296 296 299 299 298 302 303 303 297 297 297 296 297 296 295 295 296 294 292 292 293 295 295 294 293 292 292 291 292 290 288 285 286 287 284 283 281 281 281 290 291 291
295 296 297 298 299 299 300 302 300 293 292 291 292 295 296 295 297 298 292 288 288 288 294 294 294 296 297 297 294 290 286 286 284 284 283 283 278 279 279 280 282 290 291
293 295 296 297 298 298 300 301 300 294 292 292 294 293 297 293 298 299 291 288 286 285 285 285 287 290 294 294 296 288 286 284 284 280 280 278 278 278 275 279 282 282 284

GFSMA_sfc_thetae_096.txt.gz
Theta_e
332 333 332 334 333 334 331 327 326 323 320 319 319 319 318 316 315 316 317 328 333 338 339 338 338 338 340 341 341 339 337 335 333 332 331 330 328 326 325 325 325 324 324
333 332 331 331 330 333 330 327 324 322 319 319 318 317 318 316 315 317 316 320 330 333 338 338 339 339 339 340 340 341 341 339 338 336 334 333 333 331 330 328 328 327 326
333 333 331 331 331 331 330 324 323 322 320 319 316 316 318 318 319 321 318 317 322 328 333 338 340 339 340 340 340 341 343 341 340 339 337 336 335 335 334 333 331 330 329
331 332 331 330 331 330 327 323 322 318 317 316 315 316 319 321 322 323 324 320 321 323 328 335 339 341 341 340 339 339 340 341 341 341 338 337 336 335 334 334 333 333 332
331 331 330 329 328 326 324 322 318 318 315 317 319 320 321 321 322 325 324 324 324 323 324 328 331 333 336 338 337 337 338 340 341 340 337 335 332 331 331 330 330 331 331
331 329 328 327 325 324 323 321 318 318 316 317 322 322 322 322 323 324 324 325 325 325 325 325 325 325 327 332 333 334 336 337 340 338 335 333 331 329 328 328 328 328 328
329 328 327 324 325 324 323 323 320 318 319 319 318 318 319 320 323 324 325 323 323 323 321 322 321 322 325 329 330 332 335 336 337 335 334 331 329 328 328 326 326 326 326
328 328 327 324 325 324 324 323 323 320 320 321 317 317 314 318 321 323 322 321 321 320 320 320 320 321 321 320 321 326 331 333 335 334 331 329 329 327 325 324 324 324 325
331 329 328 328 326 327 325 324 323 322 320 321 322 319 314 312 316 317 318 318 317 318 318 318 319 320 318 317 317 317 323 328 333 332 331 329 327 325 323 322 322 324 324
330 330 330 330 328 328 327 326 326 325 323 320 322 323 321 318 312 310 315 315 315 314 316 316 316 316 315 314 316 317 320 323 326 331 331 329 327 324 321 322 322 323 323
328 329 330 328 326 325 325 325 324 324 324 323 321 320 319 319 317 314 310 312 315 314 314 314 315 315 314 313 312 316 320 321 323 325 329 329 326 322 320 320 321 321 322
325 327 328 328 327 326 326 325 324 323 324 322 324 323 320 318 316 313 311 311 313 315 316 313 313 313 313 313 314 316 318 322 323 324 326 327 323 319 317 318 319 319 320
322 323 325 325 325 326 325 326 324 323 324 324 323 322 320 319 317 318 315 311 311 312 311 311 311 311 311 310 310 311 315 318 320 321 322 323 318 316 315 315 317 316 317
322 324 324 324 324 325 325 325 324 324 324 324 323 320 320 319 317 317 317 313 308 308 307 307 308 308 309 308 309 310 310 316 318 320 320 315 312 311 311 312 313 313 314
323 323 323 323 324 324 325 325 324 322 322 322 322 322 320 319 318 318 317 317 313 304 305 305 304 305 305 305 306 304 304 311 312 311 310 309 307 307 308 309 309 310 309
322 322 322 322 322 323 323 324 322 322 321 321 321 320 320 320 318 317 315 313 312 308 304 304 303 303 304 304 306 303 303 306 309 308 307 306 305 305 306 306 306 306 306
315 317 319 321 322 322 322 322 322 322 320 320 319 318 318 317 317 316 314 311 309 307 304 301 302 301 301 301 301 301 301 300 301 305 305 305 304 304 304 303 302 302 302
306 307 311 314 318 321 322 321 321 321 320 319 319 318 317 315 316 315 313 311 311 308 305 301 300 300 300 299 299 300 300 299 297 301 303 304 304 303 303 301 300 299 298
303 304 306 308 310 312 316 319 321 321 320 320 319 317 317 314 314 313 312 310 308 306 303 302 298 298 298 298 297 298 297 295 295 298 302 302 302 303 303 301 298 296 296
300 301 302 304 305 306 308 310 314 314 315 317 317 316 316 314 315 312 310 309 305 304 301 301 298 297 295 296 296 294 293 294 294 294 297 298 298 301 302 300 296 294 294
298 299 300 300 301 302 303 304 307 309 310 310 309 310 311 309 307 310 309 306 304 302 298 295 294 295 294 293 294 293 293 292 293 293 289 289 292 293 294 298 293 293 293
295 296 296 297 298 300 303 304 304 304 305 306 306 306 307 303 305 307 307 305 306 303 299 295 294 295 295 292 291 291 290 288 288 288 286 286 288 288 291 291 293 293 292
292 292 294 295 296 297 302 303 303 301 302 302 302 301 301 302 302 303 306 306 305 305 305 302 298 295 292 292 291 289 286 286 288 287 286 287 286 286 286 288 293 292 292
291 292 293 294 296 298 301 302 302 298 296 296 298 298 298 297 298 299 298 297 299 300 300 299 299 296 294 294 294 291 289 288 286 287 288 285 281 284 283 283 289 291 292
288 290 292 292 294 296 299 301 300 296 293 292 292 295 298 297 299 300 295 292 292 292 296 297 297 298 298 298 294 289 285 287 285 284 284 284 280 279 280 280 282 290 292
287 289 290 290 294 294 297 299 300 297 294 293 294 292 298 297 299 300 294 292 290 289 288 289 290 293 296 296 297 290 288 287 285 283 283 281 278 279 276 279 281 282 284

GFSMA_sfc_thetae_099.txt.gz
Theta_e
332 333 333 331 333 334 333 330 327 323 320 319 318 318 317 315 314 314 317 326 335 341 341 339 339 340 340 340 340 339 338 336 334 332 331 330 328 327 326 326 326 326 326
333 333 333 332 331 333 332 331 328 324 320 318 317 317 317 317 315 314 315 318 330 334 339 339 340 340 340 340 340 340 341 341 339 336 334 333 332 331 331 330 329 329 328
333 333 332 332 331 331 330 329 327 324 320 318 316 317 316 316 315 315 316 316 320 328 333 338 340 340 340 340 340 341 342 341 340 339 338 336 335 334 334 334 333 332 331
333 332 331 332 332 330 330 328 325 323 319 317 316 315 315 317 318 319 320 317 317 321 327 334 338 341 341 340 340 339 339 341 341 341 339 338 337 336 334 333 333 332 332
333 330 330 331 331 330 329 328 324 322 317 316 315 315 316 318 320 322 322 321 320 321 321 326 331 333 336 339 338 337 337 339 341 340 339 337 334 331 330 329 330 330 330
331 331 329 329 330 328 327 324 324 319 317 318 318 318 318 320 321 321 323 325 323 323 322 323 323 326 329 333 334 334 334 336 338 339 337 335 332 330 328 328 328 327 327
329 330 330 329 329 327 325 324 322 318 318 316 317 317 318 319 320 321 323 323 322 323 323 324 324 322 325 330 331 331 333 335 337 338 336 333 331 329 328 327 325 325 325
328 329 328 327 327 325 324 323 322 318 318 319 315 315 313 316 319 321 322 322 321 321 321 322 321 321 320 320 321 327 330 333 335 336 334 332 330 329 327 324 323 323 325
330 327 328 327 325 325 323 323 322 321 319 319 320 317 312 311 314 317 318 319 318 318 319 319 319 320 319 317 319 320 324 327 334 336 333 331 329 327 325 323 322 324 324
329 330 328 327 325 324 323 323 324 322 322 319 318 322 320 318 313 311 314 314 314 314 317 317 317 318 317 315 316 316 320 323 327 333 333 331 329 327 324 322 322 322 323
327 329 328 327 326 324 324 324 323 323 323 320 320 319 317 317 316 313 310 311 314 314 315 316 316 316 316 315 315 316 319 321 324 326 329 331 330 327 323 320 320 320 321
325 326 327 327 326 324 322 322 322 322 323 321 321 319 318 316 316 313 312 312 312 314 315 313 315 315 315 314 315 316 319 323 323 324 326 328 328 323 320 318 319 319 319
323 324 326 326 326 325 324 323 322 323 323 322 321 322 321 320 318 319 317 314 310 312 311 311 312 312 313 313 314 313 317 320 322 323 324 326 321 318 316 316 316 316 317
323 324 325 326 325 325 325 323 322 322 322 323 322 322 322 322 319 319 319 314 308 306 305 305 308 309 311 310 310 312 312 317 319 320 323 318 314 312 312 313 313 312 312
323 322 322 322 323 324 324 322 322 322 323 322 322 322 321 321 321 321 320 319 316 309 306 306 305 308 308 308 309 307 307 314 315 314 313 310 309 309 309 309 309 308 308
315 320 320 321 321 322 322 323 322 322 322 322 322 321 321 322 320 319 318 317 315 314 308 306 304 305 306 306 307 303 304 308 311 311 309 307 306 307 307 307 306 305 305
308 310 313 316 318 321 322 322 322 322 320 320 320 320 320 320 319 318 318 316 313 311 306 301 303 302 303 304 303 302 302 301 303 308 307 307 306 305 305 304 303 302 301
304 305 306 308 311 314 318 320 320 321 320 319 319 318 318 318 317 317 315 313 311 307 305 300 300 300 301 301 301 299 300 300 298 303 304 304 304 304 305 303 301 299 299
300 301 302 303 304 306 308 311 315 318 320 320 320 319 318 317 316 317 315 314 313 309 308 302 298 299 299 301 298 299 297 295 296 299 302 304 304 303 304 303 299 297 296
297 297 298 300 301 302 303 304 306 309 312 314 317 318 318 317 316 315 314 314 312 309 307 304 299 297 297 297 298 295 294 294 293 294 298 299 301 301 303 304 299 295 294
295 295 296 296 297 299 301 301 302 302 304 307 311 311 313 313 310 314 313 313 310 308 304 301 297 295 294 294 296 294 295 292 292 294 292 293 294 293 293 301 296 295 294
292 293 293 294 294 297 300 303 302 300 300 303 304 307 308 305 306 308 309 309 309 307 304 301 296 298 295 294 295 293 291 289 289 293 290 289 289 288 290 293 295 294 293
289 289 291 292 293 294 300 300 301 300 298 298 300 301 302 303 303 305 307 306 306 307 308 304 299 298 295 295 294 289 288 288 289 287 288 286 286 286 288 291 295 294 293
286 287 288 290 291 293 296 298 299 297 298 296 294 296 299 299 299 301 301 299 301 303 303 302 302 299 299 297 297 293 291 287 286 286 287 284 282 283 283 284 292 293 292
284 285 287 288 287 289 295 295 296 296 295 294 296 296 297 298 300 302 298 295 296 295 300 302 301 301 300 300 297 292 288 289 285 284 285 286 280 280 280 281 282 291 292
284 285 285 285 288 286 292 294 295 295 295 295 297 295 297 297 299 301 297 295 293 293 292 292 294 297 298 298 298 295 291 290 285 284 285 283 279 280 277 280 281 282 284

GFSMA_sfc_thetae_102.txt.gz
Theta_e
329 333 333 333 334 334 333 333 332 326 322 318 316 314 314 313 313 314 316 324 333 340 342 341 341 341 341 340 339 339 338 337 335 333 332 331 329 328 327 327 328 328 328
329 329 330 332 332 334 332 332 330 326 323 318 317 316 316 316 314 314 314 317 327 335 339 340 340 341 341 341 341 341 341 341 340 338 335 334 333 332 331 331 331 331 330
330 330 330 329 329 333 332 330 329 325 321 319 316 316 316 315 315 314 314 314 317 328 332 337 340 340 341 341 341 341 342 341 341 340 339 337 335 334 334 334 334 333 333
330 329 329 330 331 331 331 329 328 325 321 320 317 315 315 315 315 314 314 315 315 318 325 333 337 341 342 340 341 341 340 341 341 341 340 339 337 336 335 332 332 331 331
331 330 330 329 331 331 331 329 327 326 321 320 316 316 315 315 316 319 317 318 317 317 319 325 329 332 336 339 340 340 338 339 340 340 340 339 337 335 331 330 330 330 329
332 330 327 328 328 325 327 328 327 323 323 322 320 318 316 316 317 318 319 322 322 319 319 320 321 324 329 335 337 336 336 337 337 339 339 337 335 331 330 330 328 327 327
328 330 329 326 328 324 324 326 326 324 319 318 315 315 317 318 318 320 321 322 322 323 322 321 321 322 324 330 333 334 335 336 337 337 339 336 333 331 329 328 326 325 324
327 327 329 329 328 327 326 325 325 322 322 319 315 314 311 314 318 320 321 322 322 322 322 322 322 322 323 324 323 331 332 334 336 337 337 335 332 330 329 326 324 323 323
328 328 328 328 327 327 325 325 324 323 319 318 320 315 310 309 312 317 318 321 320 319 320 321 321 320 320 319 322 323 325 328 334 336 336 334 331 330 328 325 323 323 323
327 328 327 327 327 326 325 325 324 323 321 317 316 318 317 316 312 310 314 314 316 317 318 318 319 319 318 317 317 317 321 324 329 335 334 333 332 330 328 325 323 321 323
325 326 328 327 326 325 325 325 323 322 322 321 318 316 316 316 315 312 310 311 313 313 315 316 317 319 318 318 316 317 320 324 327 331 334 334 332 331 328 324 322 321 321
323 325 326 327 327 327 325 324 324 323 322 322 320 319 318 317 316 313 310 311 311 312 313 315 316 317 317 315 315 316 318 322 325 328 330 330 332 330 326 322 320 319 318
322 323 325 324 325 325 325 324 323 322 321 321 320 319 319 319 318 317 315 312 311 314 312 312 313 314 314 313 313 314 317 322 325 326 328 330 328 323 320 319 318 317 317
321 324 325 325 325 326 325 324 323 323 323 323 323 322 322 321 320 319 317 315 311 309 308 308 308 312 313 312 313 314 315 318 321 325 325 325 319 317 316 316 315 314 313
313 315 321 322 322 324 325 324 323 321 322 321 322 321 321 321 321 321 320 320 316 311 311 306 306 309 309 311 312 311 312 316 319 321 319 315 313 312 313 312 312 311 309
308 309 311 314 317 320 322 322 322 322 321 321 321 320 321 322 321 321 320 320 319 316 312 309 306 306 309 308 310 308 308 311 314 314 312 310 309 309 310 309 309 308 305
303 304 306 308 310 312 315 319 321 321 320 320 320 320 320 321 321 320 319 319 317 316 313 302 303 304 304 306 304 304 306 305 308 311 310 309 308 307 307 307 306 304 303
299 300 301 303 304 305 307 309 311 315 319 319 319 319 319 319 319 319 318 317 316 315 310 301 300 301 302 305 304 303 302 302 302 308 308 307 307 306 306 305 303 302 300
296 297 298 298 299 300 302 303 305 306 309 311 316 318 318 318 317 317 317 315 313 310 309 303 299 300 299 302 301 300 300 298 298 303 306 306 306 305 305 304 302 300 298
293 294 295 295 296 297 299 300 301 301 302 304 307 310 313 316 317 317 316 316 314 311 309 305 299 299 298 300 301 298 295 296 294 296 300 302 304 305 305 305 302 298 296
290 292 292 293 294 295 297 298 299 299 299 300 302 304 308 308 305 309 314 315 314 312 310 307 298 296 297 297 298 298 297 295 295 293 292 294 296 297 299 302 300 297 296
288 288 288 290 291 293 296 297 298 297 298 298 298 300 302 303 305 307 307 307 311 311 308 306 302 300 298 299 299 296 292 291 290 294 292 291 293 292 293 294 297 297 295
285 285 286 287 289 290 294 295 295 296 296 296 296 296 298 300 301 302 304 306 306 307 309 307 305 304 300 299 298 295 291 290 290 289 290 289 289 289 288 292 298 297 295
283 283 284 286 287 288 292 293 295 293 294 294 293 294 296 297 298 299 300 299 302 305 306 306 307 306 304 300 299 299 296 292 287 288 289 287 284 285 284 286 297 297 295
282 282 284 284 283 284 290 292 291 289 291 292 294 294 294 295 299 301 299 296 298 299 301 303 303 303 302 302 300 295 291 291 286 286 287 286 282 282 282 282 284 294 294
281 282 282 283 285 283 288 291 290 287 287 289 293 293 296 296 299 300 297 297 295 295 294 294 297 300 301 300 299 299 293 291 285 285 285 285 281 281 280 280 281 283 286

GFSMA_sfc_thetae_105.txt.gz
Theta_e
339 339 338 340 341 341 340 340 339 335 332 327 325 323 324 324 324 324 325 324 331 338 341 342 341 341 340 339 339 338 338 337 335 334 332 331 330 328 328 328 328 329 329
335 338 338 336 337 338 338 339 338 336 332 330 326 323 323 323 323 323 324 324 327 333 338 342 342 342 342 342 341 341 341 341 340 339 336 334 333 332 332 332 331 331 331
337 336 336 337 337 338 336 335 337 334 333 330 327 325 324 324 324 324 324 323 324 325 332 337 340 341 341 342 341 342 343 341 340 340 340 338 336 334 334 334 334 333 332
336 336 336 336 337 337 337 336 331 331 328 330 327 325 324 324 324 324 324 324 323 323 326 332 336 340 342 342 342 342 342 341 341 342 340 339 338 336 336 334 332 330 330
334 335 335 336 336 336 335 335 331 329 327 325 327 326 327 325 323 323 324 323 323 323 324 325 329 331 336 341 341 341 340 340 340 341 340 340 338 337 335 332 331 330 328
333 334 333 333 335 333 332 333 331 327 326 326 324 323 325 326 325 325 325 324 325 325 325 325 325 326 328 335 338 339 340 338 338 339 339 339 338 336 332 331 330 328 326
331 333 332 331 332 330 329 330 331 327 324 323 322 321 322 323 323 324 324 324 325 327 328 326 325 327 328 330 335 338 338 337 337 337 338 339 336 333 332 331 329 326 325
330 331 332 330 330 330 328 327 327 325 325 321 319 317 315 319 321 323 325 324 324 327 327 328 327 327 329 330 331 333 336 337 337 337 338 338 335 333 332 330 327 326 324
331 330 330 332 332 330 330 327 325 323 321 322 322 318 313 313 318 322 323 325 325 326 326 327 327 328 328 329 329 329 329 332 334 336 338 337 335 333 332 329 327 325 323
329 331 331 330 331 330 329 326 326 324 323 318 318 321 322 320 315 314 319 320 323 324 325 326 327 326 327 328 325 323 323 326 332 334 337 337 335 334 332 329 327 325 325
328 329 330 330 330 330 330 329 325 324 324 322 320 318 318 319 322 319 317 319 318 320 324 324 323 325 326 327 327 323 320 325 331 334 335 337 335 334 332 329 327 324 323
326 326 327 329 330 329 328 327 326 326 324 323 322 320 318 317 318 319 316 318 317 321 319 321 322 324 326 324 322 318 319 324 329 331 334 336 334 334 332 329 325 323 321
323 324 325 325 326 328 328 327 326 325 324 322 321 321 321 320 323 321 320 318 317 319 318 318 320 321 323 323 321 315 316 321 325 329 331 332 332 331 329 326 324 322 320
312 314 315 321 324 325 325 325 325 324 324 323 322 322 322 321 321 320 321 319 315 313 317 318 317 318 320 319 316 313 317 318 322 327 329 330 328 324 323 322 321 320 318
309 310 311 312 314 316 318 323 324 323 323 322 323 323 322 323 322 322 321 321 318 312 313 313 312 312 315 315 315 316 316 316 321 323 323 321 318 318 318 318 317 316 313
303 304 306 308 309 310 310 313 318 321 321 322 322 322 322 322 322 323 322 322 321 316 312 316 313 311 313 313 314 316 313 312 317 320 317 314 314 314 315 314 313 312 310
299 300 301 302 303 304 306 307 309 311 312 318 320 320 320 321 320 321 322 321 319 318 314 316 308 307 309 310 309 312 312 313 315 315 314 312 312 312 312 311 311 309 308
296 296 297 297 298 300 302 303 303 305 305 307 309 314 318 318 319 320 320 318 318 319 316 314 303 303 305 309 308 306 306 307 309 311 312 310 310 309 309 309 307 306 304
293 294 295 295 295 296 298 300 301 301 302 303 304 306 308 310 315 318 318 317 317 316 316 310 300 301 301 305 303 303 303 302 303 308 310 309 309 308 308 307 305 304 302
291 291 292 292 294 295 296 297 298 299 300 301 302 303 305 307 308 308 311 316 316 314 311 307 302 300 299 301 303 300 297 299 298 301 305 306 307 307 307 306 304 302 300
290 290 290 290 291 293 293 295 295 295 296 297 299 300 302 302 301 304 306 307 311 312 310 307 301 298 297 298 300 300 299 297 296 296 298 302 304 304 305 306 303 300 298
288 288 288 288 289 290 293 294 294 293 293 294 294 297 299 299 301 303 304 304 305 305 309 308 304 302 301 302 302 299 297 294 292 296 296 296 301 300 301 301 302 300 298
286 286 286 287 287 288 291 293 293 293 292 292 293 294 295 297 298 299 301 302 303 305 306 308 307 305 305 304 302 298 297 298 298 294 296 293 294 295 296 296 301 299 298
285 285 286 286 287 288 290 291 292 291 291 291 293 293 294 294 296 297 298 299 300 302 304 305 307 309 309 305 305 303 301 298 290 292 296 290 290 292 291 293 299 299 298
284 284 285 285 285 286 289 290 290 290 289 289 290 291 292 294 295 296 296 296 297 299 301 302 303 305 305 305 305 300 294 292 287 287 290 288 285 286 287 288 292 299 298
282 284 283 284 285 286 287 289 290 289 287 287 288 289 291 293 295 296 295 294 293 296 299 299 300 301 303 303 302 301 296 295 287 285 288 287 284 285 285 285 288 292 295

GFSMA_sfc_thetae_108.txt.gz
Theta_e
343 343 344 345 346 346 344 344 340 338 333 329 330 331 331 330 330 330 330 329 333 337 341 342 341 340 340 339 339 338 338 337 336 334 333 332 330 329 329 329 329 329 329
344 344 343 343 343 345 342 340 340 338 333 328 326 327 328 328 329 329 329 329 327 331 336 341 343 343 342 342 342 341 341 340 340 339 337 335 334 333 332 332 332 332 332
342 341 342 341 342 344 339 339 339 337 337 331 327 324 325 325 325 326 327 328 328 325 331 336 338 342 342 342 343 342 342 342 341 340 340 339 337 335 334 334 334 335 332
338 339 338 339 341 340 340 339 338 335 335 333 331 329 326 327 326 326 327 328 329 328 327 331 336 339 342 342 342 342 343 342 342 342 342 341 340 337 336 335 334 332 331
333 336 336 337 337 337 338 338 338 337 332 333 329 329 329 328 327 326 326 328 329 329 328 328 329 332 336 341 342 343 342 341 341 341 341 341 341 339 337 335 332 331 330
333 334 335 335 335 334 335 337 335 335 334 334 328 328 331 332 330 327 326 326 329 329 329 329 329 327 328 334 338 340 341 342 342 340 340 339 340 338 337 334 332 330 328
331 332 333 333 332 331 332 332 331 331 329 332 325 324 324 326 326 327 328 325 327 328 329 329 329 330 330 329 333 338 339 340 340 339 339 339 339 338 336 333 331 330 327
333 332 331 332 333 331 330 329 330 328 328 331 326 324 318 320 322 324 325 324 325 327 327 329 330 331 331 332 330 332 337 339 339 338 338 338 339 337 335 333 331 328 328
332 332 332 332 332 332 329 330 331 330 326 328 328 322 315 313 318 321 322 324 325 326 327 328 329 331 331 332 332 330 329 334 338 338 337 338 339 337 335 333 331 328 327
332 332 332 331 331 331 331 332 333 330 328 322 325 324 321 321 315 313 320 324 325 325 327 329 329 330 331 332 328 325 325 329 335 336 336 337 338 336 335 334 331 329 326
330 331 331 330 330 331 331 331 331 330 329 322 320 320 320 319 318 316 312 318 322 324 326 327 329 329 330 331 330 328 324 328 332 333 334 336 337 337 336 335 331 329 326
328 328 328 328 330 330 330 331 330 328 328 325 323 321 319 315 315 314 313 317 317 324 327 327 327 328 329 329 326 322 321 326 330 332 333 335 337 337 335 335 331 329 326
312 313 315 320 324 326 328 328 327 326 326 326 326 323 323 321 322 318 316 314 315 322 324 326 326 328 328 330 328 318 319 322 326 330 333 334 336 334 334 333 332 329 326
308 309 310 312 314 316 317 318 322 325 326 325 324 324 323 323 322 321 318 316 314 318 323 322 323 324 325 324 323 316 320 318 322 327 331 331 330 329 329 330 329 326 324
304 305 306 307 308 310 310 312 314 316 321 323 323 323 323 323 322 322 321 320 316 311 316 321 319 321 321 321 319 317 317 316 319 321 324 325 323 323 325 325 324 323 321
300 301 301 302 303 304 306 307 308 309 310 312 316 320 322 322 322 322 321 321 320 316 312 318 318 318 316 316 316 317 317 314 316 319 320 319 318 319 319 320 320 318 317
297 297 298 298 299 300 303 303 304 305 305 306 308 309 310 316 321 321 321 321 320 319 315 317 320 317 313 314 312 314 316 316 318 317 319 317 316 316 316 316 316 315 313
293 294 294 295 295 296 298 299 300 302 302 302 303 305 305 308 309 315 319 319 319 319 316 314 316 311 310 313 313 312 312 313 316 315 316 315 314 314 313 313 312 312 310
292 293 293 293 293 295 296 296 296 297 298 299 300 301 303 305 306 307 307 307 315 317 317 315 314 304 305 306 305 307 307 306 309 310 314 313 312 312 311 311 310 309 307
291 291 291 291 292 292 293 294 295 295 296 296 298 299 300 301 301 302 304 305 307 307 314 314 308 300 301 302 305 302 299 301 301 306 309 309 310 310 309 309 308 306 304
290 290 290 290 290 291 291 292 293 293 294 294 295 296 298 298 298 301 301 303 304 304 304 308 302 299 300 300 301 302 302 300 297 299 303 304 306 306 307 308 305 303 302
287 288 288 288 288 289 291 292 292 291 292 291 292 293 294 296 297 298 299 300 301 301 302 302 305 304 303 304 303 301 300 295 293 297 299 299 303 302 304 306 305 303 301
287 287 288 288 288 289 290 292 292 291 291 291 291 291 292 293 296 295 297 297 298 300 302 303 301 303 307 306 304 300 300 299 300 296 300 296 299 299 302 304 304 303 301
287 287 287 287 288 288 290 291 291 291 291 291 291 291 291 291 293 294 294 294 295 296 298 301 303 305 306 310 306 304 303 301 294 295 301 295 294 296 298 299 303 302 301
286 286 286 286 286 287 289 290 290 290 289 289 290 290 290 290 292 292 291 292 292 293 297 298 300 301 302 303 306 305 300 294 288 289 297 290 288 287 290 292 298 302 301
285 286 285 286 287 287 288 289 290 289 288 288 289 289 290 289 290 290 289 288 288 289 293 295 298 298 300 304 303 305 301 296 295 288 291 293 286 286 285 287 292 296 298

GFSMA_sfc_thetae_111.txt.gz
Theta_e
341 340 340 343 343 345 344 344 344 340 337 334 332 331 329 330 330 331 331 331 335 337 340 342 342 341 340 339 339 338 337 337 336 335 333 332 331 330 330 330 330 330 330
339 341 343 344 344 346 345 343 341 342 337 334 331 329 328 329 329 329 329 330 332 335 336 339 342 342 342 341 341 340 340 339 339 338 337 336 334 333 332 332 332 332 332
336 337 340 342 343 345 344 344 342 341 338 335 329 324 324 326 327 326 327 329 329 328 333 336 338 341 343 343 343 342 343 343 342 341 340 339 338 336 335 334 334 334 334
335 335 336 339 340 340 341 339 337 334 336 333 331 327 322 322 323 324 325 326 327 328 327 332 336 338 340 342 343 343 343 342 342 342 341 342 341 339 337 336 335 335 333
334 333 332 333 336 337 337 337 338 337 334 335 334 333 330 327 325 323 322 325 327 328 329 329 329 332 336 340 341 343 343 342 341 342 342 342 342 341 339 337 335 334 331
332 332 333 332 331 334 335 335 335 336 334 333 331 331 334 332 328 328 325 324 325 328 329 329 329 327 328 334 337 339 341 343 342 342 341 341 341 341 339 339 336 333 331
333 333 331 331 332 331 331 332 332 331 330 332 329 328 330 331 329 328 328 327 325 324 328 328 328 329 328 329 332 336 338 340 342 342 341 340 340 339 339 338 336 333 331
333 332 331 331 333 332 330 330 330 328 329 330 324 323 318 322 324 327 328 328 325 324 326 327 326 327 328 329 327 331 335 337 340 341 341 340 339 339 339 338 335 333 331
333 333 332 332 330 332 330 330 329 327 324 328 328 324 317 314 319 325 324 325 325 324 324 324 325 326 328 329 330 328 328 332 339 340 340 339 340 339 339 338 335 333 330
330 331 333 332 331 331 329 329 331 330 328 325 327 328 327 323 315 314 321 323 324 323 323 324 326 326 328 329 327 326 325 328 335 337 339 338 338 338 338 337 336 334 330
329 328 330 330 330 330 329 330 329 330 330 327 325 325 324 324 321 315 312 317 324 324 324 324 326 327 328 329 331 328 325 329 334 336 338 338 337 337 337 338 336 334 331
315 315 318 321 327 327 326 327 328 328 328 327 327 325 321 318 316 315 312 313 314 319 323 324 324 326 329 329 327 324 323 327 334 336 338 337 336 338 338 337 336 335 331
310 310 312 314 315 316 316 318 321 325 326 324 324 324 324 321 321 319 315 313 312 316 318 322 324 325 327 329 328 320 320 324 329 333 336 336 335 334 335 336 336 335 332
305 306 308 309 309 310 311 312 316 315 315 322 324 325 324 324 323 322 319 316 312 313 316 316 321 324 326 328 326 317 322 320 324 329 332 332 330 329 329 332 333 334 332
301 302 303 303 304 305 307 308 309 308 309 312 313 311 316 323 324 323 322 320 316 310 312 316 318 322 323 325 323 323 323 317 320 323 325 325 323 323 325 327 328 329 328
298 298 299 299 300 301 303 304 305 305 305 306 307 307 309 310 312 315 321 321 320 317 312 317 318 317 320 319 319 321 320 314 317 320 320 319 319 320 322 324 325 324 324
294 294 295 296 296 296 298 299 299 301 301 302 303 304 305 307 307 309 310 313 318 318 314 316 317 318 314 315 315 316 317 317 318 316 319 318 318 318 320 321 321 320 319
293 293 293 293 293 294 296 296 295 296 297 297 298 300 301 303 304 306 304 304 306 307 312 313 316 311 312 313 315 314 314 315 317 316 316 317 317 317 318 318 317 316 315
291 291 291 291 291 292 293 293 294 294 295 296 297 297 298 300 300 299 300 303 304 306 305 305 312 311 311 308 308 310 311 312 312 312 316 316 317 317 316 315 314 313 312
289 289 290 289 290 290 291 291 292 292 293 294 295 295 295 296 295 297 298 299 301 301 303 303 304 304 303 303 305 303 301 302 305 306 312 314 315 314 313 313 311 309 307
288 289 289 289 289 289 289 290 291 290 290 291 292 292 294 295 296 298 296 297 297 296 298 299 300 301 300 299 300 302 303 301 299 301 304 306 309 309 310 310 308 306 306
288 288 288 288 288 288 292 291 291 290 290 290 290 291 292 293 294 295 297 298 297 294 294 295 296 298 301 302 302 301 300 295 293 299 301 302 306 305 306 307 307 305 304
287 287 287 287 287 288 291 291 291 290 289 290 290 290 290 291 293 291 293 295 295 297 296 294 294 297 299 302 304 300 299 297 299 298 303 300 300 301 304 305 306 304 304
286 286 287 287 287 287 290 290 291 290 289 290 290 290 289 289 290 291 290 289 290 291 293 294 294 295 297 299 299 300 302 302 296 295 302 299 298 299 301 302 305 304 303
286 286 286 286 286 287 289 289 289 289 289 289 289 290 289 289 290 291 288 287 287 288 291 293 294 296 297 299 299 299 296 297 294 290 297 295 290 292 293 294 302 304 303
285 286 286 287 287 287 289 289 289 288 287 287 288 288 291 289 290 290 287 286 284 285 287 288 289 290 293 295 299 298 298 295 296 289 291 293 287 287 287 288 293 301 301

GFSMA_sfc_thetae_114.txt.gz
Theta_e
333 334 333 336 340 339 338 338 338 338 336 333 331 326 324 327 326 325 327 331 337 341 341 343 343 341 340 340 339 338 337 337 336 335 334 333 332 331 331 330 330 330 330
334 334 336 337 337 339 339 338 337 337 334 335 330 329 325 324 322 323 323 328 333 336 340 340 342 344 343 341 341 340 339 339 338 338 337 336 335 334 333 332 332 332 332
334 333 335 336 337 338 338 337 336 336 334 332 327 327 325 324 321 322 321 324 329 330 335 338 339 341 343 344 343 342 342 342 342 341 340 340 339 338 336 335 334 333 334
331 331 334 332 336 336 336 336 335 333 333 331 331 328 327 324 320 320 321 321 323 326 329 335 338 340 341 342 344 344 344 342 342 342 341 341 341 341 338 337 336 335 335
331 330 331 329 330 330 332 333 332 332 329 329 330 330 328 324 321 321 318 318 319 322 324 327 330 332 336 340 340 342 343 343 342 342 341 341 341 342 341 339 337 336 335
330 328 328 328 329 327 327 330 330 330 329 329 330 329 328 328 323 322 322 322 320 323 322 324 325 325 329 335 339 339 341 345 343 342 341 342 342 342 341 340 339 337 335
330 328 328 329 326 326 326 329 328 327 327 329 325 325 327 330 328 326 325 325 324 323 323 325 325 323 324 330 334 338 340 342 344 343 342 342 342 340 339 339 340 338 335
331 329 329 326 326 327 326 327 326 325 326 328 322 322 317 321 327 328 328 326 324 323 320 321 324 324 325 324 325 332 336 340 340 343 343 343 341 339 339 339 339 339 335
329 330 327 326 326 326 325 325 326 326 323 324 326 321 315 313 316 321 324 325 325 324 325 323 323 322 324 323 326 326 329 333 338 341 343 342 342 340 339 338 339 338 335
329 329 329 327 325 325 324 324 327 326 324 322 325 326 324 321 313 309 315 320 323 323 323 323 323 323 323 324 323 324 324 327 335 338 340 342 341 340 339 338 338 338 335
320 321 322 325 325 324 322 323 325 323 325 322 321 320 321 322 319 315 312 313 315 320 320 321 321 321 323 324 325 325 324 328 334 336 339 340 340 340 339 339 338 338 337
312 314 317 317 318 317 317 319 322 322 322 323 322 321 320 317 317 316 315 315 314 318 320 320 322 322 323 324 324 322 323 327 334 337 339 340 340 340 340 339 340 338 336
305 306 308 309 309 311 312 312 316 315 313 317 320 321 322 322 322 319 317 315 314 316 316 318 321 323 323 325 326 320 321 325 330 336 338 339 338 336 337 338 338 336 335
301 302 303 304 305 306 307 309 310 309 309 310 311 311 312 317 321 321 319 316 313 314 316 315 319 321 323 325 325 318 323 321 325 331 335 335 333 331 331 333 334 335 333
298 299 299 300 301 303 304 305 306 305 306 307 308 307 308 310 310 311 312 313 316 310 313 316 315 320 320 323 324 324 323 318 322 325 327 327 324 325 325 327 328 329 329
294 294 295 297 297 298 300 301 301 302 302 303 304 304 304 306 307 308 309 308 308 307 310 318 319 320 320 320 321 323 322 315 318 321 322 321 320 320 321 322 323 325 325
293 293 293 294 294 295 297 297 297 298 297 298 299 299 300 303 303 305 303 304 305 305 303 306 312 318 316 318 317 320 319 319 319 317 320 320 319 319 319 319 320 321 323
290 289 288 289 290 291 293 293 293 294 295 295 295 296 297 299 300 299 300 301 302 304 302 300 305 307 314 316 317 316 316 317 317 316 316 317 317 317 317 317 317 319 320
288 288 288 288 288 289 289 290 291 290 291 292 293 294 294 295 295 294 297 296 299 299 300 300 300 304 308 308 310 310 311 314 313 312 316 316 317 317 316 316 316 317 317
286 286 286 288 288 288 289 290 290 290 290 290 292 292 292 293 292 292 295 294 296 295 295 296 297 300 303 303 304 304 304 304 307 306 310 312 314 315 315 316 315 314 313
286 286 287 287 287 287 288 289 289 289 288 288 290 291 291 292 294 294 292 293 294 292 292 292 293 294 297 299 301 303 302 304 301 302 305 308 310 313 314 314 313 310 310
284 284 284 284 284 287 290 291 290 288 288 288 288 289 290 292 292 293 294 294 292 290 290 290 290 291 293 296 299 299 300 296 294 300 301 303 307 306 309 312 310 309 308
282 282 283 283 283 284 290 291 291 288 287 287 287 288 288 289 290 289 290 290 291 292 292 289 288 289 289 292 294 293 294 295 298 301 300 299 299 301 305 306 308 307 307
281 282 282 283 283 285 290 290 290 287 286 286 287 287 286 286 287 288 287 285 286 287 288 289 287 287 289 291 292 293 294 294 297 297 300 296 296 299 299 303 306 306 305
281 281 283 282 282 283 289 290 288 285 285 285 286 286 286 286 289 290 286 284 284 285 289 290 290 291 291 292 292 291 289 289 290 292 294 295 292 293 293 297 303 305 305
283 284 283 284 286 284 288 289 288 286 284 285 285 286 289 288 290 290 286 284 283 283 284 285 285 286 288 287 291 290 289 288 289 289 292 292 288 288 288 290 292 303 303

GFSMA_sfc_thetae_117.txt.gz
Theta_e
335 335 332 334 337 338 337 336 336 336 335 333 331 326 329 329 327 325 326 332 338 342 344 343 343 342 340 340 339 338 337 337 336 335 334 333 332 332 332 331 331 331 331
333 332 332 333 334 337 337 338 336 336 335 334 331 329 324 327 328 326 326 330 334 338 342 344 343 343 343 342 341 340 339 339 338 337 337 336 335 334 334 333 332 332 332
330 331 331 331 334 336 336 335 334 335 334 332 331 331 328 324 323 323 321 326 330 331 337 342 343 344 345 344 343 341 342 342 341 340 339 339 339 338 336 335 334 334 334
330 328 330 332 333 334 334 333 335 333 333 332 331 329 326 325 323 321 322 324 327 329 331 336 339 341 343 343 344 344 345 343 342 342 342 341 341 340 339 338 337 335 335
327 327 329 329 329 329 330 330 330 330 329 331 331 331 331 328 325 325 320 319 320 323 324 329 332 334 337 341 341 343 345 344 343 342 342 342 341 341 340 340 339 338 336
328 325 326 327 327 325 325 326 327 327 328 328 330 330 330 330 328 324 322 321 318 318 321 321 324 327 330 336 340 341 343 345 344 343 342 342 342 342 341 340 341 339 338
325 326 326 325 325 323 323 324 325 322 322 327 325 324 326 328 328 327 325 322 321 321 319 321 323 324 325 330 334 338 341 343 345 344 343 342 342 342 340 339 340 340 339
326 327 327 325 324 321 322 324 326 325 325 327 322 321 317 320 325 328 328 328 325 325 321 319 320 321 322 323 326 332 337 340 343 345 345 343 342 342 340 340 338 340 340
324 326 327 327 324 323 323 323 324 324 320 321 325 320 314 312 317 323 325 326 326 326 325 324 321 321 322 323 324 325 328 332 338 342 344 345 343 343 341 340 339 339 341
316 317 324 326 325 325 321 322 322 321 319 317 320 324 323 319 312 310 317 321 324 324 324 323 324 323 320 320 321 322 323 326 334 338 341 344 344 343 341 340 339 339 340
311 310 313 321 325 324 323 322 321 321 321 322 321 317 320 321 321 317 314 315 315 319 322 322 323 323 324 324 322 321 322 327 334 337 339 342 344 343 342 340 339 339 340
305 305 307 311 312 315 315 317 319 317 317 321 321 319 319 317 316 316 315 316 316 318 319 318 318 320 322 322 321 319 321 325 331 336 339 341 342 343 343 342 341 340 339
298 299 302 304 306 307 310 312 311 310 311 311 311 311 313 316 317 319 317 316 315 317 317 318 319 320 320 321 322 317 319 323 328 334 338 340 339 339 338 341 342 341 340
296 298 299 299 302 303 305 307 306 307 308 307 306 307 308 309 309 310 310 309 311 314 316 316 318 317 318 320 321 318 322 320 324 330 334 335 333 332 332 336 338 337 336
295 296 297 297 298 299 300 300 302 301 304 305 304 304 304 305 306 307 308 306 304 304 308 314 316 319 320 317 321 323 322 320 321 324 326 326 324 324 326 329 330 330 330
293 293 294 294 295 296 298 297 296 297 296 299 300 300 302 303 303 305 302 303 304 302 301 307 308 310 312 317 319 320 324 316 319 321 321 320 321 321 322 323 325 325 326
290 290 290 290 290 291 293 293 293 294 295 296 296 297 297 298 301 298 298 301 300 301 298 301 304 307 307 308 311 318 321 322 323 317 321 320 320 319 319 319 320 321 322
289 289 289 287 288 288 288 289 289 290 290 290 292 294 294 295 296 294 296 296 297 298 297 295 299 301 302 307 308 310 315 318 319 317 317 318 317 317 317 318 317 318 318
284 285 286 286 286 286 287 288 288 289 289 289 290 290 291 292 291 292 294 293 295 295 295 294 294 298 301 304 304 307 307 309 312 310 315 316 317 317 316 316 316 315 314
283 284 284 285 285 286 287 288 288 287 287 288 290 291 291 290 289 290 292 292 294 293 293 292 292 293 295 298 300 301 300 304 305 307 309 311 313 314 315 316 315 313 311
283 283 283 284 284 285 287 287 288 288 288 288 288 289 290 291 293 291 291 290 289 288 289 290 289 289 290 292 292 294 294 296 299 303 303 305 308 310 311 312 311 310 311
281 282 282 282 282 286 289 291 289 286 287 286 286 287 289 291 291 291 291 291 289 287 286 285 286 286 287 288 290 290 291 290 291 301 299 300 305 306 308 311 311 310 310
281 280 281 282 281 282 290 291 291 286 285 285 286 286 286 288 289 287 289 289 289 289 289 286 284 284 284 286 287 287 287 288 289 294 295 294 300 302 306 307 308 309 310
282 282 282 282 281 283 289 290 291 285 285 285 285 285 284 285 286 287 286 285 285 286 286 287 285 285 286 288 288 287 287 287 289 290 294 292 298 298 300 303 306 307 307
280 281 282 283 283 284 289 290 288 285 284 284 285 285 286 285 289 291 285 284 283 284 289 290 291 291 290 290 290 287 285 284 284 286 289 291 293 292 293 296 300 306 306
281 282 282 282 285 282 287 289 288 285 284 285 286 286 289 287 290 290 286 285 282 283 283 283 284 284 286 286 289 286 286 284 284 283 287 288 289 289 290 291 293 301 304